[[{"header":{"parameterUnit":"m.s-1","parameterCategory":1,"la1":30.6,"la2":28.766,"lo1":-90.7593,"lo2":-88.6598,"dy":0.0162,"dx":0.0183,"nx":116,"ny":114,"refTime":"2024-04-30T12:00:00:Z","depth":0,"parameterNumber":2,"parameterNumberName":"U-component_of_WINDS"},"data":[0.0,0.0,0.0,0.0,0.0,0.0,0.0,0.0,0.0,0.0,0.0,0.0,0.0,0.0,0.0,0.0,0.0,0.0,0.0,0.0,0.0,0.0,0.0,0.0,0.0,0.0,0.0,0.0,0.0,0.0,0.0,0.0,0.0,0.0,0.0,0.0,0.0,0.0,0.0,0.0,0.0,0.0,0.0,0.0,0.0,0.0,0.0,0.0,0.0,0.0,0.0,0.0,0.0,0.0,0.0,0.0,0.0,0.0,0.0,0.0,0.0,0.0,0.0,0.0,0.0,0.0,0.0,0.0,0.0,0.0,0.0,0.0,0.0,0.0,0.0,0.0,0.0,0.0,0.0,0.0,0.0,0.0,0.0,0.0,0.0,0.0,0.0,0.0,0.0,0.0,0.0,0.0,0.0,0.0,0.0,0.0,0.0,0.0,0.0,0.0,0.0,0.0,0.0,0.0,0.0,0.0,0.0,0.0,0.0,0.0,0.0,0.0,0.0,0.0,0.0,0.0,0.0,0.0,0.0,0.0,0.0,0.0,0.0,0.0,0.0,0.0,0.0,0.0,0.0,0.0,0.0,0.0,0.0,0.0,0.0,0.0,0.0,0.0,0.0,0.0,0.0,0.0,0.0,0.0,0.0,0.0,0.0,0.0,0.0,0.0,0.0,0.0,0.0,0.0,0.0,0.0,0.0,0.0,0.0,0.0,0.0,0.0,0.0,0.0,0.0,0.0,0.0,0.0,0.0,0.0,0.0,0.0,0.0,0.0,0.0,0.0,0.0,0.0,0.0,0.0,0.0,0.0,0.0,0.0,0.0,0.0,0.0,0.0,0.0,0.0,0.0,0.0,0.0,0.0,0.0,0.0,0.0,0.0,0.0,0.0,0.0,0.0,0.0,0.0,0.0,0.0,0.0,0.0,0.0,0.0,0.0,0.0,0.0,0.0,0.0,0.0,0.0,0.0,0.0,0.0,0.0,0.0,0.0,0.0,0.0,0.0,0.0,0.0,0.0,0.0,0.0,0.0,0.0,0.0,0.0,0.0,0.0,0.0,0.0,0.0,0.0,0.0,0.0,0.0,0.0,0.0,0.0,0.0,0.0,0.0,0.0,0.0,0.0,0.0,0.0,0.0,0.0,0.0,0.0,0.0,0.0,0.0,0.0,0.0,0.0,0.0,0.0,0.0,0.0,0.0,0.0,0.0,0.0,0.0,0.0,0.0,0.0,0.0,0.0,0.0,0.0,0.0,0.0,0.0,0.0,0.0,0.0,0.0,0.0,0.0,0.0,0.0,0.0,0.0,0.0,0.0,0.0,0.0,0.0,0.0,0.0,0.0,0.0,0.0,0.0,0.0,0.0,0.0,0.0,0.0,0.0,0.0,0.0,0.0,0.0,0.0,0.0,0.0,0.0,0.0,0.0,0.0,0.0,0.0,0.0,0.0,0.0,0.0,0.0,0.0,0.0,0.0,0.0,0.0,0.0,0.0,0.0,0.0,0.0,0.0,0.0,0.0,0.0,0.0,0.0,0.0,0.0,0.0,0.0,0.0,0.0,0.0,0.0,0.0,0.0,0.0,0.0,0.0,0.0,0.0,0.0,0.0,0.0,0.0,0.0,0.0,0.0,0.0,0.0,0.0,0.0,0.0,0.0,0.0,0.0,0.0,0.0,0.0,0.0,0.0,0.0,0.0,0.0,0.0,0.0,0.0,0.0,0.0,0.0,0.0,0.0,0.0,0.0,0.0,0.0,0.0,0.0,0.0,0.0,0.0,0.0,0.0,0.0,0.0,0.0,0.0,0.0,0.0,0.0,0.0,0.0,0.0,0.0,0.0,0.0,0.0,0.0,0.0,0.0,0.0,0.0,0.0,0.0,0.0,0.0,0.0,0.0,0.0,0.0,0.0,0.0,0.0,0.0,0.0,0.0,0.0,0.0,0.0,0.0,0.0,0.0,0.0,0.0,0.0,0.0,0.0,0.0,0.0,0.0,0.0,0.0,0.0,0.0,0.0,0.0,0.0,0.0,0.0,0.0,0.0,0.0,0.0,0.0,0.0,0.0,0.0,0.0,0.0,0.0,0.0,0.0,0.0,0.0,0.0,0.0,0.0,0.0,0.0,0.0,0.0,0.0,0.0,0.0,0.0,0.0,0.0,0.0,0.0,0.0,0.0,0.0,0.0,0.0,0.0,0.0,0.0,0.0,0.0,0.0,0.0,0.0,0.0,0.0,0.0,0.0,0.0,0.0,0.0,0.0,0.0,0.0,0.0,0.0,0.0,0.0,0.0,0.0,0.0,0.0,0.0,0.0,0.0,0.0,0.0,0.0,0.0,0.0,0.0,0.0,0.0,0.0,0.0,0.0,0.0,0.0,0.0,0.0,0.0,0.0,0.0,0.0,0.0,0.0,0.0,0.0,0.0,0.0,0.0,0.0,0.0,0.0,0.0,0.0,0.0,0.0,0.0,0.0,0.0,0.0,0.0,0.0,0.0,0.0,0.0,0.0,0.0,0.0,0.0,0.0,0.0,0.0,0.0,0.0,0.0,0.0,0.0,0.0,0.0,0.0,0.0,0.0,0.0,0.0,0.0,0.0,0.0,0.0,0.0,0.0,0.0,0.0,0.0,0.0,0.0,0.0,0.0,0.0,0.0,0.0,0.0,0.0,0.0,0.0,0.0,0.0,0.0,0.0,0.0,0.0,0.0,0.0,0.0,0.0,0.0,0.0,0.0,0.0,0.0,0.0,0.0,0.0,0.0,0.0,0.0,0.0,0.0,0.0,0.0,0.0,0.0,0.0,0.0,0.0,0.0,0.0,0.0,0.0,0.0,0.0,0.0,0.0,0.0,0.0,0.0,0.0,0.0,0.0,0.0,0.0,0.0,0.0,0.0,0.0,0.0,0.0,0.0,0.0,0.0,0.0,0.0,0.0,0.0,0.0,0.0,0.0,0.0,0.0,0.0,0.0,0.0,0.0,0.0,0.0,0.0,0.0,0.0,0.0,0.0,0.0,0.0,0.0,0.0,0.0,0.0,0.0,0.0,0.0,0.0,0.0,0.0,0.0,0.0,0.0,0.0,0.0,0.0,0.0,0.0,0.0,0.0,0.0,0.0,0.0,0.0,0.0,0.0,0.0,0.0,0.0,0.0,0.0,0.0,0.0,0.0,0.0,0.0,0.0,0.0,0.0,0.0,0.0,0.0,0.0,0.0,0.0,0.0,0.0,0.0,0.0,0.0,0.0,0.0,0.0,0.0,0.0,0.0,0.0,0.0,0.0,0.0,0.0,0.0,0.0,0.0,0.0,0.0,0.0,0.0,0.0,0.0,0.0,0.0,0.0,0.0,0.0,0.0,0.0,0.0,0.0,0.0,0.0,0.0,0.0,0.0,0.0,0.0,0.0,0.0,0.0,0.0,0.0,0.0,0.0,0.0,0.0,0.0,0.0,0.0,0.0,0.0,0.0,0.0,0.0,0.0,0.0,0.0,0.0,0.0,0.0,0.0,0.0,0.0,0.0,0.0,0.0,0.0,0.0,0.0,0.0,0.0,0.0,0.0,0.0,0.0,0.0,0.0,0.0,0.0,0.0,0.0,0.0,0.0,0.0,0.0,0.0,0.0,0.0,0.0,0.0,0.0,0.0,0.0,0.0,0.0,0.0,0.0,0.0,0.0,0.0,0.0,0.0,0.0,0.0,0.0,0.0,0.0,0.0,0.0,0.0,0.0,0.0,0.0,0.0,0.0,0.0,0.0,0.0,0.0,0.0,0.0,0.0,0.0,0.0,0.0,0.0,0.0,0.0,0.0,0.0,0.0,0.0,0.0,0.0,0.0,0.0,0.0,0.0,0.0,0.0,0.0,0.0,0.0,0.0,0.0,0.0,0.0,0.0,0.0,0.0,0.0,0.0,0.0,0.0,0.0,0.0,0.0,0.0,0.0,0.0,0.0,0.0,0.0,0.0,0.0,0.0,0.0,0.0,0.0,0.0,0.0,0.0,0.0,0.0,0.0,0.0,0.0,0.0,0.0,0.0,0.0,0.0,0.0,0.0,0.0,0.0,0.0,0.0,0.0,0.0,0.0,0.0,0.0,0.0,0.0,0.0,0.0,0.0,0.0,0.0,0.0,0.0,0.0,0.0,0.0,0.0,0.0,0.0,0.0,0.0,0.0,0.0,0.0,0.0,0.0,0.0,0.0,0.0,0.0,0.0,0.0,0.0,0.0,0.0,0.0,0.0,0.0,0.0,0.0,0.0,0.0,0.0,0.0,0.0,0.0,0.0,0.0,0.0,0.0,0.0,0.0,0.0,0.0,0.0,0.0,0.0,0.0,0.0,0.0,0.0,0.0,0.0,0.0,0.0,0.0,0.0,0.0,0.0,0.0,0.0,0.0,0.0,0.0,0.0,0.0,0.0,0.0,0.0,0.0,0.0,0.0,0.0,0.0,0.0,0.0,0.0,0.0,0.0,0.0,0.0,0.0,0.0,0.0,0.0,0.0,0.0,0.0,0.0,0.0,0.0,0.0,0.0,0.0,0.0,0.0,0.0,0.0,0.0,0.0,0.0,0.0,0.0,0.0,0.0,0.0,0.0,0.0,0.0,0.0,0.0,0.0,0.0,0.0,0.0,0.0,0.0,0.0,0.0,0.0,0.0,0.0,0.0,0.0,0.0,0.0,0.0,0.0,0.0,0.0,0.0,0.0,0.0,0.0,0.0,0.0,0.0,0.0,0.0,0.0,0.0,0.0,0.0,0.0,0.0,0.0,0.0,0.0,0.0,0.0,0.0,0.0,0.0,0.0,0.0,0.0,0.0,0.0,0.0,0.0,0.0,0.0,0.0,0.0,0.0,0.0,0.0,0.0,0.0,0.0,0.0,0.0,0.0,0.0,0.0,0.0,0.0,0.0,0.0,0.0,0.0,0.0,0.0,0.0,0.0,0.0,0.0,0.0,0.0,0.0,0.0,0.0,0.0,0.0,0.0,0.0,0.0,0.0,0.0,0.0,0.0,0.0,0.0,0.0,0.0,0.0,0.0,0.0,0.0,0.0,0.0,0.0,0.0,0.0,0.0,0.0,0.0,0.0,0.0,0.0,0.0,0.0,0.0,0.0,0.0,0.0,0.0,0.0,0.0,0.0,0.0,0.0,0.0,0.0,0.0,0.0,0.0,0.0,0.0,0.0,0.0,0.0,0.0,0.0,0.0,0.0,0.0,0.0,0.0,0.0,0.0,0.0,0.0,0.0,0.0,0.0,0.0,0.0,0.0,0.0,0.0,0.0,0.0,0.0,0.0,0.0,0.0,0.0,0.0,0.0,0.0,0.0,0.0,0.0,0.0,0.0,0.0,0.0,0.0,0.0,0.0,0.0,0.0,0.0,0.0,0.0,0.0,0.0,0.0,0.0,0.0,0.0,0.0,0.0,0.0,0.0,0.0,0.0,0.0,0.0,0.0,0.0,0.0,0.0,0.0,0.0,0.0,0.0,0.0,0.0,0.0,0.0,0.0,0.0,0.0,0.0,0.0,0.0,0.0,0.0,0.0,0.0,0.0,0.0,0.0,0.0,0.0,0.0,0.0,0.0,0.0,0.0,0.0,0.0,0.0,0.0,0.0,0.0,0.0,0.0,0.0,0.0,0.0,0.0,0.0,0.0,0.0,0.0,0.0,0.0,0.0,0.0,0.0,0.0,0.0,0.0,0.0,0.0,0.0,0.0,0.0,0.0,0.0,0.0,0.0,0.0,0.0,0.0,0.0,0.0,0.0,0.0,0.0,0.0,0.0,0.0,0.0,0.0,0.0,0.0,0.0,0.0,0.0,0.0,0.0,0.0,0.0,0.0,0.0,0.0,0.0,0.0,0.0,0.0,0.0,0.0,0.0,0.0,0.0,0.0,0.0,0.0,0.0,0.0,0.0,0.0,0.0,0.0,0.0,0.0,0.0,0.0,0.0,0.0,0.0,0.0,0.0,0.0,0.0,0.0,0.0,0.0,0.0,0.0,0.0,0.0,0.0,0.0,0.0,0.0,0.0,0.0,0.0,0.0,0.0,0.0,0.0,0.0,0.0,0.0,0.0,0.0,0.0,0.0,0.0,0.0,0.0,0.0,0.0,0.0,0.0,0.0,-2.1743,0.0,0.0,0.0,0.0,0.0,0.0,0.0,0.0,0.0,0.0,0.0,0.0,0.0,0.0,0.0,0.0,0.0,0.0,0.0,0.0,0.0,0.0,0.0,0.0,-1.8877,-1.8684,-1.8369,-1.8674,-1.8853,-1.8853,0.0,0.0,0.0,0.0,0.0,-2.0002,-2.0002,-2.017,-2.0568,-2.0568,-2.1143,-2.226,-2.2189,-2.1974,-2.1615,0.0,0.0,0.0,0.0,0.0,0.0,0.0,0.0,0.0,0.0,0.0,0.0,0.0,0.0,0.0,0.0,0.0,0.0,0.0,0.0,0.0,0.0,0.0,0.0,0.0,0.0,0.0,0.0,0.0,0.0,0.0,0.0,0.0,0.0,0.0,0.0,0.0,0.0,0.0,0.0,0.0,0.0,0.0,0.0,0.0,0.0,0.0,0.0,0.0,0.0,0.0,0.0,0.0,0.0,0.0,0.0,0.0,0.0,0.0,0.0,0.0,0.0,0.0,0.0,0.0,0.0,0.0,0.0,0.0,0.0,0.0,-2.1889,0.0,0.0,0.0,0.0,0.0,0.0,0.0,0.0,0.0,0.0,0.0,0.0,0.0,0.0,0.0,0.0,0.0,0.0,0.0,0.0,0.0,-1.99,-1.9181,-1.963,-1.9731,-1.9147,-1.963,-2.0002,-2.0002,-2.0002,0.0,0.0,-2.0204,-2.0272,-2.0407,-2.0407,-2.0737,-2.138,-2.1779,-2.2699,-2.4154,-2.4323,-2.3985,-2.3211,-2.2222,0.0,0.0,0.0,0.0,0.0,0.0,0.0,0.0,0.0,0.0,0.0,0.0,0.0,0.0,0.0,0.0,0.0,0.0,0.0,0.0,0.0,0.0,0.0,0.0,0.0,0.0,0.0,0.0,0.0,0.0,0.0,0.0,0.0,0.0,0.0,0.0,0.0,0.0,0.0,0.0,0.0,0.0,0.0,0.0,0.0,0.0,0.0,0.0,0.0,0.0,0.0,0.0,0.0,0.0,0.0,0.0,0.0,0.0,0.0,0.0,0.0,0.0,0.0,-2.3468,-2.3534,-2.3567,-2.4097,-2.3993,-2.3366,-2.3273,-2.3069,-2.2812,0.0,0.0,0.0,0.0,0.0,0.0,0.0,0.0,0.0,0.0,0.0,0.0,0.0,0.0,0.0,0.0,0.0,0.0,0.0,0.0,-2.0737,-1.9934,-1.9934,-1.9968,-1.9866,-1.9934,-2.0002,-2.0002,-2.0002,-2.0306,-2.1008,-2.1042,-2.1346,-2.1989,-2.2023,-2.2057,-2.2158,-2.4086,-2.5778,-2.7266,-2.7909,-2.7841,-2.6928,-2.3915,-2.3117,-2.3995,0.0,0.0,0.0,0.0,0.0,0.0,0.0,0.0,0.0,0.0,0.0,0.0,0.0,0.0,0.0,0.0,0.0,0.0,0.0,0.0,0.0,0.0,0.0,0.0,0.0,0.0,0.0,0.0,0.0,0.0,0.0,0.0,0.0,0.0,0.0,0.0,0.0,0.0,0.0,0.0,0.0,-2.005,-2.0257,0.0,0.0,0.0,0.0,0.0,0.0,0.0,0.0,0.0,0.0,0.0,0.0,0.0,0.0,-2.3047,-2.3828,-2.4258,-2.4258,-2.5,-2.5347,-2.5288,-2.5356,-2.5294,-2.5162,-2.5078,0.0,-2.2812,-2.2812,0.0,0.0,0.0,0.0,0.0,0.0,0.0,0.0,0.0,0.0,0.0,0.0,0.0,0.0,0.0,0.0,0.0,0.0,0.0,0.0,0.0,-2.1786,-2.2192,-2.1353,-2.3177,-2.365,-2.2023,-2.2699,-2.2767,-2.1854,-2.182,-2.1989,-2.2293,-2.2327,-2.3105,-2.4763,-2.7029,-2.889,-3.0345,-3.0683,-3.0446,-2.9668,-2.8135,-2.6387,-2.4425,-2.3566,0.0,0.0,0.0,0.0,0.0,0.0,0.0,0.0,0.0,0.0,0.0,0.0,0.0,0.0,0.0,0.0,0.0,0.0,0.0,0.0,0.0,0.0,0.0,0.0,0.0,0.0,0.0,0.0,0.0,0.0,0.0,0.0,0.0,0.0,0.0,0.0,0.0,0.0,0.0,-2.0278,-2.0604,-2.0334,-2.0696,-2.0966,0.0,0.0,0.0,0.0,0.0,0.0,0.0,0.0,0.0,-2.5117,-2.5117,-2.5195,-2.5312,-2.6172,-2.6602,-2.6602,-2.695,-2.6825,-2.6344,-2.6793,-2.6732,-2.6233,-2.6201,-2.5744,-2.5007,-2.4452,-2.4197,-2.4159,0.0,0.0,0.0,0.0,0.0,-2.2197,0.0,0.0,0.0,0.0,0.0,0.0,0.0,0.0,0.0,0.0,0.0,0.0,-2.2084,-2.3879,-2.4763,-2.4086,-2.6184,-2.6691,-2.4661,-2.4661,-2.412,-2.2665,-2.2395,-2.2327,-2.2327,-2.3038,-2.4898,-2.7841,-3.0108,-3.2002,-3.3423,-3.3626,-3.3322,-3.2611,-3.2408,-2.9939,-2.5879,-2.5101,-2.4255,-2.3376,0.0,0.0,0.0,0.0,0.0,0.0,0.0,0.0,0.0,0.0,0.0,0.0,0.0,0.0,0.0,0.0,0.0,0.0,0.0,0.0,0.0,0.0,0.0,0.0,0.0,0.0,0.0,0.0,0.0,0.0,0.0,0.0,0.0,0.0,0.0,0.0,0.0,-2.1119,-2.1369,-2.068,-2.1543,-2.2021,0.0,0.0,0.0,0.0,0.0,0.0,-2.6326,-2.5742,-2.5703,-2.6328,-2.6367,-2.668,-2.7344,-2.7969,-2.8281,-2.8281,-2.8237,-2.7879,-2.7292,-2.7894,-2.7803,-2.7176,-2.693,-2.6961,-2.7074,-2.5848,-2.5312,-2.5274,-2.4639,-2.4389,-2.4312,-2.3437,-2.3129,-2.309,0.0,0.0,0.0,0.0,0.0,0.0,0.0,0.0,0.0,0.0,0.0,-2.2835,-2.4184,-2.5676,-2.7131,-2.8518,-2.7469,-2.6996,-2.7536,-2.4391,-2.2733,-2.3308,-2.2665,-2.2327,-2.2327,-2.5033,-2.7943,-3.0954,-3.3186,-3.5047,-3.6569,-3.728,-3.7212,-3.6468,-3.5723,-3.3322,-2.9634,-2.6759,-2.5913,-2.6218,-2.3444,0.0,0.0,0.0,0.0,0.0,0.0,0.0,0.0,0.0,0.0,0.0,0.0,0.0,0.0,0.0,0.0,0.0,0.0,0.0,0.0,0.0,0.0,0.0,0.0,0.0,0.0,0.0,0.0,0.0,0.0,0.0,0.0,0.0,0.0,0.0,0.0,0.0,0.0,-2.1526,-2.2928,0.0,0.0,0.0,0.0,-2.5386,-2.6328,-2.7206,-2.8028,-2.8083,-2.8125,-2.8164,-2.8164,-2.8203,-2.8242,-2.8281,-2.8281,-2.8281,-2.8281,-2.8281,-2.8242,-2.8281,-2.8281,-2.8164,-2.7292,-2.7359,-2.7978,-2.6139,-2.5391,-2.5383,-2.5274,-2.5226,-2.5159,-2.4312,-2.4014,-2.3937,0.0,0.0,0.0,-2.2237,-2.2327,-2.2327,-2.2327,-2.2327,-2.2327,-2.2327,-2.3139,-2.4255,-2.5744,-2.8112,-3.0006,-3.106,-3.1055,-3.0514,-2.9364,-2.6691,-2.5033,-2.4831,-2.3646,-2.368,-2.5101,-2.8044,-3.0818,-3.3322,-3.6062,-3.7922,-3.8903,-3.9174,-3.8903,-3.8193,-3.7922,-3.6535,-3.4134,-3.0176,-2.7807,-2.6522,-2.4526,-2.3444,0.0,0.0,0.0,0.0,0.0,0.0,0.0,0.0,0.0,0.0,0.0,0.0,0.0,0.0,0.0,0.0,0.0,0.0,0.0,0.0,0.0,0.0,0.0,0.0,0.0,0.0,0.0,0.0,0.0,0.0,0.0,0.0,0.0,0.0,0.0,0.0,0.0,-2.4034,-2.5928,0.0,-2.5763,-2.628,-2.7062,-2.795,-2.8416,-2.9021,-2.988,-2.9961,-3.0234,-3.0781,-3.082,-3.082,-3.082,-3.082,-3.0547,-2.9961,-2.9961,-2.9687,-2.9141,-2.9726,-2.9687,-2.9101,-2.8788,-2.8826,-2.8941,-2.7074,-2.6288,-2.6188,-2.5552,-2.5303,-2.5264,-2.4966,-2.4889,-2.4812,0.0,-2.1735,0.0,-2.2237,-2.2327,-2.2327,-2.2327,-2.2327,-2.2327,-2.2327,-2.3816,-2.5541,-2.7266,-3.0378,-3.2814,-3.4066,-3.3694,-3.2679,-3.0954,-2.801,-2.5879,-2.4898,-2.4628,-2.5541,-2.7807,-3.1021,-3.366,-3.5656,-3.8125,-3.9614,-4.0087,-4.0087,-3.9817,-3.9343,-3.9106,-3.8464,-3.7313,-3.3829,-3.0886,-2.8383,-2.615,-2.5236,-2.5101,0.0,0.0,0.0,0.0,0.0,0.0,0.0,0.0,0.0,0.0,0.0,0.0,0.0,0.0,0.0,0.0,0.0,0.0,0.0,0.0,0.0,0.0,0.0,0.0,0.0,0.0,0.0,0.0,0.0,0.0,0.0,0.0,0.0,0.0,0.0,-2.6847,-2.661,-2.8582,-2.9567,-2.8453,-2.8675,-2.9279,-3.0229,-3.0367,-3.0818,-3.1719,-3.1758,-3.1992,-3.2578,-3.2617,-3.2617,-3.2617,-3.2344,-3.1914,-3.1328,-3.1055,-3.0586,-3.0078,-3.0625,-3.0586,-3.0,-2.9414,-2.9336,-2.9453,-2.7585,-2.6792,-2.6662,-2.5665,-2.5293,-2.533,-2.5322,-2.5303,-2.5303,0.0,-2.1974,-2.2327,-2.2327,-2.2327,-2.2327,-2.2327,-2.2327,-2.2327,-2.2327,-2.4289,-2.6556,-2.8789,-3.2341,-3.5453,-3.7753,-3.5115,-3.3051,-3.2374,-2.8044,-2.4932,-2.3613,-2.5642,-2.7875,-3.0243,-3.3829,-3.64,-3.7922,-3.9377,-4.0087,-4.0087,-4.0087,-4.0087,-4.0054,-3.9343,-3.9039,-3.8937,-3.7449,-3.5148,-3.2212,-2.8383,-2.774,-2.8619,0.0,0.0,0.0,0.0,0.0,0.0,0.0,0.0,0.0,0.0,0.0,0.0,0.0,0.0,0.0,0.0,0.0,0.0,0.0,0.0,0.0,0.0,0.0,0.0,0.0,0.0,0.0,0.0,0.0,0.0,0.0,0.0,0.0,-2.7611,-2.774,-2.8147,-2.9148,-3.0814,-3.1245,-2.9592,-3.0181,-3.1088,-3.2101,-3.2147,-3.2558,-3.3515,-3.3555,-3.3516,-3.3516,-3.3516,-3.3476,-3.3437,-3.2656,-3.2266,-3.2187,-3.1328,-3.0937,-3.0898,-3.0898,-3.0898,-3.0781,-2.9101,-2.8828,-2.9414,-2.7645,-2.6932,-2.6805,-2.577,-2.5357,-2.5398,-2.5321,-2.5303,-2.5303,-2.1521,-2.1974,-2.2327,-2.2327,-2.2327,-2.2327,-2.2327,-2.2327,-2.2327,-2.2327,-2.5169,-2.8078,-3.0345,-3.3423,-3.6231,-3.8497,-3.4472,-3.2171,-3.3051,-2.7402,-2.4797,-2.6522,-2.8247,-3.0717,-3.4032,-3.5656,-3.7178,-3.87,-3.9614,-4.0087,-4.0087,-4.0087,-4.0087,-4.0054,-3.9884,-3.9783,-3.9715,-3.8768,-3.7922,-3.6772,-3.2476,-3.0345,-2.9499,0.0,0.0,0.0,0.0,0.0,0.0,0.0,0.0,0.0,0.0,0.0,0.0,0.0,0.0,0.0,0.0,0.0,0.0,0.0,0.0,0.0,0.0,0.0,0.0,0.0,0.0,0.0,0.0,0.0,0.0,0.0,-2.8126,-2.8957,-2.854,-3.0739,-3.2481,-3.2776,-3.4853,-3.5828,-3.4751,-3.4886,-3.5214,-3.5593,-3.568,-3.6111,-3.7109,-3.6562,-3.6211,-3.6211,-3.5625,-3.4961,-3.4336,-3.4101,-3.3398,-3.2187,-3.1953,-3.1523,-3.0898,-3.0898,-3.0547,-2.9961,-3.0117,-2.9609,-2.8633,-2.8075,-2.7489,-2.6948,-2.6495,-2.5933,-2.5398,-2.5321,-2.5303,-2.5303,-2.1456,-2.1707,-2.1955,-2.226,-2.2327,-2.2327,-2.2327,-2.2327,-2.2327,-2.2327,-2.5509,-2.8552,-3.0514,-3.3119,-3.5351,-3.6975,-3.3491,-3.1021,-3.0615,-2.6962,-2.6116,-2.9093,-3.1292,-3.3728,-3.6502,-3.7922,-3.9208,-4.0358,-4.0798,-4.0832,-4.0561,-4.0561,-4.0392,-4.0087,-4.0087,-4.0087,-4.0054,-3.9614,-3.9445,-3.9208,-3.6265,-3.4404,-3.3051,-3.0142,-2.8958,-2.8653,-2.686,-2.6623,-2.686,-2.4831,0.0,0.0,0.0,0.0,0.0,0.0,0.0,0.0,0.0,0.0,0.0,0.0,0.0,0.0,0.0,0.0,0.0,0.0,0.0,0.0,0.0,0.0,0.0,0.0,-3.0167,-3.1497,-3.1905,-3.3552,-3.5007,-3.5699,-3.7084,-3.7815,-3.7276,-3.7282,-3.7367,-3.7441,-3.7534,-3.7882,-3.8467,-3.8085,-3.7695,-3.7305,-3.6797,-3.6133,-3.5234,-3.4883,-3.4023,-3.2695,-3.2344,-3.1758,-3.0898,-3.0898,-3.0625,0.0,-3.0273,-2.957,-2.8281,-2.8277,-2.7537,0.0,0.0,0.0,0.0,0.0,-2.5303,-2.5303,-2.1299,-2.1411,-2.1515,-2.2192,-2.2327,-2.2327,-2.2327,-2.2327,-2.2327,-2.2327,-2.5439,-2.8213,-2.9567,-3.1698,-3.3355,-3.4167,-3.207,-2.9567,-2.686,-2.6928,-2.8416,-3.1427,-3.4336,-3.6637,-3.8261,-4.029,-4.1644,-4.2286,-4.2286,-4.1982,-4.1339,-4.1339,-4.0967,-4.0324,-4.0324,-4.0324,-4.0324,-4.0257,-4.0189,-4.0155,-3.9411,-3.8633,-3.7516,-3.3998,-3.3017,-3.3254,-3.1123,-2.96,-2.8381,-2.7435,0.0,0.0,0.0,0.0,0.0,0.0,0.0,0.0,0.0,0.0,0.0,0.0,0.0,0.0,0.0,0.0,0.0,0.0,0.0,0.0,0.0,0.0,0.0,0.0,-3.2768,-3.4774,-3.6649,-3.6619,-3.6815,-3.8007,-3.8238,-3.8277,-3.8277,-3.8277,-3.8309,-3.8396,-3.849,-3.8592,-3.8705,0.0,0.0,0.0,0.0,-3.6914,-3.6133,-3.5273,-3.4414,-3.3555,-3.2812,-3.1992,-3.1055,-3.1055,-3.0937,-3.0703,-3.0039,-2.9219,-2.832,-2.8398,-2.7422,-2.5818,-2.5517,-2.5434,-2.5463,-2.5374,-2.5322,0.0,-2.0895,-2.1635,-2.2124,-2.2293,-2.2327,-2.2327,-2.2327,-2.2327,-2.2327,-2.2327,-2.5,-2.7029,-2.7334,-2.9397,-3.1258,-3.2577,-2.9567,-2.73,-2.6725,-2.8416,-3.0751,-3.3728,-3.6163,-3.843,-4.0527,-4.1542,-4.2151,-4.2286,-4.2286,-4.2219,-4.2083,-4.2083,-4.2016,-4.1847,-4.1847,-4.1847,-4.1813,-4.1238,-4.1001,-4.0933,-4.0155,-3.9073,-3.7686,-3.5723,-3.4675,-3.4066,-3.2442,-3.2442,-3.2814,-3.0311,-2.9634,-2.9431,-2.686,-2.5135,0.0,0.0,0.0,0.0,0.0,0.0,0.0,0.0,0.0,0.0,0.0,0.0,0.0,0.0,0.0,0.0,0.0,0.0,0.0,-3.3674,-3.6179,-3.8532,-4.0466,-4.1245,-4.1008,-3.9238,-3.9623,-4.0008,-4.0008,-4.0008,-4.0058,-4.0176,-4.0223,-4.0304,-4.05,-3.9852,0.0,-3.9414,-3.8047,-3.7226,-3.7031,-3.6172,-3.5312,-3.4453,0.0,0.0,-3.1953,-3.1953,-3.1172,-2.9883,-3.043,-2.9766,-2.8359,-2.9062,-2.8279,-2.6585,-2.5863,-2.5493,-2.5434,-2.5398,-2.5357,-2.5303,-2.0505,-2.1045,-2.1597,-2.2169,-2.2327,-2.2327,-2.2327,-2.2327,-2.2327,-2.2327,-2.4222,-2.5744,-2.6116,-2.7165,-2.8146,-2.889,-2.6556,-2.5981,-2.8247,-3.0142,-3.2848,-3.6569,-3.8565,-4.0426,-4.2286,-4.2658,-4.3064,-4.3436,-4.3436,-4.3234,-4.2861,-4.2861,-4.2658,-4.2286,-4.1914,-4.1948,-4.2219,-4.1102,-4.0865,-4.1136,-4.0392,-3.9648,-3.8903,-3.8159,-3.7381,-3.6603,-3.5487,-3.5081,-3.4709,-3.251,-3.1495,-3.0818,-2.8552,-2.6793,-2.5372,0.0,0.0,0.0,0.0,0.0,0.0,0.0,0.0,0.0,0.0,0.0,0.0,0.0,0.0,-2.9365,-3.0577,0.0,-3.4216,-3.6625,-3.8634,-4.0441,-4.1971,-4.271,-4.2624,-4.1354,-4.1546,-4.1623,-4.12,-4.1162,-4.1016,-4.064,-4.0655,-4.0721,-4.0852,-4.051,-4.0168,-3.9793,-3.9022,-3.8398,-3.7969,-3.7109,-3.6211,-3.5351,-3.4922,-3.4023,-3.2773,-3.2383,-3.1719,-3.0898,-3.0898,-3.0156,-2.8906,-2.8476,-2.7499,-2.6244,-2.5814,-2.5584,-2.5434,-2.5427,-2.5376,-2.5357,-2.0265,-2.0416,-2.0832,-2.196,-2.2237,-2.2327,-2.2327,-2.2327,-2.2327,-2.2327,-2.3444,-2.4458,-2.4932,-2.5101,-2.5169,-2.5169,-2.4492,-2.5845,-3.004,-3.1698,-3.4438,-3.8802,-4.0561,-4.1982,-4.3166,-4.3504,-4.3944,-4.4587,-4.4587,-4.4248,-4.3639,-4.3639,-4.3335,-4.2726,-4.2117,-4.2185,-4.2625,-4.1136,-4.0933,-4.1542,-4.0493,-4.0155,-4.0257,-3.9986,-3.9512,-3.8903,-3.8159,-3.6738,-3.5013,-3.3964,-3.2442,-3.0784,-2.9736,-2.8349,-2.6826,-2.5169,-2.4188,0.0,0.0,0.0,0.0,0.0,0.0,0.0,0.0,-2.8484,-2.9255,-3.0246,-3.1054,-3.2192,-3.4174,-3.5368,-3.6823,-3.9293,-4.0666,-4.1829,-4.2942,-4.3368,-4.3585,-4.3585,-4.3316,-4.2777,-4.1893,-4.1816,-4.1431,-4.0546,-4.0615,-4.0667,-4.0692,-4.0859,-4.0632,-3.994,-3.9871,-3.953,-3.8827,-3.7969,-3.7109,-3.625,-3.5547,-3.4648,-3.3633,-3.2969,-3.25,-3.2148,-3.1289,-3.0508,-2.9726,-2.7969,-2.6836,-2.6172,-2.582,-2.5732,-2.5753,-2.5523,-2.5434,-2.5398,-2.0227,-2.0304,-2.0605,-2.1521,-2.2032,-2.2327,-2.2327,-2.2327,-2.2327,-2.2327,-2.3004,-2.3308,-2.2733,-2.3241,-2.3646,-2.3646,-2.527,-2.7672,-3.0852,-3.2476,-3.4979,-3.8836,-4.1035,-4.2252,-4.2422,-4.3741,-4.4485,-4.4587,-4.4587,-4.4519,-4.4451,-4.4451,-4.4384,-4.4316,-4.4248,-4.4248,-4.4215,-4.2692,-4.2489,-4.2997,-4.0899,-4.0493,-4.0933,-3.9614,-3.9073,-3.8903,-3.8159,-3.6062,-3.3728,-3.4201,-3.2544,-3.0311,-3.0784,-2.9939,-2.8281,-2.6116,-2.4932,-2.4279,-2.3929,-2.4757,-2.6188,-2.8054,-2.8695,-2.9538,0.0,-3.3073,-3.3587,-3.5165,-3.6119,-3.6743,-3.7037,-3.8543,-4.0067,-4.1157,-4.2535,-4.3776,-4.4696,-4.5132,-4.5316,-4.5316,-4.4008,-4.2777,-4.1893,-4.1816,-4.1431,-4.0546,-4.05,-4.0588,-4.0692,-4.0726,-4.0723,-4.0673,-4.0057,-3.9696,-3.9575,-3.8825,-3.8008,-3.7148,-3.707,-3.6133,-3.4531,-3.4453,-3.3594,-3.2148,-3.1289,-3.0859,-3.0625,-2.8867,-2.8086,-2.7851,-2.6289,-2.6172,-2.6716,-2.5876,-2.5493,-2.5406,-1.9909,-2.0158,-2.04,-2.0765,-2.1244,-2.1615,-2.1853,-2.1882,-2.2003,-2.2237,-2.2564,-2.2632,-2.2327,-2.2598,-2.2767,-2.2767,-2.3985,-2.642,-3.0311,-3.1935,-3.5013,-4.0054,-4.1576,-4.2726,-4.3606,-4.4248,-4.4587,-4.4587,-4.4587,-4.4587,-4.4587,-4.4587,-4.4587,-4.4553,-4.4113,-4.4147,-4.4485,-4.2929,-4.2489,-4.2625,-4.1271,-4.0392,-3.9817,-3.8768,-3.728,-3.569,-3.5385,-3.4201,0.0,-3.163,-3.0751,-3.0074,-2.9939,-2.9161,-2.7943,-2.615,-2.5372,-2.5224,-2.5499,-2.7031,-2.89,-3.0088,-3.1825,-3.3587,-3.4945,-3.5605,-3.6266,-3.7441,-3.8322,-3.9166,-4.012,-4.0909,-4.1853,0.0,-4.3832,-4.4524,-4.5285,-4.5071,-4.4662,-4.4201,-4.3547,-4.297,-4.2585,-4.2085,-4.1431,-4.0546,-4.0508,-4.0515,-4.0588,-4.0642,-4.0726,-4.0752,-4.0478,-4.0331,-4.0331,-3.9614,-3.9049,-3.8698,-3.7733,-3.6914,-3.6172,-3.5156,-3.3789,-3.2148,-3.1289,-3.0625,-3.0078,-2.9375,-2.875,-2.8242,-2.75,-2.7422,-2.7656,-2.6706,-2.6637,-2.6952,-1.969,-1.9945,-2.0124,-2.0124,-2.0431,-2.0829,-2.1337,-2.1521,-2.1735,-2.2061,-2.2209,-2.2327,-2.2327,-2.2327,-2.2327,-2.2327,-2.297,-2.5033,-2.8924,-3.0751,-3.4066,-3.9445,-4.0764,-4.2083,-4.3606,-4.4045,-4.4248,-4.4248,-4.4248,-4.4248,-4.4248,-4.4248,-4.4248,-4.4248,-4.391,-4.4045,-4.4485,-4.2929,-4.2422,-4.2489,-4.1136,-3.9952,-3.8836,-3.728,-3.5047,-3.278,-3.278,-3.1765,-3.0243,-2.8822,-2.845,-2.8518,-2.8383,-2.7977,-2.73,-2.6218,-2.6041,-2.6389,-2.719,-2.9155,-3.1289,-3.2454,-3.4871,-3.7074,-3.7514,-3.8248,-3.9056,-3.9863,-4.0487,-4.1185,-4.2139,-4.2286,-4.2701,-4.3764,-4.4116,-4.4473,-4.5225,-4.4746,-4.4085,-4.3508,-4.2816,-4.247,-4.2739,-4.2162,-4.1431,-4.0546,-4.0508,-4.0585,-4.0854,-4.0717,-4.0746,-4.1016,-4.0858,-4.077,-4.077,-4.0247,-3.9897,-3.9663,-3.8266,-3.7497,-3.7184,-3.5468,-3.3906,-3.25,-3.1875,-3.1094,-3.0312,-3.0078,-2.9726,-2.9336,-2.8867,-2.8828,-2.8945,-2.8235,-2.8071,-2.8101,-1.969,-1.9726,-1.9726,-1.9726,-1.9726,-2.0015,-2.0894,-2.1337,-2.1612,-2.1612,-2.2032,-2.2327,-2.2327,-2.2327,-2.2327,-2.2327,-2.297,-2.4357,-2.6657,-2.8924,-3.1867,-3.5622,-3.7922,-3.9783,-4.1271,-4.2726,-4.347,-4.347,-4.347,-4.347,-4.347,-4.347,-4.347,-4.347,-4.4215,-4.4553,-4.4485,-4.2929,-4.2726,-4.3132,-4.0223,-3.9039,-3.8599,-3.4945,-3.2577,-3.1258,-3.1258,-2.8924,-2.5913,-2.6556,-2.5812,-2.4929,-2.6319,-2.6759,-2.6725,-2.6657,-2.7238,-2.8039,-2.8898,-3.0767,-3.312,-3.5569,-3.7404,-3.9056,-4.0598,-4.1589,-4.2396,-4.3167,-4.3351,-4.3167,-4.2433,-4.2286,-4.2323,-4.2356,-4.2922,-4.3643,-4.4537,-4.4437,-4.4278,-4.4278,-4.2085,-4.0893,0.0,-4.1816,-4.1431,-4.0546,-4.0508,-4.0854,-4.1739,-4.0985,-4.0908,-4.1739,-4.1081,-4.0703,-4.0703,-4.077,-4.0392,-3.9607,-3.8761,-3.7929,-3.7031,-3.5425,-3.4219,-3.3359,-3.3359,-3.2851,-3.207,-3.1211,-3.1328,-3.1914,-3.0234,-3.0078,-3.082,-3.0781,-2.9683,-2.8181,-1.969,-1.969,-1.969,-1.969,-1.969,-1.9797,-2.0085,-2.0731,-2.1306,-2.1552,-2.2003,0.0,0.0,0.0,0.0,0.0,-2.253,-2.3613,-2.5845,-2.7604,-3.004,-3.3254,-3.6062,-3.8227,-3.9715,-4.1204,-4.2185,-4.2658,-4.2658,-4.2658,-4.2658,-4.2658,-4.2658,-4.2692,-4.2929,-4.3064,-4.3031,-4.2523,-4.188,-4.1068,-3.9073,-3.7347,-3.5656,-3.2442,-2.9973,-2.8078,0.0,-2.5913,-2.4763,-2.4019,-2.3782,-2.3849,-2.4357,-2.4492,-2.4757,-2.599,-2.7299,-2.8886,-3.1208,-3.3617,-3.5964,-3.8151,-3.99,-4.1368,-4.2433,-4.291,-4.2873,-4.2066,-4.1479,-4.0708,-3.935,-3.9093,-3.9516,-4.0852,-4.167,-4.2822,-4.4683,-4.4374,-4.3618,-4.2761,-4.1893,0.0,0.0,0.0,0.0,-4.0469,-4.1046,-4.1508,-4.1777,-4.2085,-4.2354,-4.2662,-4.1879,-4.1407,-4.1407,-4.0963,-4.0615,-4.0305,-3.8992,-3.762,-3.6251,-3.5135,-3.4485,-3.4219,-3.3633,-3.3242,-3.2969,-3.2695,-3.2734,-3.293,-3.2344,-3.2305,-3.2578,-3.2578,-3.2187,-3.1404,0.0,-1.969,-1.969,-1.969,-1.969,0.0,0.0,0.0,0.0,0.0,0.0,0.0,0.0,0.0,0.0,0.0,0.0,-2.2902,-2.4323,-2.5812,-2.7706,-3.0176,-3.2679,-3.4675,-3.6163,-3.7381,-3.8261,-3.87,-3.8971,-3.9106,-3.914,-3.9377,-3.9512,-3.9546,-4.0087,-4.0324,-4.0324,-4.002,-3.9208,-3.7956,-3.6231,-3.4303,-3.2239,-2.9533,-2.7435,0.0,-2.4222,-2.3714,-2.3579,-2.2632,-2.2632,-2.3038,-2.3308,-2.412,-2.5263,-2.6653,-2.8669,-3.1026,-3.3795,-3.6209,-3.8437,-4.0308,-4.1735,-4.2873,-4.3387,-4.3057,-4.2286,-4.0928,-3.979,-3.8542,-3.689,-3.6376,-3.6785,-3.8628,-3.9462,-4.0787,-4.3478,-4.3574,-4.3156,-4.2583,-4.2112,-4.1508,0.0,0.0,0.0,-4.0931,-4.1777,-4.2393,-4.2701,-4.2662,-4.2893,-4.3508,-4.2085,-4.147,-4.1816,-4.1012,-4.0333,-3.9762,-3.8734,-3.7396,-3.5797,-3.5247,-3.4885,-3.4643,-3.4409,-3.4139,-3.3867,-3.3867,-3.4062,-3.4297,-3.3984,-3.3867,-3.3906,-3.4219,-3.3945,-3.3164,0.0,0.0,-1.969,0.0,0.0,0.0,0.0,0.0,0.0,0.0,0.0,0.0,0.0,0.0,0.0,0.0,0.0,0.0,-2.2327,-2.3646,-2.5067,-2.6454,-2.8044,-2.9533,-3.0987,-3.1765,-3.2205,-3.2205,-3.2949,-3.3288,-3.3322,-3.3998,-3.4336,-3.4404,-3.5859,-3.6502,-3.6434,-3.5723,-3.4945,-3.4066,-3.1901,-3.0142,-2.8619,-2.6353,-2.5033,-2.4286,-2.2835,-2.2327,-2.2327,-2.2361,-2.2429,-2.2598,-2.3308,-2.5507,-2.798,-2.862,-3.1175,-3.43,-3.6414,-3.8474,-4.0377,-4.1956,-4.291,-4.3424,-4.3387,-4.2103,-4.0671,-3.9827,-3.8322,-3.667,-3.5055,-3.4174,-3.4247,-3.5936,-3.6589,-3.8003,-4.1194,-4.2281,-4.298,-4.3721,-4.2698,-4.2239,0.0,0.0,0.0,-4.1931,0.0,-4.3508,-4.4239,-4.2816,-4.2739,-4.4316,-4.197,-4.1085,-4.1931,-4.1008,-3.975,-3.8164,-3.8125,-3.7269,-3.5755,-3.5716,-3.5293,-3.4686,-3.5545,-3.5452,-3.4765,-3.4765,-3.5234,-3.5937,-3.5156,-3.4844,-3.4922,-3.582,-3.5078,-3.3594,0.0,0.0,0.0,0.0,0.0,0.0,0.0,0.0,0.0,0.0,0.0,0.0,0.0,0.0,0.0,0.0,0.0,0.0,-2.2327,-2.3173,-2.3849,-2.4222,-2.6184,-2.7706,-2.8653,-2.9973,-3.092,-3.1461,-3.1664,-3.1765,-3.1765,-3.1935,-3.2036,-3.2036,-3.2442,-3.2611,-3.2611,-3.2408,-3.1901,-3.1089,-2.9364,-2.8112,-2.7029,-2.4797,-2.3849,-2.3545,-2.2632,-2.2327,-2.2395,-2.2936,-2.3849,-2.4797,-2.5,-2.6725,-2.8999,-3.0523,-3.3108,-3.5936,-3.7934,-4.0047,-4.1919,-4.2947,-4.291,-4.2433,-4.1846,-4.001,-3.7991,-3.656,-3.4504,-3.2632,-3.1604,-3.1751,-3.2742,-3.4981,-3.694,-3.9246,-4.2098,-4.3412,-4.4028,-4.3814,-4.3694,-4.3508,-4.3124,-4.3431,0.0,0.0,-4.3855,-4.4085,-4.4278,-4.4509,-4.4816,-4.524,-4.4008,-4.3431,-4.3662,-4.22,-4.0654,-3.9003,-3.8348,-3.7513,-3.6571,-3.5912,-3.5546,-3.5443,-3.5638,-3.568,-3.5606,-3.5606,-3.5735,-3.6055,-3.6484,-3.6641,-3.6758,-3.7617,-3.7226,-3.6328,0.0,0.0,0.0,0.0,0.0,0.0,0.0,0.0,0.0,0.0,0.0,0.0,0.0,0.0,0.0,0.0,0.0,0.0,0.0,-2.2699,-2.2936,-2.2936,-2.412,-2.4966,-2.5406,-2.6251,-2.6725,-2.6793,-2.7469,-2.7604,-2.73,-2.7943,-2.8247,-2.8247,-2.8586,-2.8755,-2.8755,-2.8755,-2.8315,0.0,0.0,-2.5439,-2.4628,-2.3376,-2.2936,-2.2868,-2.2462,-2.2733,-2.3376,-2.412,-2.5372,-2.6759,-2.774,-2.96,-3.1749,-3.3348,-3.5633,-3.7964,-3.9589,-4.1431,-4.2947,-4.3387,-4.2616,-4.1552,-4.0781,-3.8138,-3.5422,-3.377,-3.1788,-3.0099,-2.9292,-2.9512,-3.0613,-3.3036,-3.4871,-3.7198,-4.0533,-4.2425,-4.368,-4.409,-4.4556,-4.4701,-4.4239,-4.4624,-4.4855,0.0,-4.4855,-4.4855,-4.4855,-4.497,-4.5009,-4.5009,-4.4201,-4.3585,-4.3201,-4.2277,-4.0969,-3.9277,-3.8815,-3.7949,-3.6805,-3.6303,-3.5919,-3.5655,0.0,-3.5716,-3.5827,-3.6216,-3.6446,-3.6594,-3.7454,-3.7809,-3.7969,-3.8867,-3.8633,-3.793,0.0,0.0,0.0,0.0,0.0,0.0,0.0,0.0,0.0,0.0,-2.1054,-2.146,-2.1521,-2.1945,0.0,0.0,0.0,0.0,0.0,0.0,-2.2327,-2.2327,-2.2327,-2.2327,-2.2327,-2.2327,-2.1989,-2.1373,-2.2632,-2.2936,-2.2327,-2.3613,-2.4218,-2.4222,-2.4898,-2.5169,-2.5169,-2.5169,-2.4797,-2.412,-2.3511,-2.2868,-2.2327,0.0,-2.2327,-2.2327,-2.2327,-2.3105,-2.4357,-2.5507,-2.6962,-2.8653,-3.0818,-3.3017,-3.5033,-3.6371,-3.8146,-3.9988,-4.113,-4.245,-4.3461,-4.3351,-4.2066,-4.0561,-3.9643,-3.6193,-3.2779,-3.1347,-2.9806,-2.8521,-2.7897,-2.797,-2.8851,-3.1164,-3.2339,-3.4321,-3.8285,-4.069,-4.2649,-4.4372,-4.5142,-4.555,-4.5586,-4.5586,-4.5586,-4.5586,-4.5586,-4.5586,-4.5586,-4.4893,-4.447,-4.447,-4.3662,-4.2854,-4.197,-4.1854,-4.1008,-3.9469,-3.9354,-3.8507,-3.7046,-3.693,-3.6511,-3.5908,0.0,0.0,-3.6091,-3.6829,-3.7235,-3.7414,-3.8237,-3.8654,-3.8866,-3.9726,-3.9531,-3.8867,0.0,0.0,0.0,0.0,0.0,0.0,0.0,0.0,0.0,-2.1302,-2.0901,-2.0667,0.0,0.0,0.0,0.0,0.0,0.0,0.0,0.0,0.0,-2.2327,-2.2327,-2.2327,-2.2327,-2.2327,-2.226,-2.2124,-2.2361,-2.2429,-2.2327,-2.2564,-2.2699,-2.2699,-2.2835,-2.2868,-2.2868,-2.2868,-2.2801,-2.2665,-2.2564,-2.2429,-2.2327,-2.2327,0.0,0.0,-2.2327,-2.2462,-2.3173,-2.6353,-2.8856,-3.0886,-3.251,-3.4573,-3.6683,-3.8133,-3.9475,-4.0683,-4.1511,-4.2587,-4.3314,-4.2653,-4.0818,-3.8726,-3.7257,-3.3256,-2.9745,-2.9475,-2.8154,-2.72,-2.7714,-2.8888,-3.0356,-3.2118,-3.3597,-3.5789,-3.9203,-4.0837,-4.2425,-4.4346,-4.4943,-4.5283,-4.5568,-4.5586,0.0,0.0,0.0,-4.5586,-4.5586,-4.547,-4.5355,-4.5355,-4.4547,-4.3701,-4.2893,-4.2162,-4.1277,-4.0277,-3.9623,-3.9123,-3.8815,-3.8084,-3.7714,-3.7588,-3.7588,0.0,-3.7704,-3.7859,-3.7976,-3.8189,-3.9117,-3.9497,-3.9624,-4.0623,-4.043,-3.9687,0.0,0.0,0.0,0.0,0.0,0.0,-2.0617,-2.0737,-2.1216,-2.2503,-2.2284,-2.1926,-2.169,-2.1439,-2.1213,0.0,0.0,0.0,0.0,0.0,0.0,-2.1945,-2.1945,-2.2032,-2.2265,-2.2327,-2.2124,-2.1718,0.0,-2.2124,-2.1718,-2.2124,-2.2327,-2.2327,-2.2327,-2.2327,-2.2327,-2.2327,-2.2327,-2.2327,-2.2327,-2.2327,-2.2327,-2.2327,0.0,0.0,-2.2327,-2.2564,-2.3274,-2.5812,-2.7909,-3.004,-3.3457,-3.5859,-3.7584,-3.8667,-3.9801,-4.0861,-4.1598,-4.2657,-4.3314,-4.2506,-4.0157,-3.7551,-3.5459,-3.1568,-2.8154,-2.731,-2.6502,-2.6098,-2.6465,-2.786,-2.9475,-3.1091,-3.2008,-3.3954,-3.8065,-3.9258,-4.0718,-4.3352,-4.4497,-4.518,-4.5303,-4.5514,-4.5586,0.0,0.0,-4.5586,-4.5586,-4.5163,-4.4932,-4.4932,-4.4124,-4.3278,-4.2431,-4.2008,-4.1354,-4.0508,-4.0085,-3.97,-3.9277,-3.8854,-3.843,-3.8007,-3.8007,0.0,-3.8132,-3.8981,-3.9417,-3.9665,-4.1012,-4.1303,-4.1006,-4.1576,-4.1238,-4.0498,0.0,0.0,0.0,0.0,0.0,0.0,-2.1306,-2.1605,-2.2203,-2.364,-2.358,-2.3167,-2.2622,-2.1815,-2.1114,0.0,0.0,0.0,0.0,0.0,0.0,0.0,0.0,-2.1764,-2.2152,0.0,0.0,-2.1414,-2.2023,0.0,0.0,0.0,0.0,0.0,-2.2327,-2.2327,-2.2327,-2.2327,-2.2327,0.0,0.0,-2.2327,0.0,0.0,0.0,0.0,0.0,-2.2665,-2.3376,-2.4864,-2.6251,-2.8076,-3.2502,-3.5318,-3.7077,-3.7821,-3.9133,-4.0447,-4.135,-4.2436,-4.3137,-4.2252,-3.946,-3.634,-3.4064,-3.0283,-2.6906,-2.5678,-2.5421,-2.5458,-2.5642,-2.6833,-2.8338,-2.9953,-3.0356,-3.1971,-3.634,-3.7646,-3.9239,-4.2201,-4.3931,-4.4919,-4.4988,-4.5283,0.0,0.0,0.0,0.0,-4.5586,-4.4778,-4.4316,-4.4316,-4.3355,-4.2508,-4.1816,-4.1623,-4.1162,-4.0508,-4.0508,-4.0162,-3.9546,-3.9738,-3.9469,-3.8815,-3.9008,0.0,0.0,-4.0508,-4.1099,-4.1339,-4.2692,-4.2737,-4.2071,-4.2208,-4.1696,-4.0968,0.0,0.0,0.0,0.0,0.0,0.0,-2.0677,-2.1306,-2.2383,-2.4253,-2.349,-2.2963,-2.3413,-2.2714,-2.1547,0.0,0.0,0.0,0.0,0.0,0.0,0.0,0.0,0.0,0.0,0.0,0.0,-2.2226,-2.2293,0.0,0.0,0.0,0.0,0.0,0.0,-2.2327,-2.2327,-2.2327,0.0,0.0,0.0,0.0,0.0,0.0,0.0,0.0,0.0,-2.2361,-2.2632,-2.4086,-2.5135,-2.6116,-2.7941,-3.0954,-3.3964,-3.4709,-3.68,-3.9172,-4.0453,-4.1805,-4.2521,-4.1489,-3.8212,-3.477,-3.3109,-2.9035,-2.5568,-2.5421,-2.5421,-2.5642,-2.6355,-2.72,-2.8338,-2.9953,-3.0797,-3.2192,-3.4871,-3.7213,-3.9416,-4.1464,-4.3154,-4.4233,-4.4624,-4.4943,0.0,0.0,0.0,0.0,-4.5586,-4.4778,-4.4316,-4.4316,-4.2739,-4.1893,-4.1816,-4.1008,-4.0585,-4.0508,-4.0508,-4.0469,-4.0431,-4.12,-4.1546,-4.1508,-4.2277,0.0,0.0,-4.2816,-4.2871,-4.2903,-4.3104,-4.2717,-4.2017,-4.211,-4.1568,-4.0843,0.0,0.0,0.0,0.0,0.0,0.0,-2.1126,-2.1515,-2.2413,-2.4343,-2.4507,-2.4388,-2.4238,-2.3541,-2.2164,-1.9906,-2.0015,0.0,0.0,0.0,0.0,0.0,0.0,0.0,0.0,0.0,-2.2327,-2.2327,-2.2327,0.0,0.0,0.0,0.0,0.0,0.0,0.0,-2.2327,-2.2327,0.0,0.0,0.0,0.0,0.0,0.0,0.0,0.0,0.0,0.0,-2.2395,-2.297,-2.3376,-2.3714,-2.4323,-2.6116,-2.8721,-3.2171,-3.4837,-3.7219,-3.9434,-4.1336,-4.2338,-4.076,-3.8065,-3.4981,-3.1861,-2.8558,-2.5841,-2.4887,-2.4667,-2.4777,-2.5107,-2.6209,-2.7457,-2.8558,-2.8998,-3.0393,-3.3807,-3.4724,-3.6397,-4.0111,-4.1757,-4.3005,0.0,0.0,0.0,0.0,0.0,0.0,-4.5586,-4.4778,-4.4085,-4.3585,-4.2431,-4.1546,-4.1008,-4.0662,-4.0508,-4.0508,-4.0508,-4.0777,-4.1277,-4.1662,-4.2085,-4.2585,-4.2931,0.0,0.0,-4.3624,-4.3816,-4.3871,-4.4453,-4.3813,-4.2686,-4.2741,-4.1906,-4.0762,0.0,0.0,0.0,0.0,0.0,-2.0079,-2.1216,-2.1575,-2.2263,-2.3849,-2.4448,-2.4627,-2.4358,-2.337,-2.2084,-2.0408,-1.9899,0.0,0.0,0.0,0.0,0.0,0.0,0.0,0.0,0.0,-2.2327,-2.2327,-2.2327,-2.2327,0.0,0.0,0.0,0.0,0.0,0.0,0.0,0.0,0.0,0.0,0.0,0.0,0.0,0.0,0.0,0.0,0.0,0.0,0.0,0.0,0.0,-2.2327,-2.2327,-2.3004,-2.4695,-2.9025,-3.2154,-3.4718,-3.733,-3.9558,-4.0841,-3.9355,-3.6967,-3.4109,-3.0626,-2.7787,-2.5585,-2.4447,-2.419,-2.4263,-2.452,-2.5695,-2.6869,-2.7677,-2.8191,-2.9586,-3.2669,-3.322,-3.4688,-3.8395,0.0,-4.1653,0.0,-4.3914,0.0,0.0,0.0,0.0,0.0,-4.4327,-4.3555,-4.3124,-4.2239,-4.1393,-4.0508,-4.0508,-4.0508,-4.0508,-4.0508,-4.0816,-4.1431,-4.197,-4.2508,-4.3124,0.0,0.0,0.0,-4.4432,-4.4662,-4.4701,-4.5086,-4.447,-4.341,-4.2932,-4.2047,-4.0991,0.0,0.0,0.0,0.0,0.0,-1.9929,-2.0617,-2.1276,-2.1934,-2.2622,-2.2753,-2.2951,-2.355,-2.1904,-2.1006,-2.1605,-2.0468,0.0,0.0,0.0,0.0,0.0,0.0,0.0,-2.0991,-2.1857,-2.2327,-2.2327,-2.2327,-2.2327,-2.2327,-2.2327,-2.2327,-2.2327,0.0,0.0,0.0,0.0,0.0,0.0,0.0,0.0,-2.2327,0.0,0.0,0.0,0.0,0.0,0.0,0.0,0.0,0.0,0.0,-2.2327,-2.2767,-2.5033,-2.8315,-3.1686,-3.3783,-3.5983,-3.751,-3.6896,-3.433,-3.1433,-2.9454,-2.6539,-2.4226,-2.419,-2.419,-2.4447,-2.5237,-2.6062,-2.6869,-2.7677,-2.9145,-3.0467,-3.1311,-3.3476,-3.5284,0.0,0.0,-4.023,-4.1038,0.0,0.0,0.0,0.0,0.0,0.0,-4.3263,-4.2718,-4.3085,-4.2239,-4.1393,-4.0508,-4.0508,-4.0508,-4.0508,-4.0508,-4.0508,-4.0546,-4.2316,-4.3085,0.0,0.0,0.0,0.0,-4.5586,-4.5586,-4.5509,-4.4662,-4.4316,-4.4085,-4.2431,-4.1816,-4.1694,0.0,0.0,0.0,0.0,0.0,0.0,-1.9989,-2.0198,-2.0557,-2.1246,-2.1724,-2.2263,-2.2892,-2.2024,-2.1485,-2.1665,-2.0468,0.0,0.0,0.0,0.0,0.0,0.0,-2.0698,-2.0991,-2.1554,-2.1906,-2.2085,-2.237,-2.2758,-2.3253,-2.2725,-2.2709,-2.3038,-2.253,-2.2327,0.0,0.0,0.0,0.0,0.0,-2.2003,-2.2327,0.0,0.0,0.0,0.0,0.0,0.0,0.0,0.0,0.0,0.0,0.0,0.0,-2.3139,-2.5609,-2.8558,-3.0664,-3.2474,-3.356,-3.2656,-3.1273,-2.9518,-2.7194,-2.5646,-2.4526,-2.3967,-2.4036,-2.4263,-2.452,-2.5217,-2.6209,-2.7567,-2.8705,-3.0063,-3.1971,-3.3366,0.0,-3.7661,-4.0561,-4.247,0.0,0.0,0.0,0.0,0.0,0.0,0.0,-4.3604,-4.2921,-4.2699,-4.1541,-4.0777,-4.0508,-4.1085,-4.1393,-4.1393,-4.1393,-4.17,-4.2277,-4.2239,0.0,0.0,0.0,0.0,0.0,-4.5586,-4.524,-4.4739,-4.5047,-4.4124,-4.2585,-4.2662,-4.1931,-4.087,0.0,0.0,0.0,0.0,0.0,0.0,-1.969,-1.969,-1.9839,-2.0258,-2.0677,-2.1276,-2.2203,-2.1485,-2.1156,-2.1665,-2.0468,0.0,0.0,0.0,0.0,0.0,-2.0227,-2.0434,-2.0731,-2.115,-2.1698,-2.2394,-2.2633,-2.3091,-2.3772,-2.3284,-2.303,-2.2855,-2.2394,-2.2062,0.0,0.0,0.0,0.0,-2.146,-2.1645,-2.2032,0.0,0.0,0.0,0.0,0.0,0.0,0.0,0.0,0.0,0.0,0.0,0.0,0.0,-2.3613,-2.5501,-2.7663,-2.9281,-3.0214,-2.9479,-2.8688,-2.7558,-2.5612,-2.4694,-2.4131,-2.3629,-2.3774,-2.4016,-2.4016,-2.501,-2.6172,-2.7163,-2.8521,-3.0099,-3.1898,0.0,0.0,-3.8762,0.0,0.0,0.0,0.0,0.0,0.0,0.0,0.0,0.0,-4.3202,-4.2498,-4.2167,-4.1265,-4.0696,-4.0508,-4.1354,-4.1816,-4.1816,-4.2124,-4.2393,-4.2624,-4.2701,0.0,0.0,0.0,0.0,0.0,-4.5586,-4.5086,-4.4355,-4.4893,-4.3932,-4.2316,-4.2547,-4.1931,-4.0931,0.0,0.0,0.0,0.0,0.0,0.0,-1.969,-1.969,-1.969,-1.969,-1.969,-2.0168,-2.1425,-2.0438,-2.0198,-2.1455,-2.0408,0.0,0.0,0.0,0.0,-1.969,-2.0054,-2.0261,-2.0261,-2.0731,-2.1595,-2.2921,-2.2984,-2.3364,-2.4024,-2.4024,-2.3338,-2.2173,-2.2075,-2.1661,-2.0991,-2.0959,-2.0959,-2.0991,-2.0991,-2.1244,0.0,0.0,0.0,0.0,0.0,0.0,0.0,0.0,0.0,0.0,0.0,0.0,0.0,0.0,0.0,0.0,0.0,-2.6387,-2.7301,-2.704,-2.6381,-2.5571,-2.4513,-2.3696,0.0,-2.3165,-2.3432,-2.3689,-2.3855,-2.5324,-2.6591,-2.6906,-2.8815,-3.0577,-3.1458,-3.3697,0.0,0.0,-4.0744,0.0,0.0,0.0,0.0,0.0,0.0,0.0,0.0,-4.231,-4.163,-4.1585,-4.1373,-4.0998,-4.0492,-4.1338,-4.18,-4.1816,-4.2624,-4.2624,-4.1931,-4.3431,0.0,0.0,0.0,0.0,0.0,-4.5509,-4.5009,-4.4316,-4.4355,-4.3816,-4.2931,-4.2162,-4.1816,-4.1585,0.0,0.0,0.0,0.0,0.0,0.0,0.0,0.0,0.0,0.0,-1.969,-1.9809,-2.0139,-1.9869,-1.9809,0.0,0.0,0.0,0.0,0.0,0.0,-1.969,-1.9767,-1.9839,-1.9839,-2.0261,-2.0976,-2.2017,-2.2817,-2.3849,-2.503,-2.4989,-2.4484,-2.3574,-2.3028,-2.2107,-2.0959,-2.0632,-2.0698,-2.0991,-2.0991,-2.1244,0.0,0.0,0.0,0.0,-2.2327,-2.2327,0.0,0.0,0.0,0.0,0.0,0.0,0.0,0.0,-2.2327,-2.2429,-2.2936,0.0,-2.3545,-2.3493,-2.3351,-2.3113,0.0,-2.2816,-2.2822,-2.2822,-2.3093,-2.3789,-2.5239,-2.5403,-2.6409,-2.9745,-3.076,-3.1604,-3.3036,0.0,0.0,-4.0598,0.0,0.0,0.0,0.0,0.0,0.0,0.0,0.0,0.0,-4.2643,-4.1989,-4.1622,-4.0894,-4.041,-4.0196,-4.1017,-4.1568,-4.1816,-4.2008,-4.2354,-4.2777,-4.2508,0.0,0.0,0.0,0.0,-4.4624,-4.4624,-4.447,-4.4355,-4.5009,-4.397,-4.2162,-4.2624,-4.1931,-4.0777,0.0,0.0,0.0,0.0,0.0,0.0,0.0,0.0,0.0,0.0,-1.969,-1.969,-1.969,-1.969,-1.969,0.0,0.0,0.0,0.0,-1.969,-1.969,-1.969,-1.969,-1.969,-1.969,-2.0212,-2.1031,-2.2143,-2.3322,-2.445,-2.5499,-2.5454,-2.4744,-2.3406,-2.2102,-2.1078,-2.0364,-2.0124,-2.0158,-2.0398,-2.0398,0.0,0.0,0.0,0.0,0.0,-2.2061,-2.2123,0.0,-2.2327,-2.2327,-2.2327,0.0,0.0,0.0,0.0,-2.2327,-2.2327,-2.2327,-2.2564,-2.2801,-2.2801,-2.2801,-2.2801,-2.2801,-2.2664,-2.2527,-2.2527,-2.2781,-2.3446,-2.5028,-2.5373,-2.6631,-3.0235,-3.1164,0.0,0.0,0.0,-3.9423,-4.1442,0.0,0.0,0.0,0.0,0.0,0.0,0.0,0.0,0.0,-4.2029,-4.1245,-4.1354,-4.0207,-3.9645,-3.9861,-4.0718,-4.1199,-4.138,-4.2316,-4.2583,-4.2276,-4.2727,-4.2777,0.0,0.0,0.0,-4.4316,-4.4316,-4.4316,-4.4355,-4.4816,-4.3701,-4.1854,-4.2316,-4.1662,-4.0508,0.0,0.0,0.0,0.0,0.0,0.0,0.0,0.0,0.0,0.0,0.0,0.0,0.0,0.0,0.0,0.0,0.0,0.0,0.0,-1.969,-1.969,-1.969,-1.969,-1.972,-1.9839,-2.0318,-2.1246,-2.2724,-2.3999,-2.5016,-2.5764,-2.5974,-2.4896,-2.2742,-2.0827,-1.9869,-1.969,-1.969,-1.969,-1.9726,-1.9797,0.0,0.0,0.0,0.0,0.0,0.0,0.0,0.0,-2.2327,-2.2327,-2.2327,-2.2327,0.0,0.0,0.0,0.0,0.0,-2.2462,-2.3004,-2.3511,-2.3274,-2.341,-2.3545,-2.341,-2.3004,-2.2632,-2.2632,-2.2815,-2.3371,-2.4721,-2.5839,-2.7489,-3.0308,0.0,0.0,-3.7661,-3.8689,-3.9863,0.0,0.0,0.0,0.0,0.0,0.0,0.0,0.0,0.0,0.0,-4.1442,-4.0524,-4.1075,-3.968,-3.909,-3.9476,-4.0226,-4.0688,-4.0887,-4.2509,-4.2637,-4.1551,-4.3099,-4.309,0.0,0.0,0.0,-4.4124,-4.4124,-4.4201,-4.4316,-4.4316,-4.3278,-4.1816,-4.1816,-4.1239,-4.0508,0.0,0.0,0.0,0.0,0.0,0.0,0.0,0.0,0.0,0.0,0.0,0.0,0.0,0.0,0.0,0.0,0.0,0.0,0.0,-1.969,-1.969,-1.969,-1.969,-1.9959,-2.0528,-2.0079,-2.0767,-2.2724,-2.3999,-2.5255,-2.6452,-2.7619,-2.6482,-2.34,-2.1994,-2.0737,-1.969,-1.969,-1.969,-1.9726,-2.0054,0.0,0.0,0.0,0.0,0.0,0.0,0.0,0.0,-2.2327,-2.2327,-2.2327,-2.2327,0.0,0.0,0.0,0.0,0.0,-2.3071,-2.3748,-2.4019,-2.2767,-2.341,-2.4154,-2.3545,-2.3782,-2.4154,-2.4154,-2.4215,-2.4888,-2.7055,-2.8172,-2.9709,-3.2773,0.0,-3.7734,0.0,0.0,0.0,0.0,0.0,0.0,0.0,0.0,0.0,0.0,0.0,0.0,0.0,0.0,-4.1699,-4.1148,-4.0194,-3.9448,-3.8833,-3.9212,-3.9877,-4.0801,-4.0419,-4.0956,-4.2293,-4.1914,-4.176,0.0,0.0,-4.2508,-4.3278,-4.3278,-4.3701,-4.4316,-4.4316,-4.3278,-4.1816,-4.1816,-4.1239,-4.0508,0.0,0.0,0.0,0.0,0.0,0.0,0.0,0.0,0.0,0.0,0.0,0.0,0.0,0.0,0.0,0.0,0.0,0.0,-1.969,-1.969,-1.9839,-2.0228,-2.0228,-2.0378,-2.0707,-2.1425,-2.2443,-2.3729,-2.5764,-2.7081,-2.7649,-2.6841,-2.5255,-2.3041,-2.1365,-2.0258,-1.969,-1.969,-1.969,-1.9726,0.0,0.0,0.0,0.0,0.0,0.0,0.0,0.0,0.0,0.0,-2.1945,-2.1974,-2.2209,0.0,0.0,0.0,0.0,0.0,-2.2733,-2.3342,-2.3646,-2.2564,-2.3714,-2.4898,-2.4154,-2.4286,-2.4625,-2.5,-2.5101,-2.5729,-2.7836,-2.8833,-3.0552,-3.4147,0.0,-3.9827,0.0,0.0,0.0,0.0,0.0,0.0,0.0,0.0,0.0,0.0,0.0,0.0,0.0,0.0,-4.0377,-4.0451,-3.968,-3.9056,-3.8689,-3.8833,-3.9155,-3.9658,-3.9911,-4.024,-4.0688,-4.1419,-4.1554,-4.1261,0.0,-4.1915,-4.254,-4.224,-4.2527,-4.3056,-4.2776,-4.222,-4.1492,-4.119,-4.0854,-4.0508,0.0,0.0,0.0,0.0,0.0,0.0,0.0,0.0,0.0,0.0,0.0,0.0,0.0,0.0,0.0,0.0,0.0,0.0,-1.969,-1.969,-1.9929,-2.0438,-2.0617,-2.0917,-2.1365,-2.2832,-2.4088,-2.5076,-2.744,-2.8667,-2.8786,-2.6273,-2.4298,-2.2802,-2.0976,-1.9989,-1.969,-1.969,-1.969,-1.969,0.0,0.0,0.0,0.0,0.0,0.0,0.0,0.0,0.0,0.0,0.0,0.0,0.0,0.0,0.0,-2.2327,-2.2327,-2.2361,-2.253,-2.297,-2.3274,-2.2699,-2.3951,-2.527,-2.5067,-2.5135,-2.5575,-2.6691,-2.6928,-2.7335,-2.8661,-2.9863,0.0,-3.5738,-3.9057,0.0,0.0,0.0,0.0,0.0,0.0,0.0,0.0,0.0,0.0,0.0,0.0,0.0,0.0,0.0,-3.9276,-3.9863,-3.9129,-3.8689,-3.8689,-3.8689,-3.8799,-3.8982,-3.9682,-3.977,-3.9415,-4.079,-4.1092,-4.0537,-4.0789,-4.126,-4.1793,-4.1402,-4.1434,-4.1803,-4.1364,-4.1147,-4.0998,-4.0619,-4.0508,-4.0508,0.0,0.0,0.0,0.0,0.0,0.0,0.0,0.0,0.0,0.0,0.0,0.0,0.0,0.0,0.0,0.0,0.0,0.0,-1.969,-1.969,-1.972,-1.975,-2.0378,-2.1545,-2.334,-2.352,-2.4537,-2.6452,-2.7889,-2.8906,-2.9475,-2.741,-2.5405,-2.346,-2.2143,-2.0857,-1.969,-1.969,-1.969,-1.969,-1.969,0.0,0.0,0.0,0.0,0.0,0.0,0.0,0.0,0.0,0.0,0.0,0.0,0.0,-2.2327,-2.2327,-2.2327,-2.2462,-2.3139,-2.3342,-2.3376,-2.3342,-2.3951,-2.4929,-2.6218,-2.7063,-2.818,-3.0345,-3.0784,-3.0734,-3.0489,-3.2426,-3.5119,-3.843,-4.0148,0.0,0.0,0.0,0.0,0.0,0.0,0.0,0.0,0.0,0.0,0.0,0.0,0.0,0.0,0.0,0.0,-3.99,-3.9129,-3.8689,-3.8689,-3.8689,-3.9056,-3.979,-3.9124,-3.9335,-4.017,-3.9591,-3.9439,-3.9693,-3.9717,-4.0193,-4.0986,-4.0934,-4.0972,-4.0986,-4.0934,-4.0637,-4.0234,-4.0427,-4.0508,-4.0508,0.0,0.0,0.0,0.0,0.0,0.0,0.0,0.0,0.0,0.0,0.0,-1.969,-1.969,0.0,0.0,0.0,0.0,0.0,-1.969,-1.969,-1.9869,-2.0288,-2.0587,-2.1425,-2.2981,-2.4238,-2.5824,-2.7829,-2.9146,-2.9295,-2.8278,-2.6303,-2.4537,-2.2951,-2.1216,-2.0408,-2.0288,-1.9869,-1.9929,-2.0288,-1.9869,-1.969,0.0,0.0,0.0,0.0,0.0,0.0,0.0,0.0,-2.0862,-2.1275,-2.1521,-2.1945,-2.2327,-2.2327,-2.2327,-2.2361,-2.2632,-2.3038,-2.341,-2.341,-2.4289,-2.5439,-2.6454,-2.801,-2.9736,-3.1495,-3.2611,-3.3194,-3.3059,0.0,-3.6612,-3.7828,0.0,0.0,0.0,0.0,0.0,0.0,0.0,0.0,0.0,0.0,0.0,0.0,0.0,0.0,0.0,0.0,0.0,-3.9166,-3.8872,-3.8689,-3.8689,-3.8689,-3.8836,-3.9166,-3.8836,-3.8897,-3.9305,-3.952,-3.9653,-3.9797,-3.9944,-4.013,-4.0234,-3.9922,-3.9682,-3.9556,-3.9698,-3.9787,-3.9819,-4.0139,-4.0269,-4.0286,0.0,0.0,0.0,0.0,0.0,0.0,0.0,0.0,-1.969,0.0,0.0,0.0,0.0,-1.969,0.0,0.0,0.0,0.0,-1.969,-1.969,-1.9899,-2.0378,-2.0587,-2.1246,-2.2353,-2.4088,-2.5944,-2.7979,-2.9056,-2.8786,-2.723,-2.5226,-2.3939,-2.3191,-2.1216,-2.0707,-2.1276,-2.0378,-2.0288,-2.0647,-1.9959,-1.969,0.0,0.0,0.0,0.0,0.0,0.0,0.0,0.0,-2.0499,-2.1055,-2.1337,-2.1794,-2.2327,-2.2327,-2.2327,-2.2327,-2.2327,-2.2835,-2.341,-2.341,-2.4864,-2.6623,-2.7841,-2.9499,-3.136,-3.3288,-3.4134,-3.4573,-3.481,-3.5654,0.0,0.0,0.0,0.0,0.0,0.0,0.0,0.0,0.0,0.0,0.0,0.0,0.0,0.0,0.0,0.0,0.0,0.0,0.0,0.0,-3.8689,-3.8689,-3.8689,-3.8689,-3.8579,-3.8322,-3.8579,-3.8689,-3.8726,-3.9276,-3.9533,-3.9528,-3.9697,-3.9667,-3.9491,-3.9135,-3.8855,-3.8719,-3.9017,-3.9238,-3.9462,-3.9819,-3.9962,-4.0002,0.0,0.0,0.0,0.0,0.0,0.0,0.0,0.0,-1.969,-1.969,-1.969,0.0,0.0,0.0,0.0,0.0,0.0,0.0,-1.969,-1.969,-1.969,-1.969,-2.0348,-2.1006,-2.1665,-2.2921,-2.4567,-2.6572,-2.723,-2.723,-2.6512,-2.4537,-2.3969,-2.4492,-2.2562,-2.2054,-2.2634,-2.1276,-2.0707,-2.0647,-1.9959,-1.969,-1.969,0.0,0.0,0.0,0.0,0.0,0.0,0.0,-2.0292,-2.0991,-2.0991,-2.1584,-2.2265,-2.2265,-2.2327,-2.2327,-2.2327,-2.2835,-2.341,-2.341,-2.5642,-2.8416,-3.0683,-3.1799,-3.3186,-3.6197,-3.5588,-3.4742,-3.552,-3.4871,0.0,0.0,0.0,0.0,0.0,0.0,0.0,0.0,0.0,0.0,0.0,0.0,0.0,0.0,0.0,0.0,0.0,0.0,0.0,0.0,-3.8689,-3.8689,-3.8689,-3.8689,-3.8285,-3.7507,-3.8285,-3.8689,-3.8689,-3.8689,-3.8689,-3.8689,-3.8689,-3.8689,-3.8689,-3.8689,-3.8689,-3.8683,-3.898,-3.908,-3.9133,-3.9462,-3.958,-3.9626,0.0,0.0,0.0,0.0,0.0,0.0,0.0,0.0,-1.969,-1.969,-1.969,0.0,0.0,0.0,0.0,0.0,0.0,0.0,-1.969,-1.969,-1.969,-1.969,-1.9869,-2.0079,-2.0288,-2.1575,-2.3221,-2.5196,-2.6333,-2.6063,-2.4477,-2.3879,-2.346,-2.3221,-2.2652,-2.2233,-2.1934,-2.1066,-2.0707,-2.0647,-1.9959,-1.969,-1.969,0.0,0.0,0.0,0.0,0.0,0.0,0.0,0.0,0.0,-2.0532,-2.1118,-2.1794,-2.1794,-2.2032,-2.2327,-2.2327,-2.2835,-2.3646,-2.4695,-2.6826,-2.9364,-3.2138,-3.3322,-3.4709,-3.7719,-3.755,-3.6975,-3.7178,-3.7227,0.0,0.0,0.0,0.0,0.0,0.0,0.0,0.0,0.0,0.0,0.0,0.0,0.0,0.0,0.0,0.0,0.0,0.0,0.0,0.0,-3.7,-3.7,-3.7,-3.7,-3.689,-3.667,-3.689,-3.7294,-3.7881,-3.8432,-3.8689,-3.8689,-3.8689,-3.8395,-3.7845,-3.7845,-3.7514,-3.711,-3.8332,-3.8464,-3.8079,-3.892,-3.8901,-3.8428,0.0,0.0,0.0,0.0,0.0,0.0,-1.9369,-1.9551,-1.969,-1.969,-1.969,-1.969,0.0,0.0,0.0,-1.969,-1.969,0.0,-1.969,-1.969,-1.969,-1.969,-1.969,-1.9809,-2.0079,-2.1395,-2.2413,-2.3029,-2.4388,-2.4418,-2.3251,-2.349,-2.3699,-2.3849,-2.3849,-2.349,-2.2802,-2.1874,-2.1335,-2.1036,-2.0079,-1.9839,-2.0079,0.0,0.0,0.0,0.0,0.0,0.0,0.0,0.0,0.0,-2.0299,-2.0765,-2.1399,-2.1552,-2.1794,-2.2061,-2.2237,-2.3038,-2.4188,-2.5676,-2.7977,-3.0717,-3.3998,-3.5554,-3.6874,-3.9005,-3.8633,-3.7922,-3.7922,-3.7626,0.0,0.0,0.0,0.0,0.0,0.0,0.0,0.0,0.0,0.0,0.0,0.0,0.0,0.0,0.0,0.0,0.0,0.0,0.0,0.0,-3.6303,-3.6303,-3.6303,-3.6303,-3.6119,-3.5789,-3.6119,-3.6376,-3.656,-3.7698,-3.8395,-3.8689,-3.8358,-3.7771,-3.7,-3.7,-3.6743,-3.6413,-3.7734,-3.7918,-3.7647,-3.8588,-3.8637,-3.8248,0.0,0.0,-1.7476,-1.7933,0.0,0.0,-1.8817,-1.9295,-1.9654,-1.9654,-1.969,-1.969,0.0,0.0,0.0,-1.969,-1.969,-1.969,-1.969,-1.969,-1.969,-1.969,-1.975,-2.0109,-2.0797,-2.1934,-2.1904,-2.0707,-2.1964,-2.2634,-2.2592,-2.3281,-2.4298,-2.5525,-2.5525,-2.5136,-2.4313,-2.3041,-2.2113,-2.1395,-2.0168,-2.0079,-2.0557,-1.9929,0.0,0.0,0.0,0.0,0.0,0.0,0.0,0.0,-2.0261,-2.0565,-2.1023,-2.1368,-2.1521,-2.1672,-2.2123,-2.3346,-2.4896,-2.642,-2.9228,-3.251,-3.5994,-3.7889,-3.9106,-3.9817,-3.8937,-3.799,-3.799,-3.6806,0.0,0.0,0.0,0.0,0.0,0.0,0.0,0.0,0.0,0.0,0.0,0.0,0.0,0.0,0.0,0.0,0.0,0.0,0.0,0.0,-3.6083,-3.6083,-3.6083,-3.6083,-3.5679,0.0,-3.5679,-3.5716,-3.5027,-3.667,-3.7771,-3.8432,-3.7624,-3.6853,-3.6193,-3.6193,-3.6156,-3.6156,-3.711,-3.7441,-3.7477,-3.8285,-3.8542,-3.8529,0.0,0.0,-1.7353,-1.7476,0.0,0.0,-1.8249,-1.8741,-1.908,-1.908,-1.9442,-1.969,-1.969,-1.969,0.0,-1.969,-1.969,-1.969,-1.969,-1.969,-1.969,-1.969,-2.0198,-2.0797,-2.1485,-2.1246,-2.1006,-2.0707,-2.1515,-2.1904,-2.1934,-2.3071,-2.4029,-2.4837,-2.4837,-2.4178,-2.3011,-2.1695,-2.0737,-2.0079,-1.9809,-1.9779,-1.9899,-1.975,-1.969,0.0,0.0,0.0,0.0,0.0,0.0,0.0,-1.9839,-2.0124,-2.0467,-2.0534,-2.1054,-2.1612,-2.1735,-2.3103,-2.4966,-2.7063,-3.1157,-3.5047,-3.6468,-3.7483,-3.8362,-3.9073,-3.8971,-3.8768,-3.8768,0.0,0.0,0.0,0.0,0.0,0.0,0.0,0.0,0.0,0.0,0.0,0.0,0.0,0.0,0.0,0.0,0.0,0.0,0.0,0.0,-3.4357,-3.4321,-3.4321,-3.4321,-3.4321,-3.4247,0.0,-3.4247,-3.4578,-3.5027,-3.6083,-3.6633,-3.678,-3.5899,-3.5459,-3.5284,-3.5284,-3.4908,-3.4541,-3.667,-3.711,-3.667,-3.7441,-3.7367,-3.6817,0.0,0.0,0.0,0.0,0.0,0.0,0.0,0.0,-1.9295,-1.9295,-1.9515,-1.969,-1.969,-1.969,0.0,0.0,-1.969,-1.969,-1.969,-1.969,-1.969,-1.969,-2.0348,-2.0707,-2.0737,-2.0707,-2.0557,-2.0228,-2.0557,-2.1066,-2.1724,-2.334,-2.4298,-2.4582,-2.4956,-2.4208,-2.2622,-2.1605,-2.0797,-2.0139,-1.9809,-1.9869,-2.0139,-1.9809,-1.969,-1.969,-1.969,0.0,0.0,0.0,0.0,0.0,0.0,0.0,-2.0054,-2.023,-2.0634,-2.1054,-2.1491,-2.2886,-2.5045,-2.8549,-3.2544,-3.5825,-3.6603,-3.7347,-3.8024,-3.8396,-3.8464,-3.8362,-3.799,0.0,0.0,0.0,0.0,0.0,0.0,0.0,0.0,0.0,0.0,0.0,0.0,0.0,0.0,0.0,0.0,0.0,0.0,-3.4142,-3.4016,-3.3807,-3.3807,-3.3807,-3.3807,-3.3807,-3.3807,-3.3807,-3.3807,-3.4027,-3.4468,-3.5716,-3.6083,-3.5642,-3.5174,-3.477,-3.4431,-3.4431,-3.4174,-3.399,-3.6119,-3.667,-3.645,-3.7624,-3.7551,-3.6927,0.0,0.0,0.0,0.0,0.0,0.0,0.0,0.0,0.0,-1.9551,-1.9654,-1.969,-1.969,-1.969,-1.969,0.0,0.0,0.0,-1.969,-1.969,-1.975,-1.9869,-2.0408,-2.0498,-2.0049,-2.0468,-2.0438,-1.9869,-1.9869,-2.0617,-2.2054,-2.3699,-2.4522,-2.4761,-2.5136,-2.4298,-2.2664,-2.1724,-2.1036,-2.0498,-1.9899,-2.0019,-2.0468,-1.9899,-1.969,-1.969,-1.969,-1.969,-1.969,-1.969,0.0,0.0,0.0,0.0,-1.9797,-2.0089,-2.0261,-2.0467,-2.118,-2.28,-2.5343,-2.9859,-3.3051,-3.525,-3.6028,-3.6772,-3.728,-3.7144,-3.7449,-3.7516,0.0,0.0,0.0,0.0,0.0,0.0,0.0,0.0,0.0,0.0,0.0,0.0,0.0,0.0,0.0,0.0,0.0,0.0,-3.2859,-3.2985,-3.3161,-3.3506,-3.3707,-3.3733,-3.3587,-3.3587,-3.3513,-3.3403,-3.3403,-3.3403,-3.344,-3.4798,-3.5128,-3.4587,-3.4587,-3.4211,-3.3587,-3.3587,-3.366,-3.3954,-3.5495,-3.6156,-3.645,-3.7624,-3.7808,-3.7551,0.0,0.0,0.0,0.0,0.0,0.0,0.0,0.0,0.0,0.0,-1.9406,-1.969,-1.969,-1.969,-1.969,-1.969,-1.969,-1.969,-1.969,0.0,0.0,-2.0557,-2.0677,-2.0946,-2.1425,-2.0946,-2.0677,-2.0587,-2.0587,-2.1515,-2.334,-2.361,-2.4358,-2.5435,-2.4358,-2.343,-2.2604,-2.0737,-1.9899,-1.9809,-1.972,-1.975,-1.9809,-1.972,-1.969,-1.969,-1.969,-1.969,-1.969,-1.969,-1.969,0.0,0.0,0.0,-1.9726,-1.9732,-2.0019,-2.0333,-2.0434,-2.3084,-2.654,-2.9488,-3.1495,-3.2916,-3.3694,-3.4404,-3.4776,0.0,-3.5554,0.0,0.0,0.0,0.0,0.0,0.0,0.0,0.0,0.0,0.0,0.0,0.0,0.0,0.0,0.0,0.0,0.0,0.0,0.0,-3.1635,-3.2038,-3.2278,-3.2335,-3.3305,-3.3476,-3.2779,-3.2779,-3.2412,-3.1715,-3.1715,-3.1715,-3.1715,-3.1935,-3.2375,-3.2926,-3.2926,-3.2852,-3.2779,-3.2779,-3.3183,-3.388,-3.4835,-3.5642,-3.6229,-3.5716,-3.634,-3.7294,0.0,0.0,0.0,0.0,0.0,0.0,0.0,0.0,0.0,0.0,0.0,-1.969,-1.969,-1.969,-1.969,-1.969,-1.969,-1.969,-1.969,-1.969,-1.9809,-2.0139,-2.0139,-2.0288,-2.0557,-2.0288,-2.0139,-2.0139,-2.0139,-2.1335,-2.361,-2.3999,-2.4896,-2.6093,-2.4777,-2.361,-2.2574,-2.0528,-1.969,-1.969,-1.969,-1.969,-1.969,-1.969,-1.969,-1.969,-1.969,-1.969,-1.969,-1.969,-1.969,-1.969,-1.969,0.0,0.0,0.0,-1.9839,-2.0111,-2.0791,-2.2852,-2.5441,-2.7885,-2.9484,-3.0852,-3.2408,-3.3017,-3.3288,-3.3389,0.0,0.0,0.0,0.0,0.0,0.0,0.0,0.0,0.0,0.0,0.0,0.0,0.0,0.0,0.0,0.0,0.0,0.0,0.0,-3.0557,-3.0972,-3.0815,-3.0823,-3.1064,-3.1799,-3.2001,-3.1647,-3.1858,-3.1751,-3.1384,-3.1384,-3.1384,-3.1384,-3.1384,-3.1568,-3.1935,-3.1935,-3.1935,-3.1971,-3.2412,-3.2816,-3.3256,-3.4513,-3.521,-3.5605,-3.5679,-3.5899,-3.6083,0.0,0.0,0.0,0.0,0.0,0.0,0.0,0.0,0.0,0.0,0.0,-1.969,-1.969,0.0,0.0,0.0,-1.969,-1.969,-1.969,-1.969,-1.969,-1.969,-1.969,-1.969,-1.969,-1.969,-1.969,-1.969,-1.969,-2.1126,-2.3879,-2.4388,-2.5525,-2.7051,-2.5704,-2.4208,-2.2604,-2.0917,-2.0198,-2.0168,-1.9839,-1.969,-1.969,-1.969,-1.969,-1.969,-1.969,-1.969,-1.969,-1.969,-1.969,-1.969,-1.969,-1.969,0.0,0.0,0.0,-1.9924,-2.091,-2.2232,-2.3782,-2.5867,-2.7183,-2.8544,-3.0683,0.0,-3.1664,0.0,0.0,0.0,0.0,0.0,0.0,0.0,0.0,0.0,0.0,0.0,0.0,0.0,0.0,0.0,0.0,0.0,0.0,0.0,0.0,-2.9646,-2.9937,-2.9556,-2.9475,-2.9823,-3.0427,-3.0664,-3.0448,-3.0555,-3.0636,-3.0636,-3.0636,-3.0611,-3.0498,-3.0611,-3.0636,-3.0661,-3.0956,-3.1091,-3.1164,-3.1971,-3.2412,-3.2742,-3.4174,-3.4807,-3.5027,-3.5495,-3.5532,-3.5385,0.0,0.0,0.0,0.0,0.0,0.0,0.0,0.0,0.0,0.0,0.0,-1.969,-1.969,-1.969,-1.969,-1.969,-1.969,-1.969,-1.969,-1.969,-1.969,-1.969,-1.969,0.0,-1.969,-1.969,-1.969,-1.969,-1.969,-2.1365,-2.4522,-2.4552,-2.6004,-2.8427,-2.7081,-2.5076,-2.2664,-2.1904,-2.1605,-2.1485,-2.0198,-1.969,-1.969,-1.969,-1.969,-1.969,-1.969,-1.969,-1.969,-1.969,-1.969,-1.969,-1.969,-1.969,-1.969,0.0,0.0,0.0,-2.0224,-2.0957,-2.2023,-2.3653,-2.4646,-2.5711,-2.7601,0.0,0.0,0.0,0.0,0.0,0.0,0.0,0.0,0.0,0.0,0.0,0.0,0.0,0.0,0.0,0.0,0.0,0.0,0.0,0.0,0.0,0.0,-2.7943,-2.7978,-2.8354,-2.858,-2.8612,-2.9717,-2.9965,-2.9189,-2.8775,-2.8572,-2.8572,-2.8572,-2.8389,-2.8088,-2.8416,-2.8572,-2.8608,-2.9795,-3.0246,-3.032,-3.1127,-3.1898,-3.2706,-3.355,-3.4321,-3.4917,-3.4211,-3.4908,-3.6009,0.0,0.0,0.0,0.0,0.0,0.0,0.0,0.0,0.0,0.0,0.0,0.0,0.0,-1.969,-1.969,-1.969,-1.969,-1.969,-1.969,-1.969,-1.969,-1.969,-1.969,-1.969,-1.969,-1.969,-1.969,-1.969,-1.969,-2.0737,-2.2742,-2.3191,-2.367,-2.4208,-2.4986,-2.4807,-2.3789,-2.1395,-2.0647,-2.0976,-2.0049,-1.969,-1.969,-1.969,-1.969,-1.969,-1.969,-1.969,-1.969,-1.969,-1.969,-1.969,-1.969,-1.969,-1.969,-1.969,-1.969,-1.9726,-1.9874,-2.0308,-2.0995,-2.2065,-2.2963,-2.3951,-2.5612,-2.6421,-2.7165,0.0,0.0,0.0,0.0,0.0,0.0,0.0,0.0,0.0,0.0,0.0,0.0,0.0,0.0,0.0,0.0,0.0,0.0,0.0,0.0,0.0,-2.7772,-2.7504,-2.7332,-2.7332,-2.8025,-2.8363,-2.8351,-2.8144,-2.8093,-2.8093,-2.8093,-2.8037,-2.7897,-2.8037,-2.8093,-2.8093,-2.8542,-2.8845,-2.9159,-3.0529,-3.1256,-3.1683,-3.3213,-3.399,-3.4211,-3.3917,-3.4174,-3.4688,0.0,0.0,0.0,-1.7271,0.0,-1.8482,-1.8855,-1.9192,-1.9479,-1.969,0.0,0.0,0.0,0.0,-2.0042,-2.0049,-1.9809,-1.969,-1.969,-1.969,-1.969,-1.969,-1.969,-1.969,-1.969,-1.969,-1.969,-1.969,-1.969,-2.0378,-2.1695,-2.2143,-2.2353,-2.2383,-2.3251,-2.364,-2.349,-2.1306,-2.0767,-2.1276,-2.0139,-2.0079,-2.0677,-2.0677,-2.0827,-2.0976,-2.0767,-2.0557,-2.0288,-1.9839,-1.969,-1.969,-1.969,-1.969,-1.969,-1.969,-1.969,-1.969,-1.969,-1.9909,-2.0281,-2.0918,-2.1496,-2.2281,-2.3685,0.0,-2.488,0.0,0.0,0.0,0.0,0.0,0.0,0.0,0.0,0.0,0.0,0.0,0.0,0.0,0.0,0.0,0.0,0.0,0.0,0.0,0.0,0.0,-2.7435,-2.6962,-2.659,-2.6353,-2.6612,-2.6784,-2.6951,-2.7197,-2.7338,-2.7338,-2.7584,-2.7636,-2.7517,-2.7636,-2.7695,-2.7695,-2.7695,-2.789,-2.8362,-3.0004,-3.065,-3.0859,-3.2847,-3.3606,-3.3643,-3.4046,-3.3945,-3.3752,-1.6522,-1.6522,-1.6667,-1.7188,-1.7271,-1.768,-1.8769,-1.8921,-1.9139,-1.9713,0.0,0.0,0.0,0.0,0.0,-2.0721,-2.0139,-1.972,-1.972,-1.972,-1.972,-1.969,-1.969,-1.969,-1.969,-1.969,-1.969,-1.969,-1.969,-2.0348,-2.1635,-2.1635,-2.2293,-2.343,-2.2173,-2.1635,-2.1635,-2.1635,-2.2054,-2.2544,-2.0535,-2.0857,-2.2694,-2.2634,-2.2981,-2.343,-2.2832,-2.2203,-2.1455,-2.0168,-1.972,-1.972,-1.972,-1.9726,-1.969,-1.969,-1.969,-1.969,0.0,0.0,0.0,-2.0193,-2.0265,-2.0621,-2.1789,0.0,-2.2602,0.0,0.0,0.0,0.0,0.0,0.0,0.0,0.0,0.0,0.0,0.0,0.0,0.0,0.0,0.0,0.0,0.0,0.0,0.0,0.0,-2.6657,-2.6691,-2.6691,-2.6353,-2.5676,-2.5642,-2.549,-2.5142,-2.5877,-2.6194,-2.6194,-2.6922,-2.7083,-2.6725,-2.7115,-2.7272,-2.7272,-2.7272,-2.7517,-2.7975,-2.9531,-3.0132,-3.0371,-3.2367,-3.313,-3.3298,-3.4483,-3.4215,-3.3478,-1.6522,-1.6522,-1.6565,-1.671,-1.7385,-1.82,-1.8918,-1.9717,-2.0436,0.0,0.0,0.0,-2.1386,-2.1416,-2.1446,-2.1425,-2.1246,-2.0946,-2.0468,-2.0438,-2.0198,-1.972,-1.969,-1.969,-1.969,-1.969,-1.969,-1.969,-1.969,-1.9869,-2.0228,-2.0228,-2.0438,-2.0737,-2.0408,-2.0228,-2.0228,-2.0228,-2.1186,-2.2544,-2.0535,-2.0587,-2.1874,-2.0887,-2.0917,-2.1485,-2.1306,-2.1126,-2.0917,-2.0557,-2.0438,-2.0438,-2.0438,-2.0079,-1.969,-1.969,-1.969,-1.969,-1.969,0.0,0.0,0.0,0.0,0.0,-2.0717,-2.1082,-2.16,0.0,0.0,0.0,0.0,0.0,0.0,0.0,0.0,0.0,0.0,0.0,0.0,0.0,0.0,0.0,0.0,0.0,0.0,0.0,-2.5406,-2.5541,-2.6623,-2.6691,-2.659,-2.6387,-2.6387,-2.6114,-2.5493,-2.6209,-2.6311,-2.5768,-2.6516,-2.6825,-2.6691,-2.6825,-2.6891,-2.6891,-2.6891,-2.6922,-2.712,-2.8439,-2.8984,-2.9155,-3.1146,-3.1907,-3.2041,-3.3232,-3.3255,-3.2905,-1.6522,-1.6522,-1.6597,-1.6848,-1.7816,-1.8667,-1.9006,-1.9958,-2.0698,0.0,0.0,0.0,-2.2069,-2.2574,-2.2712,-2.2143,-2.1844,-2.1545,-2.1156,-2.1126,-2.0827,-2.0139,-2.0109,-1.9886,-1.9369,-1.9617,-1.9617,-1.9369,-1.9617,-1.969,-1.969,-1.969,-1.969,-1.969,-1.969,-1.969,-1.969,-1.969,-2.0528,-2.1724,-2.0258,-2.0797,-2.2413,-2.1605,-2.1904,-2.2712,-2.2443,-2.2532,-2.2532,-2.1186,-2.0707,-2.0677,-2.0378,-2.0408,-2.0408,-1.9839,-1.9899,-2.0049,-1.9779,-1.969,-1.969,-1.969,0.0,0.0,-2.0054,-2.0261,-2.0624,0.0,0.0,0.0,0.0,0.0,0.0,0.0,0.0,0.0,0.0,0.0,0.0,0.0,0.0,0.0,0.0,0.0,0.0,-2.5135,-2.4729,-2.4896,-2.571,-2.5778,-2.5778,-2.5778,-2.5473,-2.5101,-2.4695,-2.5406,-2.5575,-2.5135,-2.6184,-2.6691,-2.6691,-2.6691,-2.6691,-2.6691,-2.6691,-2.6691,-2.6759,-2.7466,-2.7942,-2.8388,-3.0344,-3.1105,-3.1311,-3.283,-3.2882,-3.244,0.0,-1.6672,-1.6898,-1.7476,-1.8421,-1.9107,-1.9278,-2.012,-2.0607,0.0,-2.0973,-2.1907,-2.3086,-2.419,-2.4388,-2.3221,-2.2443,-2.1994,-2.1904,-2.1844,-2.1515,-2.0857,-2.0827,-2.0271,-1.9123,-1.9516,-1.9487,-1.9008,-1.9398,-1.9654,-1.969,-1.969,-1.969,-1.969,-1.969,-1.969,-1.969,-1.969,-2.0079,-2.0647,-2.0049,-2.1276,-2.349,-2.343,-2.4178,-2.5196,-2.4627,-2.4777,-2.4837,-2.1844,-2.0767,0.0,-2.0079,-2.0617,-2.1276,-2.0228,-2.0288,-2.0587,-2.0049,-1.9959,-1.9989,-1.9839,-1.9959,0.0,-1.975,-1.9809,-1.9984,0.0,0.0,0.0,0.0,0.0,0.0,0.0,0.0,0.0,0.0,0.0,0.0,0.0,0.0,0.0,0.0,-2.4388,-2.4388,-2.4388,-2.4455,-2.4489,-2.4388,-2.4489,-2.4557,-2.4594,-2.3883,-2.3511,-2.3511,-2.4222,-2.4591,-2.4523,-2.5981,-2.6691,-2.6691,-2.6691,-2.6691,-2.6691,-2.6691,-2.6691,-2.6691,-2.6691,-2.7097,-2.7876,-2.9764,-3.0525,-3.0733,-3.2756,-3.2757,-3.2015,-1.72,-1.7576,-1.8053,-1.8606,-1.9232,-1.999,-2.0935,-2.1244,-2.1934,-2.3405,-2.4684,-2.5775,-2.6574,-2.6374,-2.6093,-2.5854,-2.4747,-2.3819,-2.3251,-2.2772,-2.2203,-2.1545,-2.1485,-2.1119,-2.0378,-2.0009,-1.9749,-1.9563,-1.9228,-1.9295,-1.969,-1.969,-1.969,-1.969,-1.969,-1.969,-1.969,-1.969,-2.0079,-2.0707,-2.0557,-2.1455,-2.2802,-2.2263,-2.2562,-2.3221,-2.3101,-2.3131,-2.3071,-2.1904,-2.1156,-2.0767,0.0,0.0,0.0,-2.1066,-2.1036,-2.0797,-2.1186,-2.1695,-2.1884,0.0,0.0,0.0,-2.0168,-2.0528,-2.1045,0.0,0.0,0.0,0.0,0.0,0.0,0.0,0.0,0.0,0.0,0.0,0.0,0.0,0.0,0.0,0.0,-2.3613,-2.3613,-2.3613,-2.4154,-2.4222,-2.3646,-2.4184,-2.4763,-2.5372,-2.4661,-2.4286,-2.4286,-2.5033,-2.5067,-2.4523,-2.5981,-2.6691,-2.6691,-2.6691,-2.6691,-2.6691,-2.6691,-2.6691,-2.6691,-2.6691,-2.6759,-2.7063,-2.8693,-2.9343,-2.9549,-3.146,-3.1797,-3.1423,-1.7802,-1.8028,-1.8455,-1.9284,-1.9861,-2.0519,-2.1399,-2.1761,-2.2585,-2.4336,-2.6236,-2.7205,-2.6535,-2.6762,-2.6739,-2.6135,-2.5495,-2.4837,-2.4148,-2.3819,-2.3221,-2.2233,-2.2173,-2.175,-2.0793,-2.0477,-2.0292,-2.0292,-1.9947,-2.0079,-2.0677,-2.0348,-2.0198,-2.0168,-1.9839,-1.969,-1.972,-2.0049,-2.0408,-2.0707,-2.0707,-2.1485,-2.2694,-2.2323,-2.2592,-2.3131,-2.3131,-2.2742,-2.2233,-2.2532,-2.2203,0.0,-2.1306,-2.1395,-2.1635,0.0,-2.1455,-2.1276,0.0,0.0,0.0,-2.1784,0.0,0.0,0.0,-2.0677,-2.0677,0.0,0.0,0.0,0.0,0.0,0.0,0.0,0.0,0.0,0.0,0.0,0.0,0.0,0.0,0.0,0.0,-2.2719,-2.2868,-2.2868,-2.3207,-2.3241,-2.2868,-2.3207,-2.3748,-2.4492,-2.3782,-2.3579,-2.3951,-2.4661,-2.4864,-2.4523,-2.5981,-2.6691,-2.6691,-2.6691,-2.6691,-2.6691,-2.6691,-2.6691,-2.6691,-2.6691,-2.6691,-2.6793,-2.7943,-2.8416,-2.8621,-3.0302,-3.0844,-3.0722,-1.838,-1.8455,-1.8857,-1.9936,-2.0514,-2.1041,-2.1694,-2.2185,-2.3103,-2.4761,-2.6931,-2.7766,-2.6226,-2.7043,-2.7418,-2.6613,-2.6093,-2.5674,-2.5405,-2.4881,-2.4148,-2.3101,-2.2921,-2.2384,-2.1281,-2.0897,-2.0798,-2.0869,-2.0684,-2.0876,-2.1505,-2.1117,-2.0887,-2.0887,-2.0318,-2.0139,-2.0288,-2.0707,-2.1036,-2.1246,-2.1126,-2.1724,-2.2724,-2.2843,-2.3161,-2.361,-2.361,-2.2921,-2.2203,-2.3251,-2.3281,-2.2682,-2.1754,-2.2383,0.0,0.0,0.0,0.0,0.0,0.0,0.0,0.0,0.0,-2.1754,0.0,0.0,0.0,0.0,0.0,0.0,0.0,0.0,0.0,0.0,0.0,0.0,0.0,0.0,0.0,0.0,0.0,0.0,0.0,-2.2032,-2.2327,-2.2327,-2.2327,-2.2327,-2.2327,-2.2327,-2.2632,-2.3376,-2.2699,-2.2665,-2.3376,-2.412,-2.4523,-2.4523,-2.5981,-2.6691,-2.6691,-2.6691,-2.6691,-2.6691,-2.6691,-2.6691,-2.6691,-2.6691,-2.6691,-2.6759,-2.7537,-2.7772,-2.7941,-2.9364,-2.9973,-3.0209,-1.9032,-1.9309,-1.9987,-2.1091,-2.1343,-2.1744,-2.2799,-2.3129,-2.4003,-2.5933,-2.7456,-2.8512,-2.88,-2.9134,-2.9486,-2.9924,-2.7829,-2.6961,-2.8068,-2.5944,-2.4522,-2.4418,-2.3819,-2.32,-2.2538,-2.1428,-2.0879,-2.0789,-2.0279,-2.0302,-2.0806,-2.1336,-2.1575,-2.1575,-2.1515,-2.1784,-2.2334,-2.1814,-2.2233,-2.3221,-2.2682,-2.2532,0.0,-2.3281,-2.355,-2.361,-2.361,-2.352,-2.34,0.0,-2.355,-2.358,0.0,-2.355,-2.3101,-2.4687,0.0,0.0,0.0,0.0,0.0,0.0,-2.4298,0.0,0.0,0.0,-2.1186,-2.0139,0.0,0.0,0.0,0.0,0.0,0.0,0.0,0.0,0.0,0.0,0.0,0.0,0.0,0.0,0.0,0.0,-2.2327,-2.2327,-2.2327,-2.2327,-2.2327,-2.2327,-2.2632,-2.3376,-2.2699,-2.2665,-2.3376,-2.412,-2.4523,-2.4523,-2.5981,-2.6691,-2.6691,-2.6691,-2.6691,-2.6691,-2.6691,-2.6691,-2.6691,-2.6691,-2.6691,-2.6759,-2.7537,-2.7772,-2.7908,-2.8789,-2.9533,-3.0108,-1.951,-1.966,-2.0162,-2.1292,-2.1493,-2.187,-2.2915,-2.478,-2.6081,-2.6196,-2.8318,-2.9944,-3.0352,-3.0162,-3.0336,-3.1004,-2.9415,-2.8248,0.0,-2.6229,-2.5129,-2.5179,-2.4528,-2.399,-2.3805,-2.2611,-2.1927,-2.1886,-2.0918,-2.0919,-2.1888,-2.1756,-2.1904,-2.2233,-2.1874,-2.1844,-2.2113,-2.2233,-2.2562,-2.3071,-2.3161,-2.3221,0.0,-2.349,-2.361,-2.361,-2.361,-2.337,-2.3071,0.0,-2.358,0.0,0.0,0.0,0.0,-2.4896,0.0,0.0,0.0,0.0,0.0,0.0,0.0,0.0,-2.1395,0.0,-2.0587,0.0,0.0,0.0,0.0,0.0,0.0,0.0,-1.951,0.0,0.0,0.0,0.0,0.0,0.0,0.0,0.0,0.0,0.0,0.0,0.0,-2.2003,-2.2299,-2.2327,-2.2462,-2.2767,-2.2868,-2.3105,-2.341,-2.456,-2.5135,-2.5135,-2.6184,-2.6691,-2.6691,-2.6691,-2.6691,-2.6691,-2.6691,-2.6691,-2.6691,-2.6691,-2.6691,-2.6725,-2.7029,-2.7165,-2.7266,-2.801,-2.8518,-2.8924,-2.0238,-2.0137,-2.0388,-2.1518,-2.1719,-2.2153,-2.3416,-2.5631,-2.7083,-2.6899,-2.8903,-3.0639,-3.1386,-3.1293,-3.1483,-3.2258,-3.115,-2.9839,0.0,-2.7085,-2.5995,-2.5277,-2.478,-2.4413,-2.4265,-2.3196,-2.2628,-2.262,-2.1533,-2.148,-2.2414,-2.2112,-2.2251,-2.271,-2.2539,-2.2503,-2.2532,-2.3011,-2.3221,-2.3221,-2.349,-2.361,-2.361,-2.361,-2.361,-2.361,-2.361,-2.331,-2.2951,-2.3161,-2.3849,0.0,-2.3729,0.0,0.0,0.0,0.0,0.0,-2.5704,0.0,0.0,0.0,0.0,0.0,0.0,0.0,0.0,0.0,0.0,0.0,0.0,0.0,-2.0109,-1.975,0.0,-1.9839,0.0,0.0,0.0,0.0,0.0,0.0,0.0,0.0,0.0,0.0,0.0,0.0,-2.2265,-2.2327,-2.2327,-2.2327,-2.3004,-2.341,-2.341,-2.4864,-2.5609,-2.5609,-2.6353,-2.6691,-2.6691,-2.6691,-2.6691,-2.6691,-2.6691,-2.6691,-2.6691,-2.6691,-2.6691,-2.6691,-2.6691,-2.6691,-2.6759,-2.73,-2.7638,-2.7941,-2.1317,-2.1016,-2.0991,-2.2096,-2.2297,-2.2883,-2.476,-2.5116,-2.6054,-2.8601,-2.9038,-2.9919,-3.1968,-3.2901,-3.3694,-3.4322,-3.3185,-3.1812,-3.0392,0.0,-2.7267,-2.4579,-2.4481,-2.417,-2.3482,-2.2751,-2.2431,-2.2405,-2.1852,-2.1588,-2.1665,-2.2348,-2.2665,-2.274,-2.397,-2.4492,-2.4492,-2.4522,-2.4522,-2.4462,-2.3849,-2.361,-2.361,0.0,-2.361,-2.361,-2.361,0.0,0.0,-2.4328,-2.4552,0.0,0.0,0.0,0.0,0.0,0.0,0.0,0.0,0.0,0.0,-2.4448,0.0,0.0,0.0,0.0,-2.1455,0.0,0.0,0.0,0.0,-2.1665,-2.1216,-1.9899,-2.0228,0.0,0.0,0.0,0.0,0.0,0.0,0.0,0.0,0.0,0.0,0.0,0.0,0.0,-2.2265,-2.2327,-2.2327,-2.2327,-2.3004,-2.341,-2.341,-2.4864,-2.5609,-2.5609,-2.6353,-2.6691,-2.6691,-2.6691,-2.6691,-2.6691,-2.6691,-2.6691,-2.6691,-2.6691,-2.6691,-2.6691,-2.6691,-2.6691,-2.6691,-2.6725,-2.7199,-2.7806,-2.192,-2.187,-2.187,-2.2246,-2.2322,-2.2883,-2.462,-2.5524,-2.7236,-3.0482,-3.1292,-3.2942,0.0,-3.685,-3.6836,0.0,0.0,-3.3617,-3.1656,-3.0453,0.0,0.0,0.0,-2.6217,0.0,-2.3952,-2.3524,-2.3173,-2.2591,-2.2744,-2.3631,-2.3474,-2.356,-2.3954,-2.394,-2.4208,-2.4552,-2.4148,-2.4208,0.0,0.0,-2.4118,-2.4837,0.0,0.0,-2.361,-2.361,-2.361,0.0,-2.3879,-2.4238,-2.4552,-2.4358,-2.5046,-2.5884,-2.5674,-2.6213,0.0,0.0,0.0,-2.744,-2.5435,0.0,0.0,0.0,0.0,0.0,0.0,0.0,0.0,0.0,-2.1695,-2.1395,-2.0528,-2.0557,-2.0408,0.0,0.0,0.0,0.0,0.0,0.0,0.0,0.0,0.0,0.0,0.0,0.0,0.0,-2.2327,-2.2327,-2.2327,-2.3477,-2.412,-2.412,-2.5575,-2.6319,-2.6319,-2.659,-2.6691,-2.6691,-2.6691,-2.6691,-2.6691,-2.6691,-2.6691,-2.6691,-2.6691,-2.6691,-2.6691,-2.6691,-2.6996,-2.7368,-2.686,-2.686,-2.7232,-2.2799,-2.2899,-2.2899,-2.2899,-2.3289,-2.3984,-2.525,-2.6899,-2.9183,0.0,-3.3592,0.0,-3.9384,0.0,-3.902,0.0,-3.7614,-3.5577,-3.2413,-3.1999,0.0,-2.8118,-2.8368,-2.7778,0.0,0.0,-2.4815,-2.3765,-2.3415,-2.3447,-2.3865,-2.3409,-2.3461,-2.388,-2.417,-2.44,-2.4582,-2.4657,-2.4777,0.0,0.0,-2.4328,0.0,0.0,-2.3909,-2.4238,0.0,-2.361,-2.361,-2.361,-2.3909,-2.4238,-2.4029,-2.4866,-2.5854,-2.5674,-2.6363,-2.723,-2.723,-2.743,0.0,-2.5944,-2.5285,0.0,-2.2503,0.0,0.0,0.0,0.0,0.0,0.0,0.0,-2.1844,-2.1156,-2.0857,-2.0468,0.0,-1.969,0.0,0.0,0.0,0.0,0.0,0.0,0.0,-2.1054,-2.0926,0.0,0.0,0.0,-2.2032,-2.2032,-2.3654,-2.4523,-2.4523,-2.5947,-2.6691,-2.6691,-2.6691,-2.6691,-2.6691,-2.6691,-2.6691,-2.6691,-2.6691,-2.6691,-2.6691,-2.6691,-2.6691,-2.6725,-2.6996,-2.7402,-2.7739,-2.7266,-2.7266,-2.7706,-2.3929,-2.4054,-2.4079,-2.413,-2.5086,-2.6037,0.0,0.0,-3.1709,0.0,-3.5939,-3.815,-4.0323,-4.0546,-4.0277,-3.9589,-3.9499,-3.7545,-3.289,-3.3854,0.0,0.0,-2.9106,-2.875,-2.711,0.0,0.0,0.0,-2.4249,-2.3759,-2.2495,-2.2525,-2.2642,-2.2887,-2.469,-2.5199,-2.4761,-2.6033,-2.6183,-2.5555,-2.4926,-2.4328,-2.3789,-2.3729,-2.4537,-2.5525,-2.4148,-2.364,-2.364,-2.3699,-2.367,-2.3759,-2.4373,-2.4612,-2.4761,-2.5435,-2.6093,-2.6632,-2.6632,-2.7081,-2.726,-2.6004,0.0,0.0,0.0,0.0,-2.4388,0.0,0.0,0.0,0.0,0.0,-2.2503,-2.1814,-2.1126,-2.0438,-1.9779,0.0,0.0,0.0,0.0,0.0,0.0,0.0,-1.9874,-2.0296,-2.0299,-2.0501,0.0,0.0,-2.1615,-2.1648,-2.3502,-2.4492,-2.4557,-2.5981,-2.6691,-2.6691,-2.6691,-2.6691,-2.6691,-2.6691,-2.6691,-2.6691,-2.6691,-2.6691,-2.6691,-2.6691,-2.6691,-2.6759,-2.7469,-2.7772,-2.784,-2.784,-2.8349,-2.9093,-2.4582,-2.4933,-2.531,-2.5762,-2.576,-2.6029,0.0,0.0,0.0,0.0,-3.7882,-4.0217,-4.2354,-4.2581,-4.2132,-4.0965,-4.0427,0.0,0.0,0.0,0.0,-3.0653,-3.0923,-2.9738,-2.6713,-2.6231,-2.5651,-2.4814,-2.4511,-2.4687,-2.5408,-2.4952,-2.5048,-2.5551,-2.5549,-2.5801,-2.6063,-2.5914,-2.5764,-2.5585,-2.5435,-2.5824,0.0,0.0,-2.5914,-2.6841,-2.5016,-2.4313,-2.4448,-2.4926,-2.4777,-2.4343,-2.4522,-2.4956,-2.5405,-2.5555,-2.6422,-2.737,-2.737,-2.744,-2.755,-2.7141,-2.6692,-2.6063,0.0,0.0,0.0,0.0,0.0,0.0,0.0,0.0,0.0,-2.1874,-2.0707,-1.9899,-1.972,0.0,0.0,-2.0378,0.0,0.0,0.0,-1.969,-1.9874,-2.0296,-2.0299,-2.0501,0.0,0.0,0.0,-2.237,-2.3486,-2.4444,-2.5304,-2.6251,-2.6691,-2.6691,-2.6691,-2.6691,-2.6691,-2.6691,-2.6691,-2.6691,-2.6691,-2.6691,-2.6691,-2.6691,-2.6691,-2.6725,-2.6894,-2.7672,-2.8687,-2.8687,-2.8822,-2.9093,-2.5485,-2.6364,-2.7092,-2.7168,0.0,0.0,-2.8976,-3.0742,0.0,-3.6401,-3.8688,0.0,-4.2324,-4.3,-4.2821,-4.1504,-4.0618,0.0,-3.6678,0.0,0.0,-3.1955,-3.2006,-3.0756,-2.7868,-2.7352,0.0,-2.5458,-2.4939,-2.498,-2.5494,-2.4806,-2.4693,-2.5128,-2.5071,-2.5254,-2.5669,-2.5892,-2.616,-2.6452,-2.6153,-2.6303,0.0,-2.5884,-2.6063,-2.6602,-2.5794,-2.5315,-2.5076,-2.5166,-2.5136,-2.5106,-2.5405,-2.5734,-2.6093,-2.6393,-2.6991,-2.755,-2.723,-2.74,-2.755,-2.723,-2.7081,-2.6782,-2.5824,-2.6183,-2.6213,0.0,0.0,0.0,0.0,0.0,0.0,-2.1485,-2.0617,-2.0019,0.0,0.0,0.0,0.0,-1.9929,0.0,0.0,-1.969,-1.9767,-2.0019,-2.0019,-2.0124,0.0,0.0,0.0,-2.205,-2.3608,-2.4704,-2.5213,-2.6547,-2.7188,-2.7199,-2.7199,-2.7199,-2.7199,-2.7199,-2.6996,-2.6691,-2.6691,-2.6691,-2.6691,-2.6691,-2.6894,-2.7266,-2.7909,-2.889,-2.9939,-2.9939,-2.9939,-3.0006,-2.6565,-2.7896,-2.8775,0.0,0.0,0.0,0.0,-3.2671,0.0,-3.7042,0.0,-4.0969,-4.1577,-4.2485,-4.2555,-4.1322,0.0,-3.8629,-3.6273,-3.563,-3.4602,-3.288,-3.2588,-3.1504,-2.9337,-2.8972,-2.7786,0.0,-2.5292,-2.4774,-2.4279,-2.3603,-2.3379,-2.357,-2.4156,-2.4554,-2.4771,-2.6079,-2.6997,-2.758,-2.6961,-2.6363,-2.5854,-2.5854,-2.5854,-2.5944,-2.6422,-2.6213,-2.5674,-2.5166,-2.5345,-2.5824,-2.6422,-2.6602,-2.6692,-2.729,-2.755,-2.744,-2.6871,-2.7141,-2.749,-2.6871,-2.7141,-2.726,-2.6123,-2.5794,-2.5585,-2.497,-2.4268,-2.3909,0.0,0.0,0.0,-2.1036,0.0,0.0,0.0,0.0,0.0,0.0,0.0,0.0,0.0,0.0,-1.969,-1.969,-1.969,0.0,0.0,0.0,0.0,-2.1409,-2.3595,0.0,-2.5092,0.0,-2.7816,-2.7936,-2.794,-2.7977,-2.7977,-2.7977,-2.7571,-2.6826,-2.6826,-2.6793,-2.6691,-2.6691,-2.7131,-2.7941,-2.9499,-3.048,-3.1055,-3.1157,-3.119,-3.119,-2.772,-2.8423,-2.89,0.0,0.0,-3.2014,-3.3847,-3.6758,-3.8809,-3.8642,-4.2038,-4.4005,-4.312,-4.232,-4.1424,-4.0147,-3.9074,0.0,0.0,0.0,0.0,-3.4289,-3.3146,-3.1263,-2.8413,-2.787,-2.6748,-2.5,-2.4506,-2.4227,-2.4279,-2.4163,-2.4456,-2.5025,-2.5134,-2.5549,-2.6165,-2.7041,0.0,-2.761,-2.744,-2.732,-2.723,-2.723,-2.723,-2.7171,-2.6752,-2.6512,-2.6482,-2.6901,-2.6782,-2.6452,-2.6542,-2.6602,-2.6602,-2.6722,-2.7141,-2.758,-2.749,-2.752,-2.758,-2.746,-2.752,-2.755,-2.729,-2.6811,-2.6393,-2.6273,-2.5285,-2.4433,-2.4552,0.0,0.0,0.0,0.0,0.0,0.0,0.0,0.0,0.0,0.0,0.0,0.0,0.0,0.0,0.0,0.0,0.0,0.0,0.0,0.0,0.0,-2.2643,0.0,0.0,0.0,-2.7773,-2.8761,-2.8803,-2.8789,-2.8789,-2.8789,-2.8349,-2.7638,-2.7638,-2.7266,-2.6691,-2.6691,-2.7131,-2.7941,-2.9499,-3.0176,-3.0378,-3.0987,-3.119,-3.119,-2.9352,0.0,-3.0382,0.0,0.0,0.0,0.0,-3.8792,0.0,-3.8585,-4.0,-4.0944,-4.056,-4.0603,-4.0379,-3.9448,-3.8588,-3.7703,-3.6684,-3.5802,-3.4566,-3.304,-3.2304,-3.0877,-2.8549,-2.772,-2.6949,-2.6231,-2.5,-2.4504,-2.4695,-2.4339,-2.4183,-2.4221,-2.4221,-2.4815,0.0,0.0,0.0,-2.701,-2.701,-2.7049,-2.71,-2.7458,-2.761,-2.758,-2.72,-2.7111,-2.7081,-2.7081,-2.7081,-2.7111,-2.7111,-2.7111,-2.7111,-2.7111,-2.732,-2.755,-2.7171,-2.737,-2.755,-2.7141,-2.737,-2.752,-2.7141,-2.6811,-2.6602,-2.6602,-2.5824,-2.5136,-2.5136,-2.4328,0.0,0.0,0.0,0.0,0.0,0.0,0.0,0.0,0.0,0.0,0.0,0.0,0.0,0.0,0.0,0.0,0.0,0.0,0.0,0.0,0.0,0.0,0.0,0.0,0.0,-2.8109,-2.8781,-2.912,-2.912,-2.9421,-2.9161,-2.8416,-2.8416,-2.8213,-2.7909,-2.8315,-2.8687,-2.9127,-3.0243,-3.0683,-3.0717,-3.1055,-3.119,-3.119,-3.1085,-3.1562,0.0,0.0,-3.4801,0.0,-3.6885,-3.9257,-4.0331,-3.8463,-3.8262,-3.8236,-3.8363,-3.9047,-3.9234,-3.8495,-3.7776,-3.6784,-3.5389,-3.4809,-3.3718,-3.1818,-3.1584,-3.0719,-2.895,-2.7971,-2.7468,0.0,-2.579,-2.5001,-2.5058,-2.4467,-2.3929,-2.3502,0.0,0.0,0.0,0.0,-2.553,-2.6549,-2.658,-2.6543,-2.6483,-2.7068,-2.7321,-2.7357,-2.7203,-2.7255,-2.7268,-2.6763,-2.7041,-2.761,-2.761,-2.761,-2.761,-2.761,-2.761,-2.747,-2.6931,-2.7171,-2.744,-2.6931,-2.72,-2.749,-2.6931,-2.6692,-2.6632,-2.6782,-2.6153,-2.5525,-2.5226,-2.4866,0.0,0.0,0.0,0.0,0.0,0.0,0.0,0.0,0.0,0.0,0.0,0.0,0.0,0.0,0.0,-1.975,-1.9899,-2.0408,0.0,0.0,0.0,-2.4428,-2.4829,0.0,-2.7391,0.0,-2.8767,-2.9255,-2.9255,-2.9849,-2.9753,-2.9046,-2.9191,-2.9127,-2.9059,-2.9803,-3.0108,-3.0176,-3.092,-3.119,-3.119,-3.119,-3.119,-3.119,0.0,0.0,0.0,0.0,0.0,0.0,-3.6508,-3.7962,-3.9242,-3.9537,-4.0572,-4.0928,-3.9858,-3.8863,-3.7838,-3.6811,-3.5683,-3.493,-3.4809,-3.412,-3.3541,-3.2883,-3.2279,-3.0983,-2.895,-2.8348,-2.7591,0.0,-2.5904,-2.5325,0.0,-2.4732,-2.4707,0.0,0.0,0.0,0.0,-2.6478,-2.6836,-2.6951,-2.6955,-2.6682,-2.6213,-2.6327,-2.644,-2.6496,-2.5851,-2.6068,-2.6602,-2.6544,-2.699,-2.761,-2.761,-2.761,-2.761,-2.761,-2.761,-2.761,-2.755,-2.758,-2.761,-2.755,-2.758,-2.761,-2.755,-2.7021,-2.6752,-2.74,-2.6482,-2.5226,-2.3999,-2.4238,-2.4388,0.0,0.0,0.0,0.0,0.0,0.0,-1.9779,0.0,0.0,0.0,0.0,0.0,0.0,0.0,-1.9959,-2.0587,-2.0677,-2.1306,-2.2574,0.0,-2.4013,-2.6369,-2.655,0.0,-2.9273,-2.9339,-2.9399,-2.9399,-3.0009,-2.9898,-2.9211,-2.9782,-2.96,-2.9059,-2.9803,-3.0108,-3.0176,-3.092,-3.119,-3.119,-3.119,-3.119,-3.119,0.0,0.0,0.0,0.0,0.0,0.0,0.0,-3.8442,-3.8742,-3.8293,-3.8713,-3.8658,-3.7874,-3.7335,-3.6749,-3.5955,-3.5749,-3.5208,-3.4264,-3.3897,-3.3221,-3.2114,-3.147,-3.0597,-2.9453,-2.89,-2.8222,0.0,0.0,0.0,0.0,0.0,0.0,0.0,0.0,-2.5231,-2.5268,-2.5584,-2.5709,-2.5683,-2.6153,-2.6176,-2.6022,-2.6144,-2.6271,-2.6301,-2.6155,-2.596,-2.5906,-2.6336,-2.6736,-2.7049,-2.7458,-2.761,-2.761,-2.761,-2.761,-2.761,-2.761,-2.761,-2.761,-2.761,-2.761,-2.761,-2.761,-2.74,-2.726,-2.753,-2.7141,-2.6632,-2.6093,-2.5884,-2.5585,0.0,0.0,0.0,0.0,0.0,0.0,0.0,0.0,-2.0617,0.0,0.0,0.0,0.0,0.0,0.0,-2.0677,-2.1096,0.0,-2.2694,0.0,-2.4358,-2.5405,-2.6196,-2.6957,-2.7746,-2.8497,-2.8857,-2.8857,-2.9496,-2.9599,-2.934,-2.9554,-2.9716,-2.9769,-2.9708,-2.9881,-3.0202,-3.0136,-3.0351,-3.0642,-3.0642,-3.0878,-3.119,-3.6784,0.0,-3.6734,0.0,-3.8191,-3.809,-3.8542,-3.8617,-3.8216,-3.7086,-3.6935,-3.6784,-3.6408,-3.6358,-3.6081,-3.5378,-3.5622,-3.5234,-3.3784,-3.363,-3.2916,-3.1493,-3.1035,0.0,-2.9804,-2.9227,-2.8725,-2.8348,-2.7795,0.0,0.0,0.0,0.0,0.0,-2.5385,-2.531,-2.531,-2.531,-2.531,-2.5375,-2.5884,-2.5947,-2.5803,-2.5967,-2.6061,-2.6054,-2.5825,-2.5548,-2.5351,-2.5743,-2.5851,-2.6014,-2.6707,-2.7033,-2.7261,-2.7469,-2.7521,-2.7521,-2.7573,-2.7556,-2.756,-2.7357,-2.7306,-2.7357,-2.756,-2.7408,-2.7297,-2.732,-2.734,-2.7171,-2.6782,-2.6482,-2.6093,-2.5435,0.0,0.0,0.0,0.0,0.0,0.0,-2.1186,-2.1216,-2.1006,0.0,0.0,0.0,0.0,0.0,0.0,0.0,0.0,0.0,0.0,0.0,0.0,-2.6033,-2.6692,-2.6871,-2.7814,-2.8222,-2.8271,-2.8857,-2.9353,-2.9694,-2.9502,-2.9758,-3.0272,-2.9681,-2.9629,-2.9978,-2.9585,-2.9673,-3.0021,-3.0021,-3.0309,-3.0642,-3.7764,-3.799,-3.8341,-3.9471,-3.9672,-3.9295,-3.8191,-3.8015,-3.7613,-3.6508,-3.6358,-3.6358,-3.6358,-3.6358,-3.5931,-3.4826,-3.4726,-3.4248,-3.3169,-3.3068,-3.2566,0.0,0.0,-3.0884,-2.9804,-2.9227,-2.8925,-2.8925,0.0,0.0,-2.8072,0.0,-2.7268,-2.7243,-2.676,-2.6508,-2.6508,-2.6508,-2.6508,-2.6508,-2.6508,-2.6156,-2.5586,-2.5586,-2.573,-2.5765,-2.4467,-2.451,-2.4985,-2.449,-2.4337,-2.4452,-2.5161,-2.5798,-2.641,-2.7252,-2.7417,-2.7334,-2.7472,-2.7518,-2.7408,-2.6736,-2.6496,-2.6707,-2.7408,-2.7049,-2.6533,-2.6574,-2.6602,-2.6213,-2.4896,-2.5196,-2.5405,-2.4701,0.0,0.0,0.0,0.0,0.0,0.0,-2.2263,-2.2454,-2.1754,0.0,0.0,0.0,0.0,0.0,0.0,0.0,0.0,-2.358,-2.4268,0.0,-2.5585,-2.6243,-2.6931,-2.761,-2.761,-2.761,-2.761,-2.8222,-2.9187,-3.0352,-2.9694,-2.979,-3.0352,-2.9694,-2.9406,-2.9406,-2.9406,-2.9406,-2.9406,-2.9406,-2.9406,-2.9406,-3.9094,-3.9145,-3.9145,-3.9145,-3.912,-3.8743,-3.7613,-3.7437,-3.7186,-3.6458,-3.6358,-3.6358,-3.6358,-3.6358,-3.6081,0.0,-3.4926,-3.4399,0.0,-3.2918,-3.2164,-3.1411,-3.106,-3.0532,-2.9804,-2.9603,-2.9327,-2.8925,0.0,0.0,0.0,-2.7921,-2.7846,-2.7846,-2.767,-2.7369,-2.7017,-2.7017,-2.6791,-2.6533,-2.6533,-2.6339,-2.6138,-2.5737,-2.5684,-2.5575,-2.4968,-2.4571,-2.431,-2.4315,-2.3956,-2.3595,-2.4245,-2.5229,-2.6238,-2.6524,-2.686,-2.7109,-2.7167,-2.6919,-2.6832,-2.7566,-2.7104,-2.6664,-2.7365,-2.6973,-2.6649,-2.719,-2.726,-2.7141,-2.6722,-2.6452,-2.6063,-2.5405,-2.4747,0.0,0.0,0.0,0.0,0.0,-2.2562,-2.2634,0.0,-2.2742,0.0,0.0,0.0,0.0,0.0,0.0,0.0,0.0,-2.4956,0.0,-2.6273,-2.6931,-2.74,-2.761,-2.761,-2.761,-2.761,-2.781,-2.81,-2.8511,-2.8786,-2.8922,-2.9092,-2.8904,-2.8848,-2.8748,-2.8319,-2.8693,-2.9484,-2.9484,-2.9722,-3.0064,-3.9697,-3.9521,-3.927,-3.8919,-3.8693,-3.8241,-3.7337,-3.7186,-3.6985,-3.6433,-3.6358,-3.6358,-3.6358,-3.6358,0.0,-3.5579,-3.5052,-3.45,-3.3947,-3.3043,-3.219,-3.1411,-3.1085,-3.0557,-2.9804,0.0,0.0,-2.9252,-2.9252,-2.9076,-2.8725,-2.8524,-2.8423,-2.8398,-2.8197,-2.7921,-2.757,-2.7369,-2.7092,-2.6741,-2.6609,-2.6533,-2.6483,-2.6063,-2.5912,-2.5879,-2.546,-2.5,-2.457,-2.4484,-2.4121,-2.3828,-2.418,-2.5097,-2.6028,-2.6391,-2.6668,-2.6877,-2.6965,-2.6712,-2.6651,-2.7273,-2.7088,-2.6861,-2.7315,-2.7083,-2.7006,-2.7695,-2.7683,-2.761,-2.761,-2.6841,-2.6004,-2.5345,-2.4687,-2.4088,-2.367,0.0,0.0,0.0,0.0,0.0,0.0,-2.361,0.0,0.0,0.0,0.0,0.0,0.0,0.0,-2.4552,-2.5495,0.0,-2.6602,-2.723,-2.776,-2.7949,-2.8218,-2.8338,-2.8338,-2.8338,-2.8457,-2.8697,-2.8876,-2.9056,-2.9236,-2.9034,-2.8958,-2.8869,-2.8514,-2.8837,-2.9531,-2.9531,-2.9755,-3.0105,-3.9647,-3.922,0.0,0.0,-3.8316,0.0,-3.7211,-3.7136,-3.6935,-3.6433,-3.6358,-3.6358,-3.6358,-3.6358,-3.6132,-3.5579,0.0,0.0,0.0,-3.3395,-3.2591,-3.1486,-3.1411,-3.0909,-2.988,-2.9804,-2.9804,-2.9804,-2.9804,-2.9804,-2.9779,-2.9252,-2.8976,-2.8976,-2.8448,-2.8197,-2.8122,-2.762,-2.7344,-2.7243,-2.6785,-2.6559,-2.6533,-2.6533,-2.6533,-2.6458,-2.5812,-2.5586,-2.5511,-2.4983,-2.4833,-2.4833,-2.4858,-2.5209,-2.5785,-2.6544,-2.6763,-2.6699,-2.6854,-2.6907,-2.6755,-2.6197,-2.6627,-2.7203,-2.7207,-2.72,-2.7397,-2.8083,-2.7881,-2.7527,-2.7548,-2.6445,-2.5371,-2.4716,-2.4014,-2.361,-2.361,0.0,0.0,0.0,0.0,0.0,0.0,-2.4268,-2.4388,0.0,0.0,0.0,0.0,0.0,-2.5465,-2.4672,-2.5944,-2.6632,-2.6722,-2.735,-2.7979,-2.8667,-2.9295,-2.9594,-2.9594,-2.9594,-2.9894,-3.0402,-2.9894,-2.9953,-3.0402,-2.9864,-2.9624,-2.9594,-2.9594,-2.9594,-2.9654,-2.9654,-2.9654,-2.9654,0.0,0.0,-3.8592,-3.7739,-3.7462,-3.7186,-3.6634,-3.6558,-3.6508,-3.6383,-3.6358,-3.6358,-3.6358,-3.6358,-3.6132,-3.5579,-3.5052,-3.4675,-3.4525,-3.3621,-3.2767,-3.2039,-3.1612,-3.1085,-3.0432,-3.0005,-2.9804,-2.9804,-2.9804,-2.9804,-2.9804,-2.9654,-2.9578,-2.9578,-2.9453,-2.9151,-2.8725,-2.8599,-2.8047,-2.7268,-2.7143,-2.6841,-2.6533,-2.6533,-2.6533,-2.6458,-2.5812,-2.5586,-2.5511,-2.4983,-2.4833,-2.4883,-2.5285,-2.5485,-2.5652,-2.5851,-2.6222,-2.6578,-2.6578,-2.6279,-2.6116,-2.7078,-2.7099,-2.6961,-2.7023,-2.6625,-2.6451,-2.7183,-2.7223,-2.7002,-2.661,-2.5887,-2.5185,-2.4626,-2.3997,-2.361,-2.361,-2.361,0.0,0.0,-2.4343,-2.4567,-2.5076,-2.4837,-2.4986,0.0,0.0,0.0,0.0,-2.7171,-2.7111,-2.5435,-2.6153,-2.7081,-2.8128,-2.8278,-2.8697,-2.9355,-2.9505,-2.9594,-2.9594,-2.9594,-2.9654,-2.9834,-3.0133,-3.0103,-2.9834,-3.0163,-3.0013,-2.9594,-2.9594,-2.9864,-3.0283,-3.0283,-3.0283,-3.0283,-3.9295,-3.8818,-3.8291,-3.7663,-3.7136,-3.6709,-3.6408,-3.6358,-3.6358,-3.6358,-3.6358,-3.6358,-3.6358,-3.6358,-3.6232,-3.5956,-3.5177,-3.4625,-3.4349,-3.3545,-3.2692,-3.1863,-3.1537,-3.1035,-3.0256,-2.9955,-2.9804,-2.9804,-2.9804,-2.9804,-2.9804,-2.9804,-2.9804,-2.9804,-2.9804,-2.9628,-2.9302,-2.9051,-2.8574,-2.7996,-2.7494,-2.7243,-2.7193,-2.6942,-2.6841,-2.6791,-2.6465,-2.6364,-2.6314,-2.6038,-2.6113,-2.6364,-2.6666,-2.6741,-2.6741,-2.6741,-2.6615,-2.6533,-2.6533,-2.6239,-2.624,-2.7392,-2.7378,-2.7129,-2.7273,-2.7013,-2.676,-2.7202,-2.7115,-2.7033,-2.7006,-2.5828,-2.4859,-2.4855,-2.3673,-2.2935,-2.3493,-2.3363,0.0,-2.4492,-2.4582,-2.497,-2.5974,-2.6004,-2.6153,-2.6572,0.0,0.0,-2.6632,-2.8158,-2.8278,-2.6572,-2.744,-2.8308,-2.9056,-2.9325,-2.9654,-3.0013,-3.0313,-3.0462,-3.0462,-3.0462,-3.0462,-3.0492,-3.0821,-3.0791,-3.0492,-3.0821,-3.0761,-3.0462,-3.0462,-3.0672,-3.0971,-3.0971,-3.0971,-3.0971,-3.9597,-3.8793,-3.809,-3.7914,-3.7111,-3.6458,-3.6383,-3.6358,-3.6358,-3.6358,-3.6358,-3.6358,-3.6358,-3.6358,-3.6332,-3.6232,-3.5303,-3.4525,-3.4048,-3.342,-3.2641,-3.1687,-3.1486,-3.0959,-3.0055,-2.988,-2.9804,-2.9804,-2.9804,-2.9804,-2.9804,-2.9804,-2.9804,-2.9804,-2.9804,-2.9804,-2.9754,-2.9277,-2.9001,-2.885,-2.7921,-2.777,-2.8047,-2.7595,-2.7394,-2.7394,-2.7394,-2.7394,-2.7394,-2.7394,-2.772,-2.8097,-2.8097,-2.8097,-2.8097,-2.8097,-2.7444,-2.6716,-2.6716,-2.6716,-2.6898,-2.7598,-2.7575,-2.7455,-2.7624,-2.768,-2.7639,-2.7628,-2.7307,-2.7189,-2.7542,-2.5895,-2.464,-2.5036,-2.342,-2.2461,-2.3407,0.0,-2.3397,-2.4608,-2.4802,-2.5444,-2.6901,-2.747,-2.756,-2.72,-2.8577,-2.8786,0.0,-2.8786,-2.9205,-2.8038,-2.9026,-2.9624,-2.9714,-3.0342,-3.0672,-3.0672,-3.127,-3.1482,-3.1482,-3.1482,-3.1482,-3.1482,-3.1482,-3.1482,-3.1482,-3.1482,-3.1482,-3.1482,-3.1482,-3.1482,-3.1482,-3.1482,-3.1482,-3.1482,-3.9094,-3.8868,-3.8442,-3.7487,-3.7161,-3.6885,-3.6433,-3.6358,-3.6358,-3.6358,-3.6358,-3.6358,-3.6358,-3.6358,-3.6182,-3.5705,-3.5077,-3.4675,-3.46,-3.3646,-3.2993,-3.2817,-3.1888,-3.1311,-3.116,-3.0256,-2.9804,-2.9804,-2.9804,-2.9804,-2.9804,-2.9804,-2.9804,-2.9804,-2.9804,-2.9804,-2.9779,-2.9704,-2.9377,-2.8925,-2.875,-2.8448,-2.8097,-2.8021,-2.7971,-2.7971,-2.7971,-2.7971,-2.7971,-2.7971,-2.8021,-2.8097,-2.8097,-2.8097,-2.8097,-2.8097,-2.7971,-2.7846,-2.7846,-2.7846,-2.7846,-2.799,-2.7994,-2.7918,-2.748,-2.7708,-2.7936,-2.7455,-2.7272,-2.7028,-2.6136,-2.5325,-2.4675,-2.4346,-2.4166,-2.3936,-2.3509,0.0,-2.4509,-2.5371,-2.5872,-2.7003,-2.8943,-2.8697,-2.8846,-2.9834,-2.9175,-2.9086,-2.9864,-3.0193,-3.0253,-3.0073,-2.9744,-2.9834,-3.0372,-3.1031,-3.1302,-3.139,-3.1422,-3.1482,-3.1482,-3.1482,-3.1482,-3.1482,-3.1482,-3.1482,-3.1482,-3.1482,-3.1482,-3.1482,-3.1482,-3.1482,-3.1482,-3.1482,-3.1482,-3.1482,-3.9371,-3.9069,-3.8693,-3.8191,-3.7588,-3.7111,-3.6835,-3.6558,-3.6358,-3.6358,-3.6358,-3.6358,-3.6358,-3.6358,-3.6257,-3.6006,-3.5203,-3.4726,-3.4726,-3.3696,-3.2943,-3.2616,-3.1813,-3.111,-3.0532,-3.0055,-2.9804,-2.9804,-2.9804,-2.9804,-2.9804,-2.9804,-2.9804,-2.9804,-2.9804,-2.9804,-2.9804,-2.9804,-2.9628,-2.9377,-2.9051,-2.8976,-2.8976,-2.8674,-2.8549,-2.8549,-2.8549,-2.8549,-2.8549,-2.8549,-2.875,-2.9026,-2.9026,-2.9026,-2.9026,-2.9026,-2.8574,-2.8097,-2.8097,-2.8097,-2.8097,-2.8097,-2.8323,-2.8398,-2.7846,-2.8147,-2.8398,-2.7846,-2.772,-2.7469,-2.6666,-2.5597,-2.4972,-2.537,-2.3997,0.0,0.0,-2.4231,-2.4336,-2.563,-2.646,-2.7614,-2.9256,-2.9584,-2.9864,-3.0462,-3.0313,-3.0283,-3.0492,-3.0851,-3.1061,-3.1061,-3.0791,-3.0761,-3.1061,-3.139,-3.1482,-3.1482,-3.1482,-3.1482,-3.1482,-3.1482,-3.1482,-3.1482,-3.1482,-3.1482,-3.1482,-3.1482,-3.1482,-3.1482,-3.1482,-3.1482,-3.1482,-3.1482,-3.1482,-3.1482,-3.9697,-3.9346,-3.8969,-3.8718,-3.8065,-3.7437,-3.7061,-3.6734,-3.6508,-3.6383,-3.6358,-3.6358,-3.6358,-3.6358,-3.6358,-3.6358,-3.5479,-3.4851,-3.4726,-3.3796,-3.3018,-3.2441,-3.1763,-3.0959,-3.0005,-2.9854,-2.9804,-2.9804,-2.9804,-2.9804,-2.9804,-2.9804,-2.9804,-2.9804,-2.9804,-2.9804,-2.9804,-2.9804,-2.9804,-2.9754,-2.9302,-2.9402,-2.9754,-2.9302,-2.9126,-2.9126,-2.9126,-2.9126,-2.9126,-2.9126,-2.9428,-2.9804,-2.9804,-2.9804,-2.9804,-2.9804,-2.9176,-2.8499,-2.8499,-2.8499,-2.8499,-2.8499,-2.8825,-2.8976,-2.8423,-2.8725,-2.8976,-2.8423,-2.8298,-2.8122,-2.757,-2.6339,-2.5684,-2.6465,0.0,0.0,0.0,-2.4945,-2.4792,-2.6072,-2.6909,-2.785,-2.9137,-2.9959,-3.0448,-3.0448,-3.1096,-3.13,-3.0761,-3.124,-3.1482,-3.1482,-3.1482,-3.1482,-3.1482,-3.1482,-3.1541,-3.1691,-3.1691,-3.1839,-3.1988,-3.1839,-3.1691,-3.1691,-3.1541,-3.1482,-3.1482,-3.1482,-3.1482,-3.1482,-3.1482,-3.1482,-3.1482,-3.1482,-3.1482,-3.1482,-3.9697,-3.9672,-3.9295,-3.8241,-3.8442,-3.8216,-3.6659,-3.6835,-3.6935,-3.6433,-3.6358,-3.6358,-3.6358,-3.6358,-3.6358,-3.6358,-3.583,-3.5278,-3.4751,-3.4173,-3.3596,-3.3043,-3.1964,-3.1135,-3.0557,-3.0055,-2.9804,-2.9804,-2.9804,-2.9804,-2.9804,-2.9804,-2.9804,-2.9804,-2.9804,-2.9804,-2.9804,-2.9804,-2.9804,-2.9804,-2.9754,-2.9754,-2.9779,-2.9754,-2.9729,-2.9729,-2.9729,-2.9729,-2.9729,-2.9729,-2.9754,-2.9804,-2.9804,-2.9804,-2.9804,-2.9804,-2.9729,-2.9654,-2.9654,-2.9654,-2.9654,-2.9654,-2.9704,-2.9578,-2.9001,-2.9302,-2.9578,-2.8976,-2.8875,-2.8699,-2.8147,-2.7519,-2.7012,-2.6533,0.0,0.0,-2.5775,-2.6543,-2.7196,-2.685,-2.7338,-2.8007,-2.8919,-2.9818,-3.0332,-3.0332,-3.1073,-3.1452,-3.1392,-3.1452,-3.1482,-3.1482,-3.1482,-3.1482,-3.1482,-3.1482,-3.1839,-3.2437,-3.2437,-3.2766,-3.3335,-3.2706,-3.2437,-3.2407,-3.175,-3.1482,-3.1482,-3.1482,-3.1482,-3.1482,-3.1482,-3.1482,-3.1482,-3.1482,-3.1482,-3.1482,-3.9245,-3.9446,-3.9446,-3.8668,-3.8442,-3.8015,-3.701,-3.6759,-3.6609,-3.6383,-3.6358,-3.6358,-3.6358,-3.6358,-3.6358,-3.6358,-3.5855,-3.5454,-3.5253,-3.4399,-3.3495,-3.2591,-3.2139,-3.1486,-3.0633,-3.0407,-3.0131,-2.9804,-2.9804,-2.9804,-2.9804,-2.9804,-2.9804,-2.9804,-2.9804,-2.9804,-2.9804,-2.9804,-2.9804,-2.9804,-2.9804,-2.9804,-2.9804,-2.9804,-2.9804,-2.9804,-2.9804,-2.9804,-2.9804,-2.9804,-2.9804,-2.9804,-2.9804,-2.9804,-2.9804,-2.9804,-2.9804,-2.9804,-2.9804,-2.9804,-2.9804,-2.9804,-2.9804,-2.9729,-2.9528,-2.9628,-2.9729,-2.9503,-2.9478,-2.9302,-2.8725,-2.8172,-2.7846,-2.7971,0.0,-2.7062,-2.7544,-2.7525,-2.748,-2.7608,-2.7936,-2.8437,-2.9147,-3.0199,-3.0989,-3.1392,-3.1839,-3.2138,-3.2138,-3.1749,-3.1482,-3.1482,-3.1928,-3.1958,-3.1482,-3.1482,-3.1869,-3.2527,-3.2527,-3.2856,-3.3484,-3.3245,-3.3125,-3.3095,-3.2856,-3.2736,-3.2736,-3.2736,-3.2527,-3.2138,-3.2138,-3.1898,-3.1511,-3.1988,-3.1898,-3.1541,-3.9195,-3.9421,-3.9471,-3.8718,-3.8417,-3.7965,-3.7061,-3.6759,-3.6558,-3.6383,-3.6358,-3.6358,-3.6358,-3.6358,-3.6358,-3.6358,-3.6006,-3.573,-3.5554,-3.45,-3.347,-3.2516,-3.2315,-3.1863,-3.1135,-3.0959,-3.0583,-3.0055,-3.0206,-3.0131,-2.9804,-2.998,-2.9955,-2.9804,-2.9804,-2.9804,-2.9804,-2.9804,-2.9804,-2.9804,-2.9804,-2.9804,-2.9804,-2.9804,-2.9804,-2.9804,-2.9804,-2.9804,-2.9804,-2.9804,-2.9804,-2.9829,-3.0005,-3.0055,-3.0005,-2.9854,-2.9804,-2.9804,-2.9804,-2.9804,-2.9804,-2.9804,-2.9804,-2.9804,-2.9804,-2.9804,-2.9804,-2.9804,-2.9804,-2.9679,-2.9277,-2.89,-2.8699,-2.89,-2.8122,-2.7846,-2.88,-2.8423,-2.8147,-2.8348,-2.8477,-2.8724,-2.8957,-3.001,-3.0788,-3.1236,-3.1753,-3.2109,-3.2169,-3.1988,-3.1839,-3.1839,-3.2287,-3.2407,-3.2138,-3.2138,-3.2377,-3.2826,-3.3036,-3.3484,-3.4113,-3.3903,-3.3814,-3.3784,-3.3574,-3.3484,-3.3484,-3.3484,-3.3215,-3.2826,-3.2826,-3.2407,-3.1898,-3.2347,-3.2108,-3.1541,-3.9697,-3.9697,-3.9346,-3.8191,-3.8492,-3.8291,-3.6609,-3.6835,-3.6985,-3.6433,-3.6358,-3.6358,-3.6358,-3.6358,-3.6358,-3.6358,-3.6358,-3.6132,-3.5579,-3.45,-3.3646,-3.3119,-3.2541,-3.2215,-3.2215,-3.1687,-3.1135,-3.0633,-3.1135,-3.0859,-2.9804,-3.0357,-3.0331,-2.9804,-2.9804,-2.9804,-2.9804,-2.9804,-2.9804,-2.9804,-2.9804,-2.9804,-2.9804,-2.9804,-2.9804,-2.9804,-2.9804,-2.9804,-2.9804,-2.9804,-2.9804,-2.988,-3.0432,-3.0608,-3.0507,-2.9955,-2.9804,-2.9804,-2.9804,-2.9804,-2.9804,-2.9804,-2.9804,-2.9804,-2.9804,-2.9804,-2.9804,-2.9804,-2.9804,-2.9804,-2.9804,-2.9804,-2.9603,-2.9026,-2.9428,-2.9603,-2.9026,-2.9428,-2.9578,-2.9001,-2.8925,-2.8725,-2.8172,-2.8938,-2.9408,-2.9408,-3.0443,-3.1206,-3.1453,-3.2109,-3.2467,-3.2467,-3.2467,-3.2826,-3.3484,-3.3484,-3.3484,-3.3514,-3.4173,-3.4831,-3.5489,-3.4801,-3.4472,-3.4442,-3.3784,-3.3514,-3.3514,-3.3514,-3.3514,-3.3514,-3.3514,-3.3095,-3.2527,-3.2527,-3.2108,-3.1482,-3.9195,-3.912,-3.8868,-3.814,-3.7839,-3.7387,-3.6483,-3.6508,-3.6558,-3.6383,-3.6358,-3.6358,-3.6358,-3.6358,-3.6358,-3.6358,-3.6358,-3.6132,-3.5579,-3.45,-3.3822,-3.3671,-3.3119,-3.2616,-3.2215,-3.2039,-3.1712,-3.116,-3.1311,-3.1235,-3.0909,-3.1085,-3.106,-3.0909,-3.0532,-3.0357,-3.0357,-2.9955,-2.9804,-2.9804,-2.9804,-2.9804,-2.9804,-2.9804,-2.9804,-2.9854,-3.0231,-3.0131,-2.9854,-3.0231,-3.0105,-2.988,-3.0432,-3.0859,-3.106,-3.0532,-3.0357,-3.0281,-2.9905,-2.9804,-2.9804,-2.9804,-2.9804,-2.9804,-2.9804,-2.9804,-2.9804,-2.9804,-2.9804,-2.9804,-2.9804,-2.9804,-2.9729,-2.9553,-2.9679,-2.9729,-2.9553,-2.9679,-2.9729,-2.9553,-2.9176,-2.9026,-2.9277,-2.9766,-3.0243,-3.0639,-3.117,-3.131,-3.089,-3.103,-3.1208,-3.1208,-3.1603,-3.2074,-3.2489,-3.3146,-3.3724,-3.4173,-3.4382,-3.4831,-3.5489,-3.528,-3.519,-3.519,-3.4981,-3.4891,-3.4891,-3.4891,-3.4622,-3.4173,-3.4173,-3.3484,-3.2587,-3.3036,-3.2497,-3.1541,-3.927,-3.9195,-3.9019,-3.8442,-3.7889,-3.7337,-3.6784,-3.6508,-3.6358,-3.6358,-3.6358,-3.6358,-3.6358,-3.6358,-3.6358,-3.6358,-3.6358,-3.6132,-3.5579,-3.4726,-3.4123,-3.3897,-3.337,-3.2918,-3.2566,-3.2566,-3.229,-3.1712,-3.1938,-3.1838,-3.1386,-3.1612,-3.1587,-3.1386,-3.106,-3.0934,-3.0909,-3.0557,-3.0432,-3.0407,-3.0206,-3.0131,-3.0131,-3.0131,-2.998,-2.9854,-3.0407,-3.0407,-3.0181,-3.0507,-3.0683,-3.0758,-3.0884,-3.1286,-3.1612,-3.1085,-3.0934,-3.0809,-3.0256,-3.0131,-3.0055,-2.9854,-2.9804,-2.9804,-2.9804,-2.9804,-2.9804,-2.9804,-2.9804,-2.9804,-2.9804,-2.9804,-2.9804,-2.9804,-2.9804,-2.9804,-2.9804,-2.9804,-2.9804,-2.9804,-2.9478,-2.9402,-2.9754,-2.9985,-3.0329,-3.075,-3.1227,-3.1194,-3.065,-3.0815,-3.1021,-3.1021,-3.1378,-3.1833,-3.2263,-3.3245,-3.3976,-3.4472,-3.4741,-3.51,-3.5519,-3.5519,-3.5519,-3.5519,-3.5519,-3.5519,-3.5519,-3.5519,-3.51,-3.4472,-3.4472,-3.3664,-3.2557,-3.2976,-3.2437,-3.1541,-3.9697,-3.9647,-3.9471,-3.8969,-3.8391,-3.7814,-3.7262,-3.6759,-3.6408,-3.6358,-3.6358,-3.6358,-3.6358,-3.6358,-3.6358,-3.6358,-3.6307,-3.6107,-3.5655,-3.5052,-3.45,-3.3997,-3.3445,-3.3144,-3.3144,-3.3093,-3.2817,-3.229,-3.2867,-3.2591,-3.1537,-3.2114,-3.2064,-3.1537,-3.1486,-3.1461,-3.1461,-3.1411,-3.1386,-3.1361,-3.0884,-3.0683,-3.0683,-3.0683,-3.0382,-3.0005,-3.0557,-3.0733,-3.0683,-3.0683,-3.1361,-3.2114,-3.1612,-3.1838,-3.219,-3.1637,-3.1461,-3.1361,-3.0834,-3.0683,-3.0557,-3.0055,-2.9905,-2.9854,-2.9804,-2.9804,-2.9804,-2.9804,-2.9804,-2.9804,-2.9804,-2.9804,-2.9804,-2.9804,-2.9804,-2.9804,-2.9804,-2.9804,-2.9804,-2.9804,-2.9804,-2.9804,-2.9804,-2.9804,-2.9936,-3.0163,-3.0755,-3.0937,-3.0541,-3.1073,-3.1443,-3.1443,-3.1443,-3.176,-3.2451,-3.3325,-3.4022,-3.4435,-3.5126,-3.5519,-3.5519,-3.5519,-3.5519,-3.5519,-3.5519,-3.5519,-3.5519,-3.5519,-3.51,-3.4472,-3.4472,-3.3694,-3.2587,-3.2527,-3.2138,-3.1541,-3.9697,-3.9346,-3.9019,-3.8894,-3.8391,-3.7814,-3.7262,-3.7086,-3.686,-3.6408,-3.6358,-3.6358,-3.6358,-3.6358,-3.6358,-3.6358,-3.5981,-3.5855,-3.6157,-3.5253,-3.4675,-3.455,-3.4022,-3.3721,-3.3721,-3.3294,-3.3018,-3.2893,-3.3445,-3.337,-3.2717,-3.3269,-3.3244,-3.2692,-3.224,-3.2039,-3.2014,-3.1562,-3.1386,-3.1386,-3.126,-3.121,-3.121,-3.121,-3.1135,-3.111,-3.1662,-3.1587,-3.121,-3.121,-3.1662,-3.219,-3.2064,-3.2416,-3.2767,-3.2215,-3.2039,-3.1913,-3.1361,-3.121,-3.1185,-3.106,-3.0733,-3.0331,-2.9905,-2.9804,-2.9804,-2.9804,-2.9804,-2.9804,-2.9804,-2.9804,-2.9804,-2.9804,-2.9804,-2.9804,-2.9804,-2.9804,-2.9804,-2.9804,-2.9804,-2.9804,-2.9804,-2.9804,-2.9806,-2.991,-3.0012,-3.0037,-3.001,-3.0112,-3.0163,-3.0163,-3.0163,-3.0566,-3.1462,-3.1683,-3.2609,-3.4109,-3.5073,-3.5519,-3.5519,-3.5519,-3.5519,-3.5519,-3.5519,-3.5519,-3.5519,-3.5519,-3.51,-3.4472,-3.4472,-3.3993,-3.3215,-3.2706,-3.2437,-3.2228,-3.9697,-3.9471,-3.927,-3.927,-3.8793,-3.8316,-3.804,-3.7764,-3.7387,-3.6835,-3.6759,-3.6659,-3.6383,-3.6358,-3.6358,-3.6358,-3.6107,-3.6056,-3.6332,-3.5579,-3.5127,-3.5127,-3.4575,-3.4299,-3.4299,-3.3997,-3.3746,-3.347,-3.3495,-3.3345,-3.3093,-3.337,-3.3345,-3.3068,-3.2767,-3.2616,-3.2591,-3.2315,-3.219,-3.2164,-3.1888,-3.1788,-3.1788,-3.1788,-3.1612,-3.1461,-3.2014,-3.2014,-3.1838,-3.2089,-3.239,-3.2616,-3.2616,-3.2842,-3.3018,-3.2717,-3.2616,-3.2491,-3.1938,-3.1788,-3.1712,-3.1461,-3.1185,-3.0909,-3.0633,-3.0156,-2.9854,-3.0131,-2.998,-2.9804,-2.9804,-2.9804,-2.9804,-2.9804,-2.9804,-2.9804,-2.9804,-2.9804,-2.9804,-2.9804,-2.9804,-2.9804,-2.9804,-2.9804,-2.9804,-2.9804,-2.9804,-2.9804,-2.9804,-2.9804,-2.9804,-2.9804,-2.9804,-3.0088,-3.057,-3.097,-3.1683,-3.2664,-3.4109,-3.5067,-3.5519,-3.5519,-3.5519,-3.5519,-3.5519,-3.5519,-3.5519,-3.5519,-3.4921,-3.3993,-3.3993,-3.3425,-3.2527,-3.2168,-3.2048,-3.1988,-3.9697,-3.9697,-3.9697,-3.9697,-3.932,-3.8969,-3.8894,-3.8467,-3.7965,-3.7387,-3.7236,-3.701,-3.6558,-3.6408,-3.6358,-3.6358,-3.6358,-3.6358,-3.6358,-3.5931,-3.5655,-3.5554,-3.5102,-3.4876,-3.4876,-3.4776,-3.45,-3.4048,-3.3571,-3.3319,-3.3219,-3.3219,-3.3169,-3.3068,-3.3068,-3.3068,-3.3068,-3.3068,-3.3068,-3.3043,-3.2541,-3.2365,-3.2365,-3.2365,-3.2089,-3.1738,-3.219,-3.2365,-3.2441,-3.2918,-3.3068,-3.3068,-3.3068,-3.3068,-3.3093,-3.3194,-3.3144,-3.2993,-3.2616,-3.2441,-3.2265,-3.1788,-3.1612,-3.1562,-3.1662,-3.0834,-3.0156,-3.0532,-3.0256,-2.993,-2.993,-2.993,-2.993,-2.993,-2.993,-2.9905,-2.9804,-2.9804,-2.9804,-2.9804,-2.9804,-2.9804,-2.9804,-2.9804,-2.9804,-2.9804,-2.9804,-2.9804,-2.9804,-2.9804,-2.9804,-2.9804,-2.9804,-2.9804,-2.9804,-3.0545,-3.1044,-3.1241,-3.2806,-3.4041,-3.5001,-3.5133,-3.5133,-3.5001,-3.5133,-3.5133,-3.5001,-3.5198,-3.4426,-3.33,-3.3423,-3.2766,-3.1631,-3.1631,-3.1571,-3.1482,-3.9697,-3.9697,-3.9697,-3.9697,-3.9647,-3.9421,-3.8944,-3.8793,-3.8542,-3.7965,-3.7487,-3.7161,-3.7086,-3.6659,-3.6358,-3.6358,-3.6358,-3.6358,-3.6358,-3.6282,-3.6031,-3.5554,-3.5479,-3.5429,-3.5429,-3.4977,-3.4675,-3.46,-3.4525,-3.4248,-3.3796,-3.3796,-3.3545,-3.3068,-3.3068,-3.3068,-3.3068,-3.3068,-3.3068,-3.3068,-3.2993,-3.2968,-3.2968,-3.2968,-3.2918,-3.2867,-3.2943,-3.2968,-3.2968,-3.3043,-3.3068,-3.3068,-3.3068,-3.3068,-3.3169,-3.3646,-3.3445,-3.3169,-3.3571,-3.3319,-3.2943,-3.2867,-3.2466,-3.224,-3.2742,-3.1989,-3.106,-3.0683,-3.0557,-3.0507,-3.0507,-3.0507,-3.0507,-3.0507,-3.0507,-3.0331,-2.9854,-2.9804,-2.9804,-2.9804,-2.9804,-2.9804,-2.9804,-2.9804,-2.9804,-2.9804,-2.9804,-2.9804,-2.9804,-2.9804,-2.9804,-2.9804,-2.9804,-2.9804,-2.9804,-2.9934,-3.0419,-3.1167,-3.1462,-3.2119,-3.3045,-3.3808,-3.3739,-3.3045,-3.3808,-3.3739,-3.3045,-3.3876,-3.3425,-3.2362,-3.3146,-3.3036,-3.2377,-3.2377,-3.2018,-3.1571,-3.9697,-3.9697,-3.9697,-3.9697,-3.9697,-3.9622,-3.9371,-3.932,-3.912,-3.8567,-3.8266,-3.799,-3.7688,-3.7161,-3.6709,-3.6383,-3.6358,-3.6358,-3.6358,-3.6358,-3.6257,-3.6006,-3.6006,-3.6006,-3.6006,-3.5755,-3.5629,-3.5629,-3.47,-3.4148,-3.3897,-3.3596,-3.3319,-3.3093,-3.3395,-3.337,-3.3119,-3.3746,-3.3646,-3.3093,-3.342,-3.3345,-3.3068,-3.3068,-3.3269,-3.3571,-3.3897,-3.3997,-3.3997,-3.3997,-3.3796,-3.3596,-3.3897,-3.3796,-3.3646,-3.4198,-3.4198,-3.4048,-3.4299,-3.4173,-3.3922,-3.3621,-3.3345,-3.3144,-3.3093,-3.2692,-3.219,-3.1612,-3.126,-3.106,-3.106,-3.106,-3.0959,-3.0658,-3.0608,-3.0432,-2.988,-2.9804,-2.9804,-2.9804,-2.9804,-2.9804,-2.9804,-2.9804,-2.9804,-2.9804,-2.9804,-2.9804,-2.9804,-2.9804,-2.9804,-2.9804,-2.9804,-2.9804,-2.9804,-2.9804,-3.0011,-3.0419,-3.0419,-3.1193,-3.2593,-3.3017,-3.2947,-3.2593,-3.3017,-3.2947,-3.2566,-3.2723,-3.2213,-3.1368,-3.1482,-3.1637,-3.1836,-3.2318,-3.2557,-3.2617]},{"header":{"parameterUnit":"m.s-1","parameterCategory":1,"la1":30.6,"la2":28.766,"lo1":-90.7593,"lo2":-88.6598,"dy":0.0162,"dx":0.0183,"nx":116,"ny":114,"refTime":"2024-04-30T12:00:00:Z","depth":0,"parameterNumber":3,"parameterNumberName":"V-component_of_WINDS"},"data":[0.0,0.0,0.0,0.0,0.0,0.0,0.0,0.0,0.0,0.0,0.0,0.0,0.0,0.0,0.0,0.0,0.0,0.0,0.0,0.0,0.0,0.0,0.0,0.0,0.0,0.0,0.0,0.0,0.0,0.0,0.0,0.0,0.0,0.0,0.0,0.0,0.0,0.0,0.0,0.0,0.0,0.0,0.0,0.0,0.0,0.0,0.0,0.0,0.0,0.0,0.0,0.0,0.0,0.0,0.0,0.0,0.0,0.0,0.0,0.0,0.0,0.0,0.0,0.0,0.0,0.0,0.0,0.0,0.0,0.0,0.0,0.0,0.0,0.0,0.0,0.0,0.0,0.0,0.0,0.0,0.0,0.0,0.0,0.0,0.0,0.0,0.0,0.0,0.0,0.0,0.0,0.0,0.0,0.0,0.0,0.0,0.0,0.0,0.0,0.0,0.0,0.0,0.0,0.0,0.0,0.0,0.0,0.0,0.0,0.0,0.0,0.0,0.0,0.0,0.0,0.0,0.0,0.0,0.0,0.0,0.0,0.0,0.0,0.0,0.0,0.0,0.0,0.0,0.0,0.0,0.0,0.0,0.0,0.0,0.0,0.0,0.0,0.0,0.0,0.0,0.0,0.0,0.0,0.0,0.0,0.0,0.0,0.0,0.0,0.0,0.0,0.0,0.0,0.0,0.0,0.0,0.0,0.0,0.0,0.0,0.0,0.0,0.0,0.0,0.0,0.0,0.0,0.0,0.0,0.0,0.0,0.0,0.0,0.0,0.0,0.0,0.0,0.0,0.0,0.0,0.0,0.0,0.0,0.0,0.0,0.0,0.0,0.0,0.0,0.0,0.0,0.0,0.0,0.0,0.0,0.0,0.0,0.0,0.0,0.0,0.0,0.0,0.0,0.0,0.0,0.0,0.0,0.0,0.0,0.0,0.0,0.0,0.0,0.0,0.0,0.0,0.0,0.0,0.0,0.0,0.0,0.0,0.0,0.0,0.0,0.0,0.0,0.0,0.0,0.0,0.0,0.0,0.0,0.0,0.0,0.0,0.0,0.0,0.0,0.0,0.0,0.0,0.0,0.0,0.0,0.0,0.0,0.0,0.0,0.0,0.0,0.0,0.0,0.0,0.0,0.0,0.0,0.0,0.0,0.0,0.0,0.0,0.0,0.0,0.0,0.0,0.0,0.0,0.0,0.0,0.0,0.0,0.0,0.0,0.0,0.0,0.0,0.0,0.0,0.0,0.0,0.0,0.0,0.0,0.0,0.0,0.0,0.0,0.0,0.0,0.0,0.0,0.0,0.0,0.0,0.0,0.0,0.0,0.0,0.0,0.0,0.0,0.0,0.0,0.0,0.0,0.0,0.0,0.0,0.0,0.0,0.0,0.0,0.0,0.0,0.0,0.0,0.0,0.0,0.0,0.0,0.0,0.0,0.0,0.0,0.0,0.0,0.0,0.0,0.0,0.0,0.0,0.0,0.0,0.0,0.0,0.0,0.0,0.0,0.0,0.0,0.0,0.0,0.0,0.0,0.0,0.0,0.0,0.0,0.0,0.0,0.0,0.0,0.0,0.0,0.0,0.0,0.0,0.0,0.0,0.0,0.0,0.0,0.0,0.0,0.0,0.0,0.0,0.0,0.0,0.0,0.0,0.0,0.0,0.0,0.0,0.0,0.0,0.0,0.0,0.0,0.0,0.0,0.0,0.0,0.0,0.0,0.0,0.0,0.0,0.0,0.0,0.0,0.0,0.0,0.0,0.0,0.0,0.0,0.0,0.0,0.0,0.0,0.0,0.0,0.0,0.0,0.0,0.0,0.0,0.0,0.0,0.0,0.0,0.0,0.0,0.0,0.0,0.0,0.0,0.0,0.0,0.0,0.0,0.0,0.0,0.0,0.0,0.0,0.0,0.0,0.0,0.0,0.0,0.0,0.0,0.0,0.0,0.0,0.0,0.0,0.0,0.0,0.0,0.0,0.0,0.0,0.0,0.0,0.0,0.0,0.0,0.0,0.0,0.0,0.0,0.0,0.0,0.0,0.0,0.0,0.0,0.0,0.0,0.0,0.0,0.0,0.0,0.0,0.0,0.0,0.0,0.0,0.0,0.0,0.0,0.0,0.0,0.0,0.0,0.0,0.0,0.0,0.0,0.0,0.0,0.0,0.0,0.0,0.0,0.0,0.0,0.0,0.0,0.0,0.0,0.0,0.0,0.0,0.0,0.0,0.0,0.0,0.0,0.0,0.0,0.0,0.0,0.0,0.0,0.0,0.0,0.0,0.0,0.0,0.0,0.0,0.0,0.0,0.0,0.0,0.0,0.0,0.0,0.0,0.0,0.0,0.0,0.0,0.0,0.0,0.0,0.0,0.0,0.0,0.0,0.0,0.0,0.0,0.0,0.0,0.0,0.0,0.0,0.0,0.0,0.0,0.0,0.0,0.0,0.0,0.0,0.0,0.0,0.0,0.0,0.0,0.0,0.0,0.0,0.0,0.0,0.0,0.0,0.0,0.0,0.0,0.0,0.0,0.0,0.0,0.0,0.0,0.0,0.0,0.0,0.0,0.0,0.0,0.0,0.0,0.0,0.0,0.0,0.0,0.0,0.0,0.0,0.0,0.0,0.0,0.0,0.0,0.0,0.0,0.0,0.0,0.0,0.0,0.0,0.0,0.0,0.0,0.0,0.0,0.0,0.0,0.0,0.0,0.0,0.0,0.0,0.0,0.0,0.0,0.0,0.0,0.0,0.0,0.0,0.0,0.0,0.0,0.0,0.0,0.0,0.0,0.0,0.0,0.0,0.0,0.0,0.0,0.0,0.0,0.0,0.0,0.0,0.0,0.0,0.0,0.0,0.0,0.0,0.0,0.0,0.0,0.0,0.0,0.0,0.0,0.0,0.0,0.0,0.0,0.0,0.0,0.0,0.0,0.0,0.0,0.0,0.0,0.0,0.0,0.0,0.0,0.0,0.0,0.0,0.0,0.0,0.0,0.0,0.0,0.0,0.0,0.0,0.0,0.0,0.0,0.0,0.0,0.0,0.0,0.0,0.0,0.0,0.0,0.0,0.0,0.0,0.0,0.0,0.0,0.0,0.0,0.0,0.0,0.0,0.0,0.0,0.0,0.0,0.0,0.0,0.0,0.0,0.0,0.0,0.0,0.0,0.0,0.0,0.0,0.0,0.0,0.0,0.0,0.0,0.0,0.0,0.0,0.0,0.0,0.0,0.0,0.0,0.0,0.0,0.0,0.0,0.0,0.0,0.0,0.0,0.0,0.0,0.0,0.0,0.0,0.0,0.0,0.0,0.0,0.0,0.0,0.0,0.0,0.0,0.0,0.0,0.0,0.0,0.0,0.0,0.0,0.0,0.0,0.0,0.0,0.0,0.0,0.0,0.0,0.0,0.0,0.0,0.0,0.0,0.0,0.0,0.0,0.0,0.0,0.0,0.0,0.0,0.0,0.0,0.0,0.0,0.0,0.0,0.0,0.0,0.0,0.0,0.0,0.0,0.0,0.0,0.0,0.0,0.0,0.0,0.0,0.0,0.0,0.0,0.0,0.0,0.0,0.0,0.0,0.0,0.0,0.0,0.0,0.0,0.0,0.0,0.0,0.0,0.0,0.0,0.0,0.0,0.0,0.0,0.0,0.0,0.0,0.0,0.0,0.0,0.0,0.0,0.0,0.0,0.0,0.0,0.0,0.0,0.0,0.0,0.0,0.0,0.0,0.0,0.0,0.0,0.0,0.0,0.0,0.0,0.0,0.0,0.0,0.0,0.0,0.0,0.0,0.0,0.0,0.0,0.0,0.0,0.0,0.0,0.0,0.0,0.0,0.0,0.0,0.0,0.0,0.0,0.0,0.0,0.0,0.0,0.0,0.0,0.0,0.0,0.0,0.0,0.0,0.0,0.0,0.0,0.0,0.0,0.0,0.0,0.0,0.0,0.0,0.0,0.0,0.0,0.0,0.0,0.0,0.0,0.0,0.0,0.0,0.0,0.0,0.0,0.0,0.0,0.0,0.0,0.0,0.0,0.0,0.0,0.0,0.0,0.0,0.0,0.0,0.0,0.0,0.0,0.0,0.0,0.0,0.0,0.0,0.0,0.0,0.0,0.0,0.0,0.0,0.0,0.0,0.0,0.0,0.0,0.0,0.0,0.0,0.0,0.0,0.0,0.0,0.0,0.0,0.0,0.0,0.0,0.0,0.0,0.0,0.0,0.0,0.0,0.0,0.0,0.0,0.0,0.0,0.0,0.0,0.0,0.0,0.0,0.0,0.0,0.0,0.0,0.0,0.0,0.0,0.0,0.0,0.0,0.0,0.0,0.0,0.0,0.0,0.0,0.0,0.0,0.0,0.0,0.0,0.0,0.0,0.0,0.0,0.0,0.0,0.0,0.0,0.0,0.0,0.0,0.0,0.0,0.0,0.0,0.0,0.0,0.0,0.0,0.0,0.0,0.0,0.0,0.0,0.0,0.0,0.0,0.0,0.0,0.0,0.0,0.0,0.0,0.0,0.0,0.0,0.0,0.0,0.0,0.0,0.0,0.0,0.0,0.0,0.0,0.0,0.0,0.0,0.0,0.0,0.0,0.0,0.0,0.0,0.0,0.0,0.0,0.0,0.0,0.0,0.0,0.0,0.0,0.0,0.0,0.0,0.0,0.0,0.0,0.0,0.0,0.0,0.0,0.0,0.0,0.0,0.0,0.0,0.0,0.0,0.0,0.0,0.0,0.0,0.0,0.0,0.0,0.0,0.0,0.0,0.0,0.0,0.0,0.0,0.0,0.0,0.0,0.0,0.0,0.0,0.0,0.0,0.0,0.0,0.0,0.0,0.0,0.0,0.0,0.0,0.0,0.0,0.0,0.0,0.0,0.0,0.0,0.0,0.0,0.0,0.0,0.0,0.0,0.0,0.0,0.0,0.0,0.0,0.0,0.0,0.0,0.0,0.0,0.0,0.0,0.0,0.0,0.0,0.0,0.0,0.0,0.0,0.0,0.0,0.0,0.0,0.0,0.0,0.0,0.0,0.0,0.0,0.0,0.0,0.0,0.0,0.0,0.0,0.0,0.0,0.0,0.0,0.0,0.0,0.0,0.0,0.0,0.0,0.0,0.0,0.0,0.0,0.0,0.0,0.0,0.0,0.0,0.0,0.0,0.0,0.0,0.0,0.0,0.0,0.0,0.0,0.0,0.0,0.0,0.0,0.0,0.0,0.0,0.0,0.0,0.0,0.0,0.0,0.0,0.0,0.0,0.0,0.0,0.0,0.0,0.0,0.0,0.0,0.0,0.0,0.0,0.0,0.0,0.0,0.0,0.0,0.0,0.0,0.0,0.0,0.0,0.0,0.0,0.0,0.0,0.0,0.0,0.0,0.0,0.0,0.0,0.0,0.0,0.0,0.0,0.0,0.0,0.0,0.0,0.0,0.0,0.0,0.0,0.0,0.0,0.0,0.0,0.0,0.0,0.0,0.0,0.0,0.0,0.0,0.0,0.0,0.0,0.0,0.0,0.0,0.0,0.0,0.0,0.0,0.0,0.0,0.0,0.0,0.0,0.0,0.0,0.0,0.0,0.0,0.0,0.0,0.0,0.0,0.0,0.0,0.0,0.0,0.0,0.0,0.0,0.0,0.0,0.0,0.0,0.0,0.0,0.0,0.0,0.0,0.0,0.0,0.0,0.0,0.0,0.0,0.0,0.0,0.0,0.0,0.0,0.0,0.0,0.0,0.0,0.0,0.0,0.0,0.0,0.0,0.0,0.0,0.0,0.0,0.0,0.0,0.0,0.0,0.0,0.0,0.0,0.0,0.0,0.0,0.0,0.0,0.0,0.0,0.0,0.0,0.0,0.0,0.0,0.0,0.0,0.0,0.0,0.0,0.0,0.0,0.0,0.0,0.0,0.0,0.0,0.0,0.0,0.0,0.0,0.0,0.0,0.0,0.0,0.0,0.0,0.0,0.0,0.0,0.0,0.0,0.0,0.0,0.0,0.0,0.0,0.0,0.0,0.0,0.0,0.0,0.0,0.0,0.0,0.0,0.0,0.0,0.0,0.0,0.0,0.0,0.0,0.0,0.0,0.0,0.0,0.0,0.0,0.0,0.0,0.0,0.0,0.0,0.0,-0.3785,0.0,0.0,0.0,0.0,0.0,0.0,0.0,0.0,0.0,0.0,0.0,0.0,0.0,0.0,0.0,0.0,0.0,0.0,0.0,0.0,0.0,0.0,0.0,0.0,1.0898,1.0842,1.0605,1.0781,1.094,1.094,0.0,0.0,0.0,0.0,0.0,1.1606,1.1606,1.1704,1.1875,1.1875,1.2207,1.2852,1.3731,1.3999,1.3836,0.0,0.0,0.0,0.0,0.0,0.0,0.0,0.0,0.0,0.0,0.0,0.0,0.0,0.0,0.0,0.0,0.0,0.0,0.0,0.0,0.0,0.0,0.0,0.0,0.0,0.0,0.0,0.0,0.0,0.0,0.0,0.0,0.0,0.0,0.0,0.0,0.0,0.0,0.0,0.0,0.0,0.0,0.0,0.0,0.0,0.0,0.0,0.0,0.0,0.0,0.0,0.0,0.0,0.0,0.0,0.0,0.0,0.0,0.0,0.0,0.0,0.0,0.0,0.0,0.0,0.0,0.0,0.0,0.0,0.0,0.0,-0.386,0.0,0.0,0.0,0.0,0.0,0.0,0.0,0.0,0.0,0.0,0.0,0.0,0.0,0.0,0.0,0.0,0.0,0.0,0.0,0.0,0.0,1.1547,1.1074,1.139,1.1449,1.1055,1.139,1.1606,1.1606,1.1606,0.0,0.0,1.1724,1.1763,1.1841,1.1841,1.1973,1.2344,1.2511,1.3105,1.3945,1.4043,1.3848,1.3469,1.3751,0.0,0.0,0.0,0.0,0.0,0.0,0.0,0.0,0.0,0.0,0.0,0.0,0.0,0.0,0.0,0.0,0.0,0.0,0.0,0.0,0.0,0.0,0.0,0.0,0.0,0.0,0.0,0.0,0.0,0.0,0.0,0.0,0.0,0.0,0.0,0.0,0.0,0.0,0.0,0.0,0.0,0.0,0.0,0.0,0.0,0.0,0.0,0.0,0.0,0.0,0.0,0.0,0.0,0.0,0.0,0.0,0.0,0.0,0.0,0.0,0.0,0.0,0.0,-0.0615,-0.0976,-0.1132,-0.2426,-0.2999,-0.2973,-0.3634,-0.3912,-0.4022,0.0,0.0,0.0,0.0,0.0,0.0,0.0,0.0,0.0,0.0,0.0,0.0,0.0,0.0,0.0,0.0,0.0,0.0,0.0,0.0,1.1973,1.1567,1.1567,1.1587,1.1528,1.1567,1.1606,1.1606,1.1606,1.1783,1.2129,1.2148,1.2324,1.2695,1.2715,1.2734,1.2793,1.3906,1.4883,1.5742,1.6113,1.6074,1.5625,1.4727,1.4235,1.4064,0.0,0.0,0.0,0.0,0.0,0.0,0.0,0.0,0.0,0.0,0.0,0.0,0.0,0.0,0.0,0.0,0.0,0.0,0.0,0.0,0.0,0.0,0.0,0.0,0.0,0.0,0.0,0.0,0.0,0.0,0.0,0.0,0.0,0.0,0.0,0.0,0.0,0.0,0.0,0.0,0.0,0.4308,0.3663,0.0,0.0,0.0,0.0,0.0,0.0,0.0,0.0,0.0,0.0,0.0,0.0,0.0,0.0,0.0,0.0,0.0,0.0,-0.0109,-0.0498,-0.1104,-0.1329,-0.1713,-0.2367,-0.3135,0.0,-0.4022,-0.4022,0.0,0.0,0.0,0.0,0.0,0.0,0.0,0.0,0.0,0.0,0.0,0.0,0.0,0.0,0.0,0.0,0.0,0.0,0.0,0.0,0.0,1.2578,1.2812,1.239,1.3449,1.3723,1.2715,1.3105,1.3145,1.2617,1.2598,1.2695,1.2871,1.2891,1.334,1.4297,1.5605,1.668,1.7519,1.7715,1.7578,1.7129,1.6656,1.5543,1.4102,1.4021,0.0,0.0,0.0,0.0,0.0,0.0,0.0,0.0,0.0,0.0,0.0,0.0,0.0,0.0,0.0,0.0,0.0,0.0,0.0,0.0,0.0,0.0,0.0,0.0,0.0,0.0,0.0,0.0,0.0,0.0,0.0,0.0,0.0,0.0,0.0,0.0,0.0,0.0,0.0,0.5056,0.4333,0.3677,0.3649,0.3697,0.0,0.0,0.0,0.0,0.0,0.0,0.0,0.0,0.0,0.0,0.0,0.0,0.0,0.0,0.0,0.0,-0.0412,-0.0761,-0.1093,-0.1521,-0.1869,-0.2237,-0.2581,-0.2819,-0.3071,-0.3928,-0.4267,-0.426,0.0,0.0,0.0,0.0,0.0,-0.3914,0.0,0.0,0.0,0.0,0.0,0.0,0.0,0.0,0.0,0.0,0.0,0.0,1.2686,1.3717,1.4297,1.3906,1.5117,1.541,1.4238,1.4238,1.3926,1.3086,1.293,1.2891,1.2891,1.3301,1.4375,1.6074,1.7383,1.8477,1.9297,1.9414,1.9238,1.8828,1.8711,1.7285,1.4941,1.4492,1.4004,1.3496,0.0,0.0,0.0,0.0,0.0,0.0,0.0,0.0,0.0,0.0,0.0,0.0,0.0,0.0,0.0,0.0,0.0,0.0,0.0,0.0,0.0,0.0,0.0,0.0,0.0,0.0,0.0,0.0,0.0,0.0,0.0,0.0,0.0,0.0,0.0,0.0,0.0,0.507,0.4493,0.374,0.3799,0.3784,0.0,0.0,0.0,0.0,0.0,0.0,0.0287,0.0112,0.0,0.0,0.0,0.0,0.0,0.0,0.0,0.0,-0.0554,-0.0791,-0.0834,-0.1401,-0.164,-0.1662,-0.1824,-0.1944,-0.2012,-0.3575,-0.4236,-0.4229,-0.4234,-0.43,-0.4287,-0.408,-0.4026,-0.402,0.0,0.0,0.0,0.0,0.0,0.0,0.0,0.0,0.0,0.0,0.0,1.3184,1.3893,1.4824,1.5664,1.6465,1.5859,1.5586,1.5978,1.4082,1.3125,1.3457,1.3086,1.2891,1.2891,1.4453,1.6133,1.7871,1.916,2.0234,2.1113,2.1523,2.1484,2.1055,2.0625,1.9238,1.7109,1.5449,1.4961,1.5137,1.3535,0.0,0.0,0.0,0.0,0.0,0.0,0.0,0.0,0.0,0.0,0.0,0.0,0.0,0.0,0.0,0.0,0.0,0.0,0.0,0.0,0.0,0.0,0.0,0.0,0.0,0.0,0.0,0.0,0.0,0.0,0.0,0.0,0.0,0.0,0.0,0.0,0.0,0.0,0.3893,0.4043,0.0,0.0,0.0,0.0,0.2054,0.1437,0.1069,0.104,0.0368,0.0,0.0,0.0,0.0,0.0,0.0,0.0,0.0,-0.0062,-0.0062,-0.0062,-0.0123,-0.0123,-0.0123,-0.0834,-0.1135,-0.1283,-0.2805,-0.3456,-0.3511,-0.4229,-0.4505,-0.4436,-0.4287,-0.418,-0.4167,0.0,0.0,0.0,1.2968,1.2891,1.2891,1.2891,1.2891,1.2891,1.2891,1.3359,1.4004,1.4863,1.623,1.7324,1.7842,1.793,1.7617,1.6953,1.541,1.4453,1.4336,1.3652,1.3672,1.4492,1.6191,1.7793,1.9238,2.082,2.1894,2.2461,2.2617,2.2461,2.2051,2.1894,2.1094,1.9707,1.7422,1.6055,1.5312,1.416,1.3535,0.0,0.0,0.0,0.0,0.0,0.0,0.0,0.0,0.0,0.0,0.0,0.0,0.0,0.0,0.0,0.0,0.0,0.0,0.0,0.0,0.0,0.0,0.0,0.0,0.0,0.0,0.0,0.0,0.0,0.0,0.0,0.0,0.0,0.0,0.0,0.0,0.0,0.4292,0.4572,0.0,0.4138,0.3285,0.2606,0.2323,0.1116,0.038,0.0391,0.0131,0.0,0.0,0.0,0.0,0.0,0.0,0.0,0.0,0.0,0.0,0.0,0.0,0.0,0.0,-0.0251,-0.0377,-0.0505,-0.2012,-0.2879,-0.339,-0.4219,-0.4519,-0.4512,-0.4402,-0.4389,-0.4375,0.0,1.3647,0.0,1.2968,1.2891,1.2891,1.2891,1.2891,1.2891,1.2891,1.375,1.4746,1.5742,1.7539,1.8945,1.9668,1.9453,1.8867,1.7871,1.6172,1.4941,1.4375,1.4219,1.4746,1.6055,1.791,1.9434,2.0586,2.2012,2.2871,2.3144,2.3144,2.2988,2.2715,2.2578,2.2207,2.1543,1.9531,1.7832,1.6387,1.5098,1.457,1.4492,0.0,0.0,0.0,0.0,0.0,0.0,0.0,0.0,0.0,0.0,0.0,0.0,0.0,0.0,0.0,0.0,0.0,0.0,0.0,0.0,0.0,0.0,0.0,0.0,0.0,0.0,0.0,0.0,0.0,0.0,0.0,0.0,0.0,0.0,0.0,0.4976,0.4752,0.504,0.508,0.4634,0.3648,0.2819,0.2246,0.1193,0.0403,0.0,0.0,0.0,0.0,0.0,0.0,0.0,0.0,0.0,0.0,0.0,0.0,0.0,0.0,0.0,0.0,0.0,0.0,-0.0064,-0.1325,-0.2109,-0.2685,-0.4008,-0.4346,-0.4125,-0.4408,-0.4519,-0.4519,0.0,1.3334,1.2891,1.2891,1.2891,1.2891,1.2891,1.2891,1.2891,1.2891,1.4023,1.5332,1.6621,1.8672,2.0469,2.1797,2.0273,1.9082,1.8691,1.6191,1.4394,1.3633,1.4805,1.6094,1.7461,1.9531,2.1016,2.1894,2.2734,2.3144,2.3144,2.3144,2.3144,2.3125,2.2715,2.2539,2.248,2.1621,2.0293,1.8504,1.6387,1.6016,1.6523,0.0,0.0,0.0,0.0,0.0,0.0,0.0,0.0,0.0,0.0,0.0,0.0,0.0,0.0,0.0,0.0,0.0,0.0,0.0,0.0,0.0,0.0,0.0,0.0,0.0,0.0,0.0,0.0,0.0,0.0,0.0,0.0,0.0,0.6121,0.5896,0.5663,0.5205,0.5433,0.5229,0.4159,0.4175,0.3542,0.1753,0.1614,0.1137,0.0073,0.0,0.0,0.0,0.0,0.0,0.0,0.0,0.0,0.0,0.0,0.0,0.0,0.0,0.0,0.0,0.0,0.0,-0.0064,-0.0784,-0.1058,-0.1288,-0.3564,-0.3959,-0.34,-0.4181,-0.4519,-0.4519,1.3909,1.3334,1.2891,1.2891,1.2891,1.2891,1.2891,1.2891,1.2891,1.2891,1.4531,1.6211,1.7519,1.9297,2.0918,2.2227,1.9902,1.8574,1.9082,1.582,1.4316,1.5312,1.6309,1.7734,1.9648,2.0586,2.1465,2.2344,2.2871,2.3144,2.3144,2.3144,2.3144,2.3125,2.3027,2.2969,2.293,2.2383,2.1894,2.123,1.875,1.7519,1.7031,0.0,0.0,0.0,0.0,0.0,0.0,0.0,0.0,0.0,0.0,0.0,0.0,0.0,0.0,0.0,0.0,0.0,0.0,0.0,0.0,0.0,0.0,0.0,0.0,0.0,0.0,0.0,0.0,0.0,0.0,0.0,0.7471,0.722,0.6262,0.6045,0.5874,0.5779,0.6146,0.6237,0.5815,0.5214,0.4246,0.2801,0.2104,0.1261,0.0081,0.0,0.0,0.0,0.0,0.0,0.0,0.0,0.0,0.0,0.0,0.0,0.0,0.0,0.0,0.0,0.0,0.0,-0.0062,-0.0796,-0.078,-0.0529,-0.2785,-0.3529,-0.34,-0.4181,-0.4519,-0.4519,1.3867,1.3172,1.2676,1.2852,1.2891,1.2891,1.2891,1.2891,1.2891,1.2891,1.4802,1.6484,1.7617,1.9121,2.041,2.1348,1.9336,1.791,1.7676,1.5566,1.5078,1.6797,1.8066,1.9473,2.1074,2.1894,2.2637,2.3301,2.3555,2.3574,2.3418,2.3418,2.332,2.3144,2.3144,2.3144,2.3125,2.2871,2.2773,2.2637,2.0937,1.9863,1.9082,1.7402,1.6719,1.6543,1.5508,1.5371,1.5508,1.4336,0.0,0.0,0.0,0.0,0.0,0.0,0.0,0.0,0.0,0.0,0.0,0.0,0.0,0.0,0.0,0.0,0.0,0.0,0.0,0.0,0.0,0.0,0.0,0.0,0.8154,0.7853,0.7146,0.6522,0.6173,0.6295,0.6539,0.6668,0.6573,0.6072,0.5252,0.4018,0.3036,0.1902,0.0839,0.0249,0.0,0.0,0.0,0.0,0.0,0.0,0.0,0.0,0.0,0.0,0.0,0.0,0.0,0.0,0.0,0.0,-0.0062,-0.0494,-0.036,0.0,0.0,0.0,0.0,0.0,-0.4519,-0.4519,1.3964,1.3057,1.2422,1.2812,1.2891,1.2891,1.2891,1.2891,1.2891,1.2891,1.4687,1.6289,1.707,1.8301,1.9258,1.9727,1.8516,1.707,1.5508,1.5547,1.6406,1.8144,1.9824,2.1152,2.209,2.3262,2.4043,2.4414,2.4414,2.4238,2.3867,2.3867,2.3652,2.3281,2.3281,2.3281,2.3281,2.3242,2.3203,2.3184,2.2754,2.2305,2.166,1.9629,1.9062,1.9199,1.7969,1.709,1.6468,1.584,0.0,0.0,0.0,0.0,0.0,0.0,0.0,0.0,0.0,0.0,0.0,0.0,0.0,0.0,0.0,0.0,0.0,0.0,0.0,0.0,0.0,0.0,0.0,0.0,0.901,0.8429,0.8125,0.7118,0.6491,0.6702,0.6742,0.6749,0.6749,0.6749,0.6325,0.5225,0.413,0.3037,0.1859,0.0,0.0,0.0,0.0,0.0,0.0,0.0,0.0,0.0,0.0,0.0,0.0,0.0,0.0,0.0,0.0,0.0,0.0,0.0,-0.006,-0.0338,-0.2345,-0.2785,-0.2508,-0.3849,-0.4408,0.0,1.4563,1.3585,1.2773,1.2871,1.2891,1.2891,1.2891,1.2891,1.2891,1.2891,1.4434,1.5605,1.5781,1.6973,1.8047,1.8809,1.707,1.5762,1.543,1.6406,1.7754,1.9473,2.0879,2.2187,2.3398,2.3984,2.4336,2.4414,2.4414,2.4375,2.4297,2.4297,2.4258,2.416,2.416,2.416,2.4141,2.3809,2.3672,2.3633,2.3184,2.2559,2.1758,2.0625,2.0019,1.9668,1.873,1.873,1.8945,1.75,1.7109,1.6992,1.5508,1.4512,0.0,0.0,0.0,0.0,0.0,0.0,0.0,0.0,0.0,0.0,0.0,0.0,0.0,0.0,0.0,0.0,0.0,0.0,0.0,0.9102,0.8602,0.8102,0.7591,0.7458,0.7231,0.6919,0.6987,0.7054,0.7054,0.7054,0.6524,0.5468,0.5117,0.4058,0.1945,0.1566,0.0,0.0,0.0,0.0,0.0,0.0,0.0,0.0,0.0,0.0,0.0,0.0,0.0,0.0,0.0,0.0,0.0,0.0,-0.037,-0.0928,-0.1355,-0.2174,-0.3123,-0.34,-0.3959,-0.4519,1.5173,1.3995,1.2977,1.2929,1.2891,1.2891,1.2891,1.2891,1.2891,1.2891,1.3984,1.4863,1.5078,1.5684,1.625,1.668,1.5332,1.5,1.6309,1.7402,1.8965,2.1113,2.2266,2.334,2.4414,2.4629,2.4863,2.5078,2.5078,2.4961,2.4746,2.4746,2.4629,2.4414,2.4199,2.4219,2.4375,2.373,2.3594,2.375,2.332,2.2891,2.2461,2.2031,2.1582,2.1133,2.0488,2.0254,2.0039,1.8769,1.8184,1.7793,1.6484,1.5469,1.4648,0.0,0.0,0.0,0.0,0.0,0.0,0.0,0.0,0.0,0.0,0.0,0.0,0.0,0.0,1.0688,1.1129,0.0,1.1117,1.0589,0.9902,0.9244,0.8444,0.7916,0.7516,0.7292,0.7326,0.7339,0.7265,0.7258,0.6956,0.6346,0.5714,0.491,0.3664,0.2478,0.149,0.0955,0.0341,0.0,0.0,0.0,0.0,0.0,0.0,0.0,0.0,0.0,0.0,0.0,0.0,0.0,0.0,0.0,-0.024,-0.0573,-0.0563,-0.1453,-0.2785,-0.3178,-0.3566,-0.3959,1.562,1.4496,1.3464,1.313,1.2968,1.2891,1.2891,1.2891,1.2891,1.2891,1.3535,1.4121,1.4394,1.4492,1.4531,1.4531,1.4141,1.4922,1.7344,1.8301,1.9883,2.2402,2.3418,2.4238,2.4922,2.5117,2.5371,2.5742,2.5742,2.5547,2.5195,2.5195,2.5019,2.4668,2.4316,2.4355,2.4609,2.375,2.3633,2.3984,2.3379,2.3184,2.3242,2.3086,2.2812,2.2461,2.2031,2.1211,2.0215,1.9609,1.873,1.7773,1.7168,1.6367,1.5488,1.4531,1.3965,0.0,0.0,0.0,0.0,0.0,0.0,0.0,0.0,1.0367,1.0648,1.1009,1.1303,1.1717,1.2438,1.2698,1.2679,1.2295,1.1373,1.0332,0.952,0.843,0.7685,0.7685,0.7638,0.7543,0.7387,0.7373,0.7305,0.7149,0.6251,0.5625,0.5447,0.3575,0.2396,0.2181,0.0957,0.0345,0.0339,0.0083,0.0,0.0,0.0,0.0,0.0,0.0,0.0,0.0,0.0,0.0,0.0,0.0,0.0,0.0,0.0,-0.073,-0.1857,-0.2683,-0.3123,-0.34,1.5732,1.544,1.497,1.3909,1.3238,1.2891,1.2891,1.2891,1.2891,1.2891,1.3281,1.3457,1.3125,1.3418,1.3652,1.3652,1.459,1.5977,1.7812,1.875,2.0195,2.2422,2.3691,2.4394,2.4492,2.5254,2.5684,2.5742,2.5742,2.5703,2.5664,2.5664,2.5625,2.5586,2.5547,2.5547,2.5527,2.4648,2.4531,2.4824,2.3613,2.3379,2.3633,2.2871,2.2559,2.2461,2.2031,2.082,1.9473,1.9746,1.8789,1.75,1.7773,1.7285,1.6328,1.5078,1.4394,1.3806,1.2657,1.161,1.0781,1.0629,1.0586,1.0897,0.0,1.2037,1.2225,1.2799,1.3146,1.3373,1.348,1.3084,1.2826,1.2878,1.1198,0.9905,0.9909,0.8773,0.7991,0.7991,0.776,0.7543,0.7387,0.7373,0.7305,0.7149,0.6959,0.6428,0.5447,0.5181,0.455,0.3469,0.2187,0.156,0.1641,0.0508,0.0,0.0,0.0,0.0,0.0,0.0,0.0,0.0,0.0,0.0,0.0,0.0,0.0,0.0,0.0,-0.0114,-0.035,-0.1073,-0.2174,-0.3345,1.6194,1.582,1.5443,1.4949,1.4329,1.3836,1.3457,1.3409,1.3286,1.2968,1.3027,1.3066,1.2891,1.3047,1.3145,1.3145,1.3848,1.5254,1.75,1.8437,2.0215,2.3125,2.4004,2.4668,2.5176,2.5547,2.5742,2.5742,2.5742,2.5742,2.5742,2.5742,2.5742,2.5723,2.5469,2.5488,2.5684,2.4785,2.4531,2.4609,2.3828,2.332,2.2988,2.2383,2.1523,2.0605,2.043,1.9746,0.0,1.8262,1.7754,1.7363,1.7285,1.6836,1.6133,1.5098,1.4648,1.4198,1.2852,1.2462,1.2193,1.1324,1.1583,1.2225,1.2719,1.2959,1.32,1.3627,1.3948,1.4255,1.4603,1.4487,1.3902,0.0,1.1642,1.0484,0.9008,0.8252,0.7875,0.7794,0.7678,0.7577,0.7509,0.7421,0.7305,0.7149,0.7143,0.6871,0.6428,0.5802,0.5181,0.4643,0.3452,0.282,0.282,0.1643,0.1023,0.1013,0.0329,0.0,0.0,0.0,0.0,0.0,0.0,0.0,0.0,0.0,0.0,0.0,0.0,0.0,-0.006,-0.0816,-0.1513,-0.2062,1.6522,1.6151,1.5864,1.5864,1.5466,1.4926,1.419,1.3909,1.3647,1.319,1.3017,1.2891,1.2891,1.2891,1.2891,1.2891,1.3262,1.4453,1.6699,1.7754,1.9668,2.2773,2.3535,2.4297,2.5176,2.543,2.5547,2.5547,2.5547,2.5547,2.5547,2.5547,2.5547,2.5547,2.5352,2.543,2.5684,2.4785,2.4492,2.4531,2.375,2.3066,2.2422,2.1523,2.0234,1.8926,1.8926,1.834,1.7461,1.6641,1.6426,1.6465,1.6387,1.6152,1.5762,1.5137,1.4658,1.4105,1.3042,1.2981,1.296,1.2134,1.2692,1.3494,1.3654,1.3921,1.4215,1.4509,1.4736,1.499,1.5337,1.5391,1.4807,1.3171,1.2234,1.1191,0.9304,0.8293,0.7773,0.7672,0.755,0.7489,0.7536,0.7434,0.7305,0.7149,0.7143,0.7156,0.7204,0.6358,0.5908,0.5947,0.4746,0.4105,0.4105,0.2903,0.2265,0.2252,0.1086,0.0491,0.0487,0.0155,0.0,0.0,0.0,0.0,0.0,0.0,0.0,0.0,0.0,0.0,-0.0063,-0.0616,-0.0919,-0.1165,1.6522,1.6479,1.6479,1.6479,1.6479,1.6064,1.4835,1.419,1.3768,1.3768,1.3238,1.2891,1.2891,1.2891,1.2891,1.2891,1.3262,1.4062,1.5391,1.6699,1.8398,2.0566,2.1894,2.2969,2.3828,2.4668,2.5098,2.5098,2.5098,2.5098,2.5098,2.5098,2.5098,2.5098,2.5527,2.5723,2.5684,2.4785,2.4668,2.4902,2.3223,2.2539,2.2285,2.0176,1.8809,1.8047,1.8047,1.6699,1.4961,1.5332,1.4902,1.4321,1.5195,1.5449,1.543,1.5391,1.4255,1.3075,1.317,1.2587,1.2136,1.2946,1.3614,1.4215,1.4776,1.5137,1.5431,1.5712,1.5778,1.5712,1.5444,1.5391,1.5404,1.5312,1.3122,1.1592,1.1726,0.9445,0.7807,0.7807,0.7421,0.721,0.0,0.7373,0.7305,0.7149,0.7143,0.7204,0.736,0.7135,0.7121,0.736,0.6048,0.5359,0.5359,0.4105,0.3534,0.3552,0.2286,0.1739,0.1698,0.0541,0.0,0.0,0.0,0.0,0.0,0.0,0.0,0.0,0.0,0.0,0.0,0.0,-0.0518,-0.1107,1.6522,1.6522,1.6522,1.6522,1.6522,1.6392,1.5976,1.5062,1.4236,1.3862,1.3286,0.0,0.0,0.0,0.0,0.0,1.3008,1.3633,1.4922,1.5937,1.7344,1.9199,2.082,2.207,2.293,2.3789,2.4355,2.4629,2.4629,2.4629,2.4629,2.4629,2.4629,2.4648,2.4785,2.4863,2.4844,2.4551,2.418,2.3711,2.2559,2.1562,2.0586,1.873,1.7305,1.6211,0.0,1.4961,1.4297,1.3867,1.373,1.3769,1.4062,1.4141,1.415,1.4185,1.4136,1.3933,1.365,1.3667,1.3895,1.4074,1.4522,1.5057,1.5444,1.5618,1.5605,1.5311,1.5097,1.4816,1.4322,1.4229,1.409,1.357,1.2939,1.2077,1.083,0.9736,0.8775,0.7636,0.7387,0.0,0.0,0.0,0.0,0.7136,0.7238,0.7319,0.7366,0.7421,0.7468,0.7522,0.7008,0.6744,0.6744,0.5484,0.4807,0.477,0.3411,0.2383,0.1662,0.1227,0.0677,0.0,0.0,0.0,0.0,0.0,0.0,0.0,0.0,0.0,0.0,0.0,-0.014,-0.0343,0.0,1.6522,1.6522,1.6522,1.6522,0.0,0.0,0.0,0.0,0.0,0.0,0.0,0.0,0.0,0.0,0.0,0.0,1.3223,1.4043,1.4902,1.5996,1.7422,1.8867,2.0019,2.0879,2.1582,2.209,2.2344,2.25,2.2578,2.2598,2.2734,2.2812,2.2832,2.3144,2.3281,2.3281,2.3105,2.2637,2.1914,2.0918,1.9805,1.8613,1.7051,1.584,0.0,1.3984,1.3691,1.3613,1.3066,1.3066,1.3301,1.3457,1.3926,1.4366,1.4023,1.4372,1.4799,1.4258,1.4446,1.4755,1.4771,1.519,1.5605,1.5792,1.5671,1.5391,1.4897,1.4482,1.4028,1.3427,1.324,1.3026,1.2831,1.2537,1.2082,1.1143,1.026,0.9272,0.8374,0.771,0.7319,0.0,0.0,0.0,0.7217,0.7366,0.7475,0.7529,0.7522,0.7563,0.7672,0.7421,0.7312,0.7373,0.6496,0.5758,0.5323,0.4413,0.3272,0.2111,0.2156,0.1599,0.0605,0.0601,0.0372,0.0,0.0,0.0,0.0,0.0,0.0,0.0,0.0,0.0,0.0,0.0,0.0,1.6522,0.0,0.0,0.0,0.0,0.0,0.0,0.0,0.0,0.0,0.0,0.0,0.0,0.0,0.0,0.0,1.2891,1.3652,1.4473,1.5273,1.6191,1.7051,1.7891,1.834,1.8594,1.8594,1.9023,1.9219,1.9238,1.9629,1.9824,1.9863,2.0703,2.1074,2.1035,2.0625,2.0176,1.9668,1.8418,1.7402,1.6523,1.5215,1.4453,1.3951,1.3184,1.2891,1.2891,1.291,1.2949,1.3047,1.3457,1.4727,1.5911,1.4899,1.5121,1.5541,1.5083,1.4769,1.4696,1.5271,1.5618,1.5805,1.5792,1.5324,1.4803,1.4496,1.3948,1.3347,1.2759,1.2438,1.2465,1.308,1.2154,1.1709,1.289,1.0935,0.9528,0.9793,0.8396,0.7448,0.0,0.0,0.0,0.7394,0.0,0.7672,0.7801,0.755,0.7536,0.7814,0.74,0.7244,0.7394,0.7231,0.6474,0.5194,0.5189,0.4494,0.3207,0.3203,0.2623,0.1666,0.1707,0.1083,0.0076,0.0076,0.0077,0.0,0.0,0.0,0.0,0.0,0.0,0.0,0.0,0.0,0.0,0.0,0.0,0.0,0.0,0.0,0.0,0.0,0.0,0.0,0.0,0.0,0.0,0.0,0.0,0.0,1.2891,1.3379,1.3769,1.3984,1.5117,1.5996,1.6543,1.7305,1.7852,1.8164,1.8281,1.834,1.834,1.8437,1.8496,1.8496,1.873,1.8828,1.8828,1.8711,1.8418,1.7949,1.6953,1.623,1.5605,1.4316,1.3769,1.3594,1.3066,1.2891,1.293,1.3242,1.3769,1.4316,1.4434,1.543,1.649,1.6315,1.6237,1.6188,1.6004,1.5573,1.5257,1.5631,1.5618,1.5444,1.5231,1.4563,1.3828,1.3307,1.2559,1.1877,1.1503,1.1557,1.1917,1.2732,1.3172,1.3322,1.3273,1.2141,1.0875,0.9914,0.8592,0.7672,0.7604,0.7658,0.0,0.0,0.7733,0.7773,0.7807,0.7848,0.7902,0.7977,0.776,0.7658,0.7699,0.7441,0.6986,0.6439,0.6331,0.5606,0.4409,0.433,0.3736,0.2712,0.2727,0.2104,0.1166,0.1166,0.0702,0.0,0.0,0.0,0.0,0.0,0.0,0.0,0.0,0.0,0.0,0.0,0.0,0.0,0.0,0.0,0.0,0.0,0.0,0.0,0.0,0.0,0.0,0.0,0.0,0.0,0.0,1.3105,1.3242,1.3242,1.3926,1.4414,1.4668,1.5156,1.543,1.5469,1.5859,1.5937,1.5762,1.6133,1.6309,1.6309,1.6504,1.6602,1.6602,1.6602,1.6348,0.0,0.0,1.4687,1.4219,1.3496,1.3242,1.3203,1.2969,1.3125,1.3496,1.3926,1.4648,1.5449,1.6016,1.709,1.8054,1.7825,1.7476,1.7201,1.6804,1.6111,1.5631,1.5792,1.5511,1.5124,1.4843,1.3881,1.2893,1.2291,1.157,1.0955,1.0661,1.0742,1.1142,1.2024,1.2692,1.3264,1.3661,1.2466,1.1296,1.0789,0.9065,0.7882,0.7801,0.7868,0.7909,0.0,0.7909,0.7909,0.7909,0.7929,0.7936,0.7936,0.7794,0.7685,0.7617,0.7455,0.7224,0.6926,0.6844,0.635,0.5583,0.5507,0.4888,0.3826,0.0,0.3203,0.227,0.2294,0.1671,0.0719,0.0735,0.0495,0.0,0.0,0.0,0.0,0.0,0.0,0.0,0.0,0.0,0.0,0.0,0.0,0.0,0.0,1.4811,1.4003,1.3909,1.3382,0.0,0.0,0.0,0.0,0.0,0.0,1.2891,1.2891,1.2891,1.2891,1.2891,1.2891,1.2695,1.2278,1.3066,1.3242,1.2891,1.3633,1.3912,1.3984,1.4375,1.4531,1.4531,1.4531,1.4316,1.3926,1.3574,1.3203,1.2891,0.0,1.2891,1.2891,1.2891,1.334,1.4062,1.4727,1.5566,1.6543,1.7793,1.9062,2.0023,1.9543,1.8915,1.8224,1.7671,1.6722,1.5818,1.5778,1.5311,1.4763,1.4429,1.3173,1.1931,1.141,1.0848,1.0381,1.0154,1.018,1.0501,1.1343,1.177,1.2492,1.3935,1.2537,1.1528,1.1889,0.9698,0.8237,0.8038,0.8038,0.8038,0.8038,0.8038,0.8038,0.8038,0.7916,0.7841,0.7841,0.7699,0.7556,0.74,0.738,0.7231,0.6959,0.6939,0.679,0.6532,0.6512,0.5946,0.4967,0.0,0.0,0.3396,0.3465,0.2849,0.1879,0.1837,0.1181,0.0254,0.0087,0.0,0.0,0.0,0.0,0.0,0.0,0.0,0.0,0.0,0.0,0.0,1.7638,1.6329,1.5084,0.0,0.0,0.0,0.0,0.0,0.0,0.0,0.0,0.0,1.2891,1.2891,1.2891,1.2891,1.2891,1.2852,1.2773,1.291,1.2949,1.2891,1.3027,1.3105,1.3105,1.3184,1.3203,1.3203,1.3203,1.3164,1.3086,1.3027,1.2949,1.2891,1.2891,0.0,0.0,1.2891,1.2969,1.3379,1.5215,1.666,1.7832,1.8769,1.9961,2.1072,2.1684,2.044,1.8863,1.9027,1.7531,1.5765,1.5524,1.4856,1.4095,1.3561,1.2104,1.09,1.0728,1.0247,0.99,1.0087,1.0514,1.1049,1.169,1.2311,1.3026,1.4269,1.3367,1.2466,1.1986,1.0583,0.9213,0.8137,0.8038,0.0,0.0,0.0,0.8038,0.8038,0.8018,0.7997,0.7997,0.7855,0.7706,0.7563,0.7434,0.7278,0.7102,0.6987,0.6898,0.6844,0.6715,0.6565,0.6374,0.6374,0.0,0.4797,0.4816,0.4159,0.3173,0.2221,0.1638,0.1384,0.0355,0.0,0.0,0.0,0.0,0.0,0.0,0.0,0.0,1.73,1.74,1.7802,1.8882,1.8288,1.7363,1.6197,1.5012,1.4376,0.0,0.0,0.0,0.0,0.0,0.0,1.3382,1.3382,1.3238,1.292,1.2891,1.2773,1.2539,0.0,1.2773,1.2539,1.2773,1.2891,1.2891,1.2891,1.2891,1.2891,1.2891,1.2891,1.2891,1.2891,1.2891,1.2891,1.2891,0.0,0.0,1.2891,1.3027,1.3437,1.4902,1.6113,1.7344,1.9316,2.0703,2.1699,2.2324,2.0829,1.8945,1.9397,1.7669,1.5765,1.5471,1.4616,1.3667,1.2906,1.149,1.0247,0.994,0.9646,0.9499,0.9633,1.014,1.0728,1.1316,1.165,1.2358,1.3854,1.304,1.2449,1.2636,1.1094,0.9706,0.9114,0.8435,0.8038,0.0,0.0,0.8038,0.8038,0.7963,0.7923,0.7923,0.778,0.7631,0.7482,0.7407,0.7292,0.7143,0.7068,0.7,0.6926,0.6851,0.6776,0.6702,0.6702,0.0,0.5954,0.6087,0.554,0.4519,0.4039,0.3432,0.2688,0.1452,0.099,0.0884,0.0,0.0,0.0,0.0,0.0,0.0,1.7877,1.8129,1.8631,1.9836,1.9786,1.9183,1.7995,1.629,1.52,0.0,0.0,0.0,0.0,0.0,0.0,0.0,0.0,1.36,1.3113,0.0,0.0,1.2363,1.2715,0.0,0.0,0.0,0.0,0.0,1.2891,1.2891,1.2891,1.2891,1.2891,0.0,0.0,1.2891,0.0,0.0,0.0,0.0,0.0,1.3086,1.3496,1.4355,1.5156,1.6292,1.886,2.0391,2.1406,2.1836,2.0589,1.9184,1.9282,1.7795,1.6021,1.5483,1.4362,1.3227,1.2398,1.1022,0.9793,0.9283,0.919,0.9203,0.9269,0.9766,1.0314,1.0902,1.1049,1.1637,1.3227,1.2688,1.2466,1.3205,1.1874,1.0681,1.0386,0.9213,0.0,0.0,0.0,0.0,0.8038,0.7896,0.7814,0.7814,0.7645,0.7495,0.7373,0.7339,0.7258,0.7143,0.7143,0.7082,0.6973,0.7007,0.6959,0.6844,0.6878,0.0,0.0,0.7143,0.6693,0.5902,0.581,0.5153,0.4051,0.2859,0.2276,0.1968,0.0,0.0,0.0,0.0,0.0,0.0,1.735,1.7877,1.8781,2.0441,1.971,1.9183,1.9559,1.8067,1.6834,0.0,0.0,0.0,0.0,0.0,0.0,0.0,0.0,0.0,0.0,0.0,0.0,1.2832,1.2871,0.0,0.0,0.0,0.0,0.0,0.0,1.2891,1.2891,1.2891,0.0,0.0,0.0,0.0,0.0,0.0,0.0,0.0,0.0,1.291,1.3066,1.3906,1.4512,1.5078,1.6213,1.7871,1.9609,2.0039,1.9981,1.9745,1.9079,1.8177,1.7072,1.5409,1.3908,1.2741,1.2051,1.0568,0.9243,0.919,0.919,0.9269,0.9593,0.99,1.0314,1.0902,1.1209,1.1717,1.2692,1.3453,1.3668,1.3074,1.3297,1.3102,1.1853,1.0583,0.0,0.0,0.0,0.0,0.8038,0.7896,0.7814,0.7814,0.7536,0.7387,0.7373,0.7231,0.7156,0.7143,0.7143,0.7136,0.7129,0.7265,0.7326,0.7319,0.7455,0.0,0.0,0.755,0.7463,0.7276,0.625,0.5624,0.5252,0.4055,0.3545,0.3304,0.0,0.0,0.0,0.0,0.0,0.0,1.7727,1.8053,1.8807,2.0517,2.0564,2.0464,2.0338,1.9405,1.8189,1.6629,1.6064,0.0,0.0,0.0,0.0,0.0,0.0,0.0,0.0,0.0,1.2891,1.2891,1.2891,0.0,0.0,0.0,0.0,0.0,0.0,0.0,1.2891,1.2891,0.0,0.0,0.0,0.0,0.0,0.0,0.0,0.0,0.0,0.0,1.293,1.3262,1.3496,1.3691,1.4043,1.5078,1.6582,1.8574,1.9013,1.876,1.8493,1.8081,1.7213,1.5239,1.3854,1.2732,1.1597,1.0394,0.9406,0.9058,0.8978,0.9018,0.9138,0.9539,0.9993,1.0394,1.0555,1.1062,1.2305,1.2639,1.3068,1.3811,1.3568,1.3251,0.0,0.0,0.0,0.0,0.0,0.0,0.8038,0.7896,0.7773,0.7685,0.7482,0.7326,0.7231,0.717,0.7143,0.7143,0.7143,0.719,0.7278,0.7346,0.7421,0.7509,0.757,0.0,0.0,0.7692,0.7726,0.7637,0.724,0.7037,0.6665,0.5437,0.4867,0.4554,0.0,0.0,0.0,0.0,0.0,1.6848,1.7802,1.8103,1.8681,2.0012,2.0514,2.0665,2.0439,1.961,1.853,1.7124,1.6697,0.0,0.0,0.0,0.0,0.0,0.0,0.0,0.0,0.0,1.2891,1.2891,1.2891,1.2891,0.0,0.0,0.0,0.0,0.0,0.0,0.0,0.0,0.0,0.0,0.0,0.0,0.0,0.0,0.0,0.0,0.0,0.0,0.0,0.0,0.0,1.2891,1.2891,1.3281,1.4258,1.6758,1.7731,1.8073,1.8006,1.8132,1.7652,1.5304,1.4006,1.2838,1.1223,1.0114,0.9312,0.8898,0.8804,0.8831,0.8925,0.9352,0.978,1.0074,1.0261,1.0768,1.1891,1.2091,1.2625,1.3975,0.0,1.3635,0.0,1.3216,0.0,0.0,0.0,0.0,0.0,0.8616,0.8072,0.7604,0.7448,0.7299,0.7143,0.7143,0.7143,0.7143,0.7143,0.7197,0.7305,0.74,0.7495,0.7604,0.0,0.0,0.0,0.7834,0.7875,0.7882,0.795,0.7841,0.7557,0.6608,0.619,0.5852,0.0,0.0,0.0,0.0,0.0,1.6722,1.73,1.7852,1.8405,1.8982,1.9008,1.9258,1.9761,1.838,1.7626,1.8129,1.7174,0.0,0.0,0.0,0.0,0.0,0.0,0.0,1.4698,1.3525,1.2891,1.2891,1.2891,1.2891,1.2891,1.2891,1.2891,1.2891,0.0,0.0,0.0,0.0,0.0,0.0,0.0,0.0,1.2891,0.0,0.0,0.0,0.0,0.0,0.0,0.0,0.0,0.0,0.0,1.2891,1.3145,1.4453,1.6348,1.7927,1.7586,1.8433,1.8702,1.5947,1.4396,1.302,1.1012,0.9659,0.8818,0.8804,0.8804,0.8898,0.9123,0.9486,0.978,1.0074,1.0608,1.1089,1.1396,1.2184,1.2929,0.0,0.0,1.4643,1.4937,0.0,0.0,0.0,0.0,0.0,0.0,1.0386,0.8885,0.7597,0.7448,0.7299,0.7143,0.7143,0.7143,0.7143,0.7143,0.7143,0.7149,0.7461,0.7597,0.0,0.0,0.0,0.0,0.8038,0.8038,0.8024,0.7875,0.7814,0.7773,0.7482,0.7373,0.7164,0.0,0.0,0.0,0.0,0.0,0.0,1.6773,1.6948,1.725,1.7827,1.8229,1.8681,1.9208,1.848,1.8028,1.8179,1.7174,0.0,0.0,0.0,0.0,0.0,0.0,1.5107,1.4698,1.3931,1.3888,1.4687,1.4251,1.4221,1.446,1.42,1.378,1.3301,1.3008,1.2891,0.0,0.0,0.0,0.0,0.0,1.3286,1.2891,0.0,0.0,0.0,0.0,0.0,0.0,0.0,0.0,0.0,0.0,0.0,0.0,1.3359,1.4785,1.6158,1.5793,1.6457,1.6732,1.4625,1.3598,1.2835,1.1613,1.0558,0.9785,0.9501,0.9106,0.8831,0.8925,0.9178,0.9539,1.0033,1.0448,1.0942,1.1637,1.2144,0.0,1.3707,1.4763,1.5458,0.0,0.0,0.0,0.0,0.0,0.0,0.0,1.1277,1.0304,0.8979,0.7793,0.719,0.7143,0.7244,0.7299,0.7299,0.7299,0.7353,0.7455,0.7448,0.0,0.0,0.0,0.0,0.0,0.8038,0.7977,0.7889,0.7943,0.778,0.7509,0.7522,0.7394,0.7115,0.0,0.0,0.0,0.0,0.0,0.0,1.6522,1.6522,1.6647,1.6999,1.735,1.7852,1.8631,1.8028,1.7752,1.8179,1.7174,0.0,0.0,0.0,0.0,0.0,1.5732,1.5398,1.5062,1.4468,1.4704,1.5826,1.5483,1.5502,1.5959,1.5705,1.5099,1.4212,1.3993,1.3786,0.0,0.0,0.0,0.0,1.4003,1.3789,1.3238,0.0,0.0,0.0,0.0,0.0,0.0,0.0,0.0,0.0,0.0,0.0,0.0,0.0,1.3633,1.4501,1.4786,1.5487,1.5812,1.414,1.353,1.2997,1.1807,1.0995,1.043,1.0213,0.9666,0.9159,0.9159,0.9289,0.9526,0.9886,1.0381,1.0955,1.161,0.0,0.0,1.4108,0.0,0.0,0.0,0.0,0.0,0.0,0.0,0.0,0.0,1.2592,1.1786,1.0905,0.896,0.7634,0.7143,0.7292,0.7373,0.7373,0.7428,0.7475,0.7516,0.7529,0.0,0.0,0.0,0.0,0.0,0.8038,0.795,0.7821,0.7916,0.7746,0.7461,0.7502,0.7394,0.7217,0.0,0.0,0.0,0.0,0.0,0.0,1.6522,1.6522,1.6522,1.6522,1.6522,1.6923,1.7978,1.7149,1.6948,1.8003,1.7124,0.0,0.0,0.0,0.0,1.6522,1.5952,1.5688,1.5688,1.5062,1.5332,1.65,1.6546,1.682,1.7375,1.7375,1.6723,1.5598,1.5601,1.5238,1.4698,1.4744,1.4744,1.4698,1.4698,1.4329,0.0,0.0,0.0,0.0,0.0,0.0,0.0,0.0,0.0,0.0,0.0,0.0,0.0,0.0,0.0,0.0,0.0,1.5234,1.5604,1.4378,1.3953,1.3311,1.1758,1.1112,0.0,1.0864,1.0372,0.9873,0.9881,0.9784,0.9744,0.9793,1.0488,1.1129,1.145,1.2265,0.0,0.0,1.483,0.0,0.0,0.0,0.0,0.0,0.0,0.0,0.0,1.4259,1.3326,1.3211,1.07,0.8714,0.7231,0.7382,0.7464,0.7373,0.7516,0.7516,0.7394,0.7658,0.0,0.0,0.0,0.0,0.0,0.8024,0.7936,0.7814,0.7821,0.7726,0.757,0.7434,0.7373,0.7333,0.0,0.0,0.0,0.0,0.0,0.0,0.0,0.0,0.0,0.0,1.6522,1.6622,1.6898,1.6672,1.6622,0.0,0.0,0.0,0.0,0.0,0.0,1.6522,1.6367,1.6281,1.6281,1.5688,1.6168,1.775,1.7747,1.8135,1.9034,1.9088,1.82,1.6661,1.635,1.5623,1.4744,1.5197,1.5107,1.4698,1.4698,1.4329,0.0,0.0,0.0,0.0,1.2891,1.2891,0.0,0.0,0.0,0.0,0.0,0.0,0.0,0.0,1.2891,1.2949,1.3242,0.0,1.3594,1.3292,1.3144,1.301,0.0,1.2004,1.1566,1.1566,1.1015,1.053,1.0519,1.0328,1.0336,1.09,1.1196,1.1503,1.2024,0.0,0.0,1.4776,0.0,0.0,0.0,0.0,0.0,0.0,0.0,0.0,0.0,1.5206,1.4355,1.3223,1.2405,1.0828,0.8544,0.8625,0.8268,0.7373,0.7407,0.7468,0.7543,0.7495,0.0,0.0,0.0,0.0,0.7868,0.7868,0.7841,0.7821,0.7936,0.7753,0.7434,0.7516,0.7394,0.719,0.0,0.0,0.0,0.0,0.0,0.0,0.0,0.0,0.0,0.0,1.6522,1.6522,1.6522,1.6522,1.6522,0.0,0.0,0.0,0.0,1.6522,1.6522,1.6522,1.6522,1.6522,1.6522,1.6441,1.7106,1.8581,1.9055,1.9711,2.0465,2.052,1.9594,1.7879,1.6883,1.61,1.5555,1.5864,1.582,1.5511,1.5511,0.0,0.0,0.0,0.0,0.0,1.319,1.3162,0.0,1.2891,1.2891,1.2891,0.0,0.0,0.0,0.0,1.2891,1.2891,1.2891,1.3027,1.3164,1.3164,1.3164,1.3164,1.3164,1.2693,1.2295,1.2295,1.1733,1.1183,1.1013,1.0705,1.0625,1.1154,1.1343,0.0,0.0,0.0,1.4349,1.5084,0.0,0.0,0.0,0.0,0.0,0.0,0.0,0.0,0.0,1.5297,1.4707,1.4038,1.3649,1.2215,0.9662,0.9776,0.9606,0.8984,0.8513,0.8374,0.8313,0.7823,0.7543,0.0,0.0,0.0,0.7814,0.7814,0.7814,0.7821,0.7902,0.7706,0.738,0.7461,0.7346,0.7143,0.0,0.0,0.0,0.0,0.0,0.0,0.0,0.0,0.0,0.0,0.0,0.0,0.0,0.0,0.0,0.0,0.0,0.0,0.0,1.6522,1.6522,1.6522,1.6522,1.6547,1.6647,1.7049,1.7827,1.8983,2.0137,2.0991,2.1619,2.1794,2.0891,1.9083,1.7476,1.6672,1.6522,1.6522,1.6522,1.6479,1.6392,0.0,0.0,0.0,0.0,0.0,0.0,0.0,0.0,1.2891,1.2891,1.2891,1.2891,0.0,0.0,0.0,0.0,0.0,1.2969,1.3281,1.3574,1.3437,1.3516,1.3594,1.3516,1.3281,1.3066,1.3066,1.2582,1.2037,1.1593,1.1302,1.1106,1.1181,0.0,0.0,1.3707,1.4082,1.4509,0.0,0.0,0.0,0.0,0.0,0.0,0.0,0.0,0.0,0.0,1.5084,1.475,1.495,1.4442,1.3174,1.1133,1.1061,1.0998,1.086,1.001,0.9452,0.9116,0.8378,0.7792,0.0,0.0,0.0,0.778,0.778,0.7794,0.7814,0.7814,0.7631,0.7373,0.7373,0.7272,0.7143,0.0,0.0,0.0,0.0,0.0,0.0,0.0,0.0,0.0,0.0,0.0,0.0,0.0,0.0,0.0,0.0,0.0,0.0,0.0,1.6522,1.6522,1.6522,1.6522,1.6748,1.7225,1.6848,1.7426,1.8983,2.0137,2.1192,2.2196,2.3175,2.2221,1.9635,1.8455,1.74,1.6522,1.6522,1.6522,1.6479,1.5952,0.0,0.0,0.0,0.0,0.0,0.0,0.0,0.0,1.2891,1.2891,1.2891,1.2891,0.0,0.0,0.0,0.0,0.0,1.332,1.3711,1.3867,1.3145,1.3516,1.3945,1.3594,1.373,1.3945,1.3945,1.384,1.3513,1.2688,1.2691,1.2687,1.2172,0.0,1.3734,0.0,0.0,0.0,0.0,0.0,0.0,0.0,0.0,0.0,0.0,0.0,0.0,0.0,0.0,1.5177,1.4977,1.4629,1.4163,1.3561,1.2552,1.1717,1.1028,1.0642,1.0117,0.9376,0.91,0.8307,0.0,0.0,0.7495,0.7631,0.7631,0.7706,0.7814,0.7814,0.7631,0.7373,0.7373,0.7272,0.7143,0.0,0.0,0.0,0.0,0.0,0.0,0.0,0.0,0.0,0.0,0.0,0.0,0.0,0.0,0.0,0.0,0.0,0.0,1.6522,1.6522,1.6647,1.6974,1.6974,1.7099,1.7375,1.7978,1.8832,1.9911,2.1619,2.2723,2.3201,2.2523,2.1192,1.9334,1.7928,1.6999,1.6522,1.6522,1.6522,1.6479,0.0,0.0,0.0,0.0,0.0,0.0,0.0,0.0,0.0,0.0,1.3382,1.3334,1.3017,0.0,0.0,0.0,0.0,0.0,1.3125,1.3477,1.3652,1.3027,1.3691,1.4375,1.3945,1.3951,1.4145,1.4434,1.4492,1.4335,1.403,1.4219,1.4247,1.371,0.0,1.4496,0.0,0.0,0.0,0.0,0.0,0.0,0.0,0.0,0.0,0.0,0.0,0.0,0.0,0.0,1.4696,1.4723,1.4442,1.4215,1.4082,1.3561,1.3101,1.2695,1.2012,1.1444,1.0998,1.0519,0.9976,0.9337,0.0,0.8909,0.9528,0.869,0.8846,0.9545,0.88,0.8398,0.8253,0.7541,0.7204,0.7143,0.0,0.0,0.0,0.0,0.0,0.0,0.0,0.0,0.0,0.0,0.0,0.0,0.0,0.0,0.0,0.0,0.0,0.0,1.6522,1.6522,1.6722,1.7149,1.73,1.7551,1.7928,1.9158,2.0213,2.1041,2.3025,2.4054,2.4155,2.2046,2.0388,1.9133,1.7601,1.6773,1.6522,1.6522,1.6522,1.6522,0.0,0.0,0.0,0.0,0.0,0.0,0.0,0.0,0.0,0.0,0.0,0.0,0.0,0.0,0.0,1.2891,1.2891,1.291,1.3008,1.3262,1.3437,1.3105,1.3828,1.459,1.4473,1.4512,1.4766,1.541,1.5547,1.5465,1.5239,1.5216,0.0,1.5078,1.4993,0.0,0.0,0.0,0.0,0.0,0.0,0.0,0.0,0.0,0.0,0.0,0.0,0.0,0.0,0.0,1.4295,1.4509,1.4242,1.4082,1.4082,1.4082,1.4122,1.4188,1.3374,1.273,1.2428,1.1793,1.1299,1.0957,0.9981,1.0192,1.1101,0.994,1.0139,1.0908,0.9931,0.9311,0.8901,0.762,0.7143,0.7143,0.0,0.0,0.0,0.0,0.0,0.0,0.0,0.0,0.0,0.0,0.0,0.0,0.0,0.0,0.0,0.0,0.0,0.0,1.6522,1.6522,1.6547,1.6572,1.7099,1.8078,1.9585,1.9736,2.0589,2.2196,2.3401,2.4255,2.4732,2.3,2.1317,1.9685,1.8581,1.7501,1.6522,1.6522,1.6522,1.6522,1.6522,0.0,0.0,0.0,0.0,0.0,0.0,0.0,0.0,0.0,0.0,0.0,0.0,0.0,1.2891,1.2891,1.2891,1.2969,1.3359,1.3477,1.3496,1.3477,1.3828,1.4321,1.5137,1.5625,1.6269,1.7519,1.7773,1.7389,1.6211,1.5035,1.4637,1.5624,1.5311,0.0,0.0,0.0,0.0,0.0,0.0,0.0,0.0,0.0,0.0,0.0,0.0,0.0,0.0,0.0,0.0,1.4522,1.4242,1.4082,1.4082,1.4082,1.4215,1.4482,1.4143,1.3544,1.2762,1.2388,1.1682,1.0636,1.0549,1.0582,1.0791,1.0682,1.0691,1.0791,1.0682,0.9944,0.8736,0.7584,0.7143,0.7143,0.0,0.0,0.0,0.0,0.0,0.0,0.0,0.0,0.0,0.0,0.0,1.6522,1.6522,0.0,0.0,0.0,0.0,0.0,1.6522,1.6522,1.6672,1.7024,1.7275,1.7978,1.9284,2.0338,2.1669,2.3351,2.4456,2.4582,2.3728,2.2071,2.0589,1.9258,1.7802,1.7124,1.7024,1.6672,1.6722,1.7024,1.6672,1.6522,0.0,0.0,0.0,0.0,0.0,0.0,0.0,0.0,1.488,1.4283,1.3909,1.3382,1.2891,1.2891,1.2891,1.291,1.3066,1.3301,1.3516,1.3516,1.4023,1.4687,1.5273,1.6172,1.7168,1.8184,1.8828,1.9068,1.8514,0.0,1.611,1.6547,0.0,0.0,0.0,0.0,0.0,0.0,0.0,0.0,0.0,0.0,0.0,0.0,0.0,0.0,0.0,0.0,0.0,1.4255,1.4148,1.4082,1.4082,1.4082,1.4135,1.4255,1.4135,1.3965,1.363,1.3608,1.346,1.3027,1.2307,1.2365,1.3073,1.211,1.2227,1.2757,1.2042,1.1034,0.9836,0.8623,0.8193,0.8105,0.0,0.0,0.0,0.0,0.0,0.0,0.0,0.0,1.6522,0.0,0.0,0.0,0.0,1.6522,0.0,0.0,0.0,0.0,1.6522,1.6522,1.6697,1.7099,1.7275,1.7827,1.8756,2.0213,2.1769,2.3477,2.4381,2.4155,2.2849,2.1167,2.0087,1.9459,1.7802,1.7375,1.7852,1.7099,1.7024,1.7325,1.6748,1.6522,0.0,0.0,0.0,0.0,0.0,0.0,0.0,0.0,1.5377,1.4606,1.419,1.3552,1.2891,1.2891,1.2891,1.2891,1.2891,1.3184,1.3516,1.3516,1.4355,1.5371,1.6074,1.7031,1.8105,1.9219,1.9707,1.9961,2.0098,1.856,0.0,0.0,0.0,0.0,0.0,0.0,0.0,0.0,0.0,0.0,0.0,0.0,0.0,0.0,0.0,0.0,0.0,0.0,0.0,0.0,1.4082,1.4082,1.4082,1.4082,1.4041,1.3948,1.4041,1.4082,1.4095,1.4295,1.4389,1.4289,1.3572,1.3659,1.4276,1.3284,1.3379,1.3997,1.2772,1.1809,1.1037,0.9836,0.941,0.9235,0.0,0.0,0.0,0.0,0.0,0.0,0.0,0.0,1.6522,1.6522,1.6522,0.0,0.0,0.0,0.0,0.0,0.0,0.0,1.6522,1.6522,1.6522,1.6522,1.7074,1.7626,1.8179,1.9233,2.0614,2.2297,2.2849,2.2849,2.2246,2.0589,2.0112,2.0643,1.8932,1.8505,1.8908,1.7852,1.7375,1.7325,1.6748,1.6522,1.6522,0.0,0.0,0.0,0.0,0.0,0.0,0.0,1.5712,1.4698,1.4698,1.3884,1.292,1.292,1.2891,1.2891,1.2891,1.3184,1.3516,1.3516,1.4805,1.6406,1.7715,1.8359,1.916,2.0898,2.0547,2.0059,2.0508,1.9032,0.0,0.0,0.0,0.0,0.0,0.0,0.0,0.0,0.0,0.0,0.0,0.0,0.0,0.0,0.0,0.0,0.0,0.0,0.0,0.0,1.4082,1.4082,1.4082,1.4082,1.3935,1.3559,1.3935,1.4082,1.4082,1.4082,1.4082,1.4082,1.4082,1.4082,1.4082,1.4082,1.4082,1.3984,1.276,1.2322,1.2151,1.1037,1.0605,1.0433,0.0,0.0,0.0,0.0,0.0,0.0,0.0,0.0,1.6522,1.6522,1.6522,0.0,0.0,0.0,0.0,0.0,0.0,0.0,1.6522,1.6522,1.6522,1.6522,1.6672,1.6848,1.7024,1.8103,1.9484,2.1142,2.2096,2.187,2.0539,2.0037,1.9685,1.9484,1.9007,1.8656,1.8405,1.7677,1.7375,1.7325,1.6748,1.6522,1.6522,0.0,0.0,0.0,0.0,0.0,0.0,0.0,0.0,0.0,1.5332,1.4514,1.3552,1.3552,1.3238,1.2891,1.2891,1.3184,1.3652,1.4258,1.5488,1.6953,1.8555,1.9238,2.0039,2.1777,2.168,2.1348,2.1465,2.0423,0.0,0.0,0.0,0.0,0.0,0.0,0.0,0.0,0.0,0.0,0.0,0.0,0.0,0.0,0.0,0.0,0.0,0.0,0.0,0.0,1.3467,1.3467,1.3467,1.3467,1.3427,1.3347,1.3427,1.3574,1.3788,1.3988,1.4082,1.4082,1.4082,1.3975,1.3774,1.3774,1.3654,1.3507,1.3574,1.3432,1.3112,1.2178,1.1708,1.1383,0.0,0.0,0.0,0.0,0.0,0.0,1.6837,1.6625,1.6522,1.6522,1.6522,1.6522,0.0,0.0,0.0,1.6522,1.6522,0.0,1.6522,1.6522,1.6522,1.6522,1.6522,1.6622,1.6848,1.7953,1.8807,1.9409,2.0464,2.0489,1.951,1.971,1.9886,2.0012,2.0012,1.971,1.9133,1.8355,1.7903,1.7652,1.6848,1.6647,1.6848,0.0,0.0,0.0,0.0,0.0,0.0,0.0,0.0,0.0,1.5576,1.4949,1.4097,1.3862,1.3552,1.319,1.2968,1.3301,1.3965,1.4824,1.6152,1.7734,1.9629,2.0527,2.1289,2.2519,2.2305,2.1894,2.1894,2.1072,0.0,0.0,0.0,0.0,0.0,0.0,0.0,0.0,0.0,0.0,0.0,0.0,0.0,0.0,0.0,0.0,0.0,0.0,0.0,0.0,1.3213,1.3213,1.3213,1.3213,1.3146,1.3026,1.3146,1.324,1.3307,1.3721,1.3975,1.4082,1.3961,1.3748,1.3467,1.3467,1.3373,1.3253,1.3734,1.3801,1.3517,1.3193,1.2928,1.2612,0.0,0.0,1.8741,1.8249,0.0,0.0,1.7394,1.6921,1.6565,1.6565,1.6522,1.6522,0.0,0.0,0.0,1.6522,1.6522,1.6522,1.6522,1.6522,1.6522,1.6522,1.6572,1.6873,1.7451,1.8405,1.838,1.7375,1.843,1.8908,1.8957,1.9535,2.0388,2.1418,2.1418,2.1091,2.0492,1.9334,1.8555,1.7953,1.6923,1.6848,1.725,1.6722,0.0,0.0,0.0,0.0,0.0,0.0,0.0,0.0,1.5688,1.5287,1.4652,1.4143,1.3909,1.3674,1.3162,1.3547,1.4301,1.5254,1.6875,1.8769,2.0781,2.1875,2.2578,2.2988,2.248,2.1934,2.1934,2.125,0.0,0.0,0.0,0.0,0.0,0.0,0.0,0.0,0.0,0.0,0.0,0.0,0.0,0.0,0.0,0.0,0.0,0.0,0.0,0.0,1.3133,1.3133,1.3133,1.3133,1.2986,0.0,1.2986,1.2999,1.2835,1.3347,1.3748,1.3988,1.3694,1.3414,1.3173,1.3173,1.316,1.316,1.3507,1.3627,1.3641,1.3935,1.4028,1.3833,0.0,0.0,1.8855,1.8741,0.0,0.0,1.7933,1.7476,1.7105,1.7105,1.6752,1.6522,1.6522,1.6522,0.0,1.6522,1.6522,1.6522,1.6522,1.6522,1.6522,1.6522,1.6948,1.7451,1.8028,1.7827,1.7626,1.7375,1.8053,1.838,1.8405,1.9359,2.0162,2.084,2.084,2.0288,1.9309,1.8204,1.74,1.6848,1.6622,1.6597,1.6697,1.6572,1.6522,0.0,0.0,0.0,0.0,0.0,0.0,0.0,1.6281,1.5864,1.5353,1.5264,1.4538,1.3768,1.3647,1.3882,1.4414,1.5625,1.7988,2.0234,2.1055,2.1641,2.2148,2.2559,2.25,2.2383,2.2383,0.0,0.0,0.0,0.0,0.0,0.0,0.0,0.0,0.0,0.0,0.0,0.0,0.0,0.0,0.0,0.0,0.0,0.0,0.0,0.0,1.2505,1.2492,1.2492,1.2492,1.2492,1.2465,0.0,1.2465,1.2585,1.2835,1.3133,1.3333,1.3387,1.3066,1.2906,1.2929,1.2929,1.2705,1.2572,1.3347,1.3507,1.3347,1.3627,1.3601,1.34,0.0,0.0,0.0,0.0,0.0,0.0,0.0,0.0,1.6921,1.6921,1.6667,1.6522,1.6522,1.6522,0.0,0.0,1.6522,1.6522,1.6522,1.6522,1.6522,1.6522,1.7074,1.7375,1.74,1.7375,1.725,1.6974,1.725,1.7677,1.8229,1.9585,2.0388,2.0718,2.0941,2.0313,1.8982,1.8129,1.7451,1.6898,1.6622,1.6672,1.6898,1.6622,1.6522,1.6522,1.6522,0.0,0.0,0.0,0.0,0.0,0.0,0.0,1.5952,1.5664,1.5129,1.4538,1.3956,1.4163,1.4974,1.6566,1.8789,2.0684,2.1133,2.1562,2.1953,2.2168,2.2207,2.2148,2.1934,0.0,0.0,0.0,0.0,0.0,0.0,0.0,0.0,0.0,0.0,0.0,0.0,0.0,0.0,0.0,0.0,0.0,0.0,1.3191,1.2973,1.2305,1.2305,1.2305,1.2305,1.2305,1.2305,1.2305,1.2305,1.2385,1.2545,1.2999,1.3133,1.2973,1.2889,1.2741,1.2532,1.2532,1.2438,1.2371,1.3146,1.3347,1.3267,1.3694,1.3667,1.344,0.0,0.0,0.0,0.0,0.0,0.0,0.0,0.0,0.0,1.6625,1.6565,1.6522,1.6522,1.6522,1.6522,0.0,0.0,0.0,1.6522,1.6522,1.6572,1.6672,1.7124,1.72,1.6823,1.7174,1.7149,1.6672,1.6672,1.73,1.8505,1.9886,2.0668,2.0869,2.1091,2.0388,1.8933,1.8229,1.7652,1.72,1.6697,1.6798,1.7174,1.6697,1.6522,1.6522,1.6522,1.6522,1.6522,1.6522,0.0,0.0,0.0,0.0,1.6392,1.5908,1.5688,1.5353,1.4354,1.4665,1.5759,1.75,1.9082,2.0352,2.0801,2.123,2.1523,2.1445,2.1621,2.166,0.0,0.0,0.0,0.0,0.0,0.0,0.0,0.0,0.0,0.0,0.0,0.0,0.0,0.0,0.0,0.0,0.0,0.0,1.3863,1.3663,1.323,1.2444,1.2352,1.2278,1.2225,1.2225,1.2198,1.2158,1.2158,1.2158,1.2171,1.2665,1.2786,1.2674,1.2674,1.2452,1.2225,1.2225,1.2251,1.2358,1.2919,1.316,1.3267,1.3694,1.3761,1.3667,0.0,0.0,0.0,0.0,0.0,0.0,0.0,0.0,0.0,0.0,1.6795,1.6522,1.6522,1.6522,1.6522,1.6522,1.6522,1.6522,1.6522,0.0,0.0,1.725,1.735,1.7576,1.7978,1.7576,1.735,1.7275,1.7275,1.8053,1.9585,1.9811,2.0439,2.1343,2.0439,1.966,1.8883,1.74,1.6697,1.6622,1.6547,1.6572,1.6622,1.6547,1.6522,1.6522,1.6522,1.6522,1.6522,1.6522,1.6522,0.0,0.0,0.0,1.6479,1.6411,1.5996,1.5531,1.5398,1.5791,1.6424,1.7283,1.8184,1.9004,1.9453,1.9863,2.0078,0.0,2.0527,0.0,0.0,0.0,0.0,0.0,0.0,0.0,0.0,0.0,0.0,0.0,0.0,0.0,0.0,0.0,0.0,0.0,0.0,0.0,1.4417,1.3599,1.3123,1.2982,1.2535,1.2184,1.1931,1.1931,1.1797,1.1543,1.1543,1.1543,1.1543,1.1623,1.1784,1.1984,1.1984,1.1957,1.1931,1.1931,1.2078,1.2331,1.2679,1.2973,1.3186,1.2999,1.3227,1.3574,0.0,0.0,0.0,0.0,0.0,0.0,0.0,0.0,0.0,0.0,0.0,1.6522,1.6522,1.6522,1.6522,1.6522,1.6522,1.6522,1.6522,1.6522,1.6622,1.6898,1.6898,1.7024,1.725,1.7024,1.6898,1.6898,1.6898,1.7903,1.9811,2.0137,2.0891,2.1895,2.079,1.9811,1.8858,1.7225,1.6522,1.6522,1.6522,1.6522,1.6522,1.6522,1.6522,1.6522,1.6522,1.6522,1.6522,1.6522,1.6522,1.6522,1.6522,0.0,0.0,0.0,1.6281,1.6069,1.6025,1.5853,1.5898,1.6921,1.7367,1.7812,1.8711,1.9062,1.9219,1.9277,0.0,0.0,0.0,0.0,0.0,0.0,0.0,0.0,0.0,0.0,0.0,0.0,0.0,0.0,0.0,0.0,0.0,0.0,0.0,1.6333,1.5358,1.4698,1.4128,1.3588,1.2848,1.2445,1.2386,1.1832,1.1557,1.1423,1.1423,1.1423,1.1423,1.1423,1.149,1.1623,1.1623,1.1623,1.1637,1.1797,1.1944,1.2104,1.2647,1.2903,1.2959,1.2986,1.3066,1.3133,0.0,0.0,0.0,0.0,0.0,0.0,0.0,0.0,0.0,0.0,0.0,1.6522,1.6522,0.0,0.0,0.0,1.6522,1.6522,1.6522,1.6522,1.6522,1.6522,1.6522,1.6522,1.6522,1.6522,1.6522,1.6522,1.6522,1.7727,2.0037,2.0464,2.1418,2.2698,2.1568,2.0313,1.8883,1.7551,1.6948,1.6923,1.6647,1.6522,1.6522,1.6522,1.6522,1.6522,1.6522,1.6522,1.6522,1.6522,1.6522,1.6522,1.6522,1.6522,0.0,0.0,0.0,1.6424,1.619,1.5785,1.5592,1.6321,1.6495,1.673,1.7715,0.0,1.8281,0.0,0.0,0.0,0.0,0.0,0.0,0.0,0.0,0.0,0.0,0.0,0.0,0.0,0.0,0.0,0.0,0.0,0.0,0.0,0.0,1.6773,1.6002,1.5468,1.4857,1.4145,1.3388,1.2937,1.2846,1.1959,1.1531,1.1531,1.1531,1.1597,1.1783,1.1597,1.1531,1.1464,1.1344,1.1316,1.1343,1.1637,1.1797,1.1917,1.2438,1.2755,1.2835,1.2919,1.2933,1.2879,0.0,0.0,0.0,0.0,0.0,0.0,0.0,0.0,0.0,0.0,0.0,1.6522,1.6522,1.6522,1.6522,1.6522,1.6522,1.6522,1.6522,1.6522,1.6522,1.6522,1.6522,0.0,1.6522,1.6522,1.6522,1.6522,1.6522,1.7928,2.0668,2.0693,2.182,2.3853,2.2723,2.1041,1.8933,1.838,1.8129,1.8028,1.6948,1.6522,1.6522,1.6522,1.6522,1.6522,1.6522,1.6522,1.6522,1.6522,1.6522,1.6522,1.6522,1.6522,1.6522,0.0,0.0,0.0,1.58,1.5936,1.6074,1.536,1.5475,1.5833,1.6177,0.0,0.0,0.0,0.0,0.0,0.0,0.0,0.0,0.0,0.0,0.0,0.0,0.0,0.0,0.0,0.0,0.0,0.0,0.0,0.0,0.0,0.0,1.6133,1.6072,1.5235,1.472,1.4658,1.4095,1.3656,1.3379,1.2288,1.1762,1.1762,1.1762,1.2197,1.2875,1.2135,1.1762,1.1777,1.1214,1.1009,1.1035,1.1329,1.161,1.1904,1.2211,1.2492,1.2795,1.2452,1.2705,1.3106,0.0,0.0,0.0,0.0,0.0,0.0,0.0,0.0,0.0,0.0,0.0,0.0,0.0,1.6522,1.6522,1.6522,1.6522,1.6522,1.6522,1.6522,1.6522,1.6522,1.6522,1.6522,1.6522,1.6522,1.6522,1.6522,1.6522,1.74,1.9083,1.9459,1.9861,2.0313,2.0966,2.0815,1.9962,1.7953,1.7325,1.7601,1.6823,1.6522,1.6522,1.6522,1.6522,1.6522,1.6522,1.6522,1.6522,1.6522,1.6522,1.6522,1.6522,1.6522,1.6522,1.6522,1.6522,1.6479,1.6238,1.6009,1.5821,1.5884,1.5343,1.5039,1.5695,1.5641,1.5684,0.0,0.0,0.0,0.0,0.0,0.0,0.0,0.0,0.0,0.0,0.0,0.0,0.0,0.0,0.0,0.0,0.0,0.0,0.0,0.0,0.0,1.6115,1.5482,1.515,1.515,1.4434,1.3757,1.3145,1.2752,1.2581,1.2581,1.2581,1.2704,1.3009,1.2704,1.2581,1.2581,1.2336,1.2022,1.156,1.2026,1.2312,1.2401,1.2335,1.2371,1.2452,1.2345,1.2438,1.2625,0.0,0.0,0.0,1.893,0.0,1.7693,1.7353,1.698,1.671,1.6522,0.0,0.0,0.0,0.0,1.7193,1.6823,1.6622,1.6522,1.6522,1.6522,1.6522,1.6522,1.6522,1.6522,1.6522,1.6522,1.6522,1.6522,1.6522,1.7099,1.8204,1.8581,1.8756,1.8781,1.951,1.9836,1.971,1.7877,1.7426,1.7852,1.6898,1.6848,1.735,1.735,1.7476,1.7601,1.7426,1.725,1.7024,1.6647,1.6522,1.6522,1.6522,1.6522,1.6522,1.6522,1.6522,1.6522,1.6522,1.6194,1.5917,1.6051,1.5404,1.4958,1.5455,0.0,1.5172,0.0,0.0,0.0,0.0,0.0,0.0,0.0,0.0,0.0,0.0,0.0,0.0,0.0,0.0,0.0,0.0,0.0,0.0,0.0,0.0,0.0,1.584,1.5566,1.5352,1.5215,1.4676,1.3943,1.2999,1.3118,1.3186,1.3186,1.3305,1.3554,1.3795,1.3554,1.3433,1.3433,1.3433,1.2931,1.2259,1.2891,1.3168,1.3178,1.2856,1.2732,1.2746,1.256,1.2607,1.2788,1.969,1.969,1.9515,1.9006,1.893,1.8549,1.7503,1.7338,1.7157,1.6615,0.0,0.0,0.0,0.0,0.0,1.7541,1.6898,1.6547,1.6547,1.6547,1.6547,1.6522,1.6522,1.6522,1.6522,1.6522,1.6522,1.6522,1.6522,1.7074,1.8154,1.8154,1.8706,1.966,1.8606,1.8154,1.8154,1.8154,1.8505,1.8833,1.7155,1.7501,1.8958,1.8908,1.9284,1.966,1.9158,1.8631,1.8003,1.6923,1.6547,1.6547,1.6547,1.6479,1.6522,1.6522,1.6522,1.6522,0.0,0.0,0.0,1.5776,1.562,1.5539,1.5328,0.0,1.5389,0.0,0.0,0.0,0.0,0.0,0.0,0.0,0.0,0.0,0.0,0.0,0.0,0.0,0.0,0.0,0.0,0.0,0.0,0.0,0.0,1.5391,1.541,1.541,1.5215,1.4824,1.4805,1.4202,1.2949,1.3399,1.3636,1.3636,1.4015,1.4628,1.5352,1.4569,1.4273,1.4273,1.4273,1.3795,1.3119,1.3849,1.4131,1.4082,1.3823,1.3723,1.3622,1.3064,1.3219,1.3696,1.969,1.969,1.9654,1.9479,1.9564,1.9347,1.859,1.8548,1.8401,0.0,0.0,0.0,1.8025,1.8291,1.8316,1.7978,1.7827,1.7576,1.7174,1.7149,1.6948,1.6547,1.6522,1.6522,1.6522,1.6522,1.6522,1.6522,1.6522,1.6672,1.6974,1.6974,1.7149,1.74,1.7124,1.6974,1.6974,1.6974,1.7777,1.8833,1.7155,1.7275,1.8355,1.7526,1.7551,1.8028,1.7877,1.7727,1.7551,1.725,1.7149,1.7149,1.7149,1.6848,1.6522,1.6522,1.6522,1.6522,1.6522,0.0,0.0,0.0,0.0,0.0,1.5541,1.5177,1.4985,0.0,0.0,0.0,0.0,0.0,0.0,0.0,0.0,0.0,0.0,0.0,0.0,0.0,0.0,0.0,0.0,0.0,0.0,0.0,1.4668,1.4746,1.5371,1.541,1.5352,1.5234,1.5234,1.4925,1.4277,1.4678,1.4735,1.4505,1.4849,1.5177,1.541,1.5177,1.5059,1.5059,1.5059,1.4923,1.4725,1.4568,1.453,1.4536,1.4359,1.429,1.4182,1.368,1.403,1.4737,1.969,1.969,1.9779,2.0079,2.0226,2.0194,1.9767,1.9871,1.9728,0.0,0.0,0.0,1.9269,1.928,1.9058,1.8581,1.8329,1.8078,1.7752,1.7727,1.7476,1.6898,1.6873,1.6835,1.6837,1.6607,1.6607,1.6837,1.6607,1.6522,1.6522,1.6522,1.6522,1.6522,1.6522,1.6522,1.6522,1.6522,1.7225,1.8229,1.6999,1.7451,1.8807,1.8129,1.838,1.9058,1.8832,1.8907,1.8907,1.7777,1.7375,1.735,1.7099,1.7124,1.7124,1.6647,1.6697,1.6823,1.6597,1.6522,1.6522,1.6522,0.0,0.0,1.5952,1.5688,1.5471,0.0,0.0,0.0,0.0,0.0,0.0,0.0,0.0,0.0,0.0,0.0,0.0,0.0,0.0,0.0,0.0,0.0,0.0,1.4512,1.4277,1.4301,1.4844,1.4883,1.4883,1.4883,1.4707,1.4492,1.4258,1.4668,1.4766,1.4512,1.5117,1.541,1.541,1.541,1.541,1.541,1.541,1.541,1.5371,1.5068,1.5093,1.5253,1.5129,1.5087,1.5018,1.4617,1.5072,1.5735,0.0,1.9869,2.0139,2.0827,2.1098,2.122,2.1223,2.1295,2.1153,0.0,2.079,2.1063,2.1062,2.0936,2.0464,1.9484,1.8832,1.8455,1.838,1.8329,1.8053,1.7501,1.7476,1.7466,1.7523,1.6965,1.694,1.7418,1.6863,1.6565,1.6522,1.6522,1.6522,1.6522,1.6522,1.6522,1.6522,1.6522,1.6848,1.7325,1.6823,1.7852,1.971,1.966,2.0288,2.1142,2.0665,2.079,2.084,1.8329,1.7426,0.0,1.6848,1.73,1.7852,1.6974,1.7024,1.7275,1.6823,1.6748,1.6773,1.6647,1.6748,0.0,1.6572,1.6622,1.6473,0.0,0.0,0.0,0.0,0.0,0.0,0.0,0.0,0.0,0.0,0.0,0.0,0.0,0.0,0.0,0.0,1.4009,1.4009,1.4009,1.4048,1.4068,1.4009,1.4068,1.4107,1.4199,1.3789,1.3574,1.3574,1.3984,1.4126,1.4087,1.5,1.541,1.541,1.541,1.541,1.541,1.541,1.541,1.541,1.541,1.5644,1.6013,1.5993,1.5975,1.5999,1.58,1.6154,1.6666,2.0498,2.0946,2.1515,2.2173,2.2718,2.3098,2.3149,2.3184,2.2912,2.221,2.2031,2.2209,2.2597,2.2229,2.1895,2.1694,2.0765,1.9987,1.951,1.9108,1.8631,1.8078,1.8028,1.8277,1.8755,1.8175,1.7938,1.8084,1.7466,1.6921,1.6522,1.6522,1.6522,1.6522,1.6522,1.6522,1.6522,1.6522,1.6848,1.7375,1.725,1.8003,1.9133,1.8681,1.8932,1.9484,1.9384,1.9409,1.9359,1.838,1.7752,1.7426,0.0,0.0,0.0,1.7677,1.7652,1.7451,1.7777,1.8204,1.8282,0.0,0.0,0.0,1.6923,1.7225,1.7581,0.0,0.0,0.0,0.0,0.0,0.0,0.0,0.0,0.0,0.0,0.0,0.0,0.0,0.0,0.0,0.0,1.3633,1.3633,1.3633,1.3945,1.3984,1.3652,1.3893,1.4297,1.4648,1.4238,1.3951,1.3951,1.4453,1.4473,1.4087,1.5,1.541,1.541,1.541,1.541,1.541,1.541,1.541,1.541,1.541,1.5449,1.5625,1.6316,1.6517,1.6548,1.6464,1.6996,1.7598,2.1216,2.1485,2.1994,2.2981,2.367,2.4239,2.4616,2.4923,2.4974,2.4443,2.4788,2.4603,2.3476,2.3573,2.3244,2.2027,2.1393,2.084,2.0263,1.9987,1.9484,1.8656,1.8606,1.8741,1.9054,1.8763,1.8676,1.8676,1.8358,1.7922,1.735,1.7074,1.6948,1.6923,1.6647,1.6522,1.6547,1.6823,1.7124,1.7375,1.7375,1.8028,1.8958,1.8731,1.8957,1.9409,1.9409,1.9083,1.8656,1.8907,1.8631,0.0,1.7877,1.7953,1.8154,0.0,1.8003,1.7852,0.0,0.0,0.0,1.8279,0.0,0.0,0.0,1.735,1.735,0.0,0.0,0.0,0.0,0.0,0.0,0.0,0.0,0.0,0.0,0.0,0.0,0.0,0.0,0.0,0.0,1.3382,1.3203,1.3203,1.3398,1.3418,1.3203,1.3398,1.3711,1.4141,1.373,1.3613,1.3828,1.4238,1.4355,1.4087,1.5,1.541,1.541,1.541,1.541,1.541,1.541,1.541,1.541,1.541,1.541,1.5469,1.6133,1.6406,1.6441,1.6883,1.7273,1.7648,2.1904,2.1994,2.2473,2.3759,2.4448,2.5076,2.5854,2.6206,2.6344,2.6207,2.6931,2.658,2.4456,2.478,2.4365,2.243,2.1895,2.1543,2.1317,2.097,2.0263,1.9384,1.9233,1.9202,1.9331,1.9402,1.9394,1.9375,1.9288,1.8963,1.8367,1.7798,1.7526,1.7526,1.7049,1.6898,1.7024,1.7375,1.7652,1.7827,1.7727,1.8229,1.8983,1.9083,1.9434,1.9811,1.9811,1.9233,1.8631,1.951,1.9535,1.9032,1.8254,1.8781,0.0,0.0,0.0,0.0,0.0,0.0,0.0,0.0,0.0,1.8254,0.0,0.0,0.0,0.0,0.0,0.0,0.0,0.0,0.0,0.0,0.0,0.0,0.0,0.0,0.0,0.0,0.0,0.0,0.0,1.3238,1.2891,1.2891,1.2891,1.2891,1.2891,1.2891,1.3066,1.3496,1.3105,1.3086,1.3496,1.3926,1.4087,1.4087,1.5,1.541,1.541,1.541,1.541,1.541,1.541,1.541,1.541,1.541,1.541,1.5449,1.5898,1.6115,1.6213,1.6953,1.7305,1.7441,2.2682,2.3011,2.3819,2.5136,2.5435,2.5914,2.7171,2.6373,2.574,2.616,2.6169,2.6241,2.6506,2.555,2.4962,2.5109,2.3351,2.2623,2.3552,2.1769,2.0668,2.0489,1.9987,1.9991,2.0562,2.0603,2.0607,2.0698,2.0103,1.952,1.8982,1.8384,1.8103,1.8103,1.8053,1.8279,1.8657,1.8304,1.8656,1.9484,1.9032,1.8907,0.0,1.9535,1.9761,1.9811,1.9811,1.9736,1.9635,0.0,1.9761,1.9786,0.0,1.9761,1.9384,2.0715,0.0,0.0,0.0,0.0,0.0,0.0,2.0388,0.0,0.0,0.0,1.7777,1.6898,0.0,0.0,0.0,0.0,0.0,0.0,0.0,0.0,0.0,0.0,0.0,0.0,0.0,0.0,0.0,0.0,1.2891,1.2891,1.2891,1.2891,1.2891,1.2891,1.3066,1.3496,1.3105,1.3086,1.3496,1.3926,1.4087,1.4087,1.5,1.541,1.541,1.541,1.541,1.541,1.541,1.541,1.541,1.541,1.541,1.5449,1.5898,1.6115,1.6194,1.6621,1.7051,1.7383,2.3251,2.343,2.4029,2.5375,2.5615,2.6063,2.743,2.7886,2.7969,2.7484,2.8195,2.8541,2.7934,2.7039,2.637,2.6131,2.4682,2.3703,0.0,2.27,2.1941,2.1222,2.1322,2.1225,2.0784,2.1457,2.1547,2.086,2.1286,2.101,2.0057,1.9504,1.9041,1.8656,1.8355,1.8329,1.8555,1.8656,1.8932,1.9359,1.9434,1.9484,0.0,1.971,1.9811,1.9811,1.9811,1.961,1.9359,0.0,1.9786,0.0,0.0,0.0,0.0,2.0891,0.0,0.0,0.0,0.0,0.0,0.0,0.0,0.0,1.7953,0.0,1.7275,0.0,0.0,0.0,0.0,0.0,0.0,0.0,1.6371,0.0,0.0,0.0,0.0,0.0,0.0,0.0,0.0,0.0,0.0,0.0,0.0,1.3286,1.2939,1.2891,1.2969,1.3145,1.3203,1.334,1.3516,1.418,1.4512,1.4512,1.5117,1.541,1.541,1.541,1.541,1.541,1.541,1.541,1.541,1.541,1.541,1.543,1.5605,1.5684,1.5742,1.6172,1.6465,1.6699,2.4118,2.3999,2.4298,2.5644,2.5884,2.6284,2.7416,2.8592,2.917,2.8594,2.954,2.9847,2.8887,2.8177,2.761,2.7188,2.6138,2.5149,0.0,2.3857,2.3202,2.2363,2.2508,2.2273,2.1562,2.2596,2.2727,2.1844,2.2593,2.2536,2.1551,2.062,1.9947,1.9482,1.9081,1.8882,1.8907,1.9309,1.9484,1.9484,1.971,1.9811,1.9811,1.9811,1.9811,1.9811,1.9811,1.956,1.9258,1.9434,2.0012,0.0,1.9911,0.0,0.0,0.0,0.0,0.0,2.1568,0.0,0.0,0.0,0.0,0.0,0.0,0.0,0.0,0.0,0.0,0.0,0.0,0.0,1.6873,1.6572,0.0,1.6647,0.0,0.0,0.0,0.0,0.0,0.0,0.0,0.0,0.0,0.0,0.0,0.0,1.292,1.2891,1.2891,1.2891,1.3281,1.3516,1.3516,1.4355,1.4785,1.4785,1.5215,1.541,1.541,1.541,1.541,1.541,1.541,1.541,1.541,1.541,1.541,1.541,1.541,1.541,1.5449,1.5762,1.5957,1.6213,2.5405,2.5046,2.5016,2.6333,2.6572,2.6792,2.7378,2.753,2.794,2.8851,2.8911,2.9018,2.9293,2.86,2.8273,2.88,2.7846,2.729,2.7485,0.0,2.4123,2.4365,2.3232,2.2936,2.3585,2.4291,2.4586,2.4558,2.3952,2.3663,2.354,2.1675,2.0769,2.0746,2.0654,2.0643,2.0643,2.0668,2.0668,2.0618,2.0012,1.9811,1.9811,0.0,1.9811,1.9811,1.9811,0.0,0.0,2.0413,2.0693,0.0,0.0,0.0,0.0,0.0,0.0,0.0,0.0,0.0,0.0,2.0514,0.0,0.0,0.0,0.0,1.8003,0.0,0.0,0.0,0.0,1.8179,1.7802,1.6697,1.6974,0.0,0.0,0.0,0.0,0.0,0.0,0.0,0.0,0.0,0.0,0.0,0.0,0.0,1.292,1.2891,1.2891,1.2891,1.3281,1.3516,1.3516,1.4355,1.4785,1.4785,1.5215,1.541,1.541,1.541,1.541,1.541,1.541,1.541,1.541,1.541,1.541,1.541,1.541,1.541,1.541,1.543,1.5703,1.6135,2.6123,2.6063,2.6063,2.6512,2.6602,2.7151,2.8699,2.9622,3.0248,3.0616,3.1021,3.1397,0.0,3.1196,3.0909,0.0,0.0,2.8966,2.8881,2.73,0.0,0.0,0.0,2.5764,0.0,2.5574,2.5226,2.3997,2.412,2.3759,2.2821,2.1794,2.112,2.0731,2.0267,2.0313,2.0693,2.0263,2.0313,0.0,0.0,2.0238,2.084,0.0,0.0,1.9811,1.9811,1.9811,0.0,2.0037,2.0338,2.0693,2.0439,2.1016,2.1719,2.1543,2.1995,0.0,0.0,0.0,2.3025,2.1343,0.0,0.0,0.0,0.0,0.0,0.0,0.0,0.0,0.0,1.8204,1.7953,1.7225,1.725,1.7124,0.0,0.0,0.0,0.0,0.0,0.0,0.0,0.0,0.0,0.0,0.0,0.0,0.0,1.2891,1.2891,1.2891,1.3555,1.3926,1.3926,1.4766,1.5195,1.5195,1.5352,1.541,1.541,1.541,1.541,1.541,1.541,1.541,1.541,1.541,1.541,1.541,1.541,1.5586,1.5801,1.5508,1.5508,1.5723,2.7171,2.729,2.729,2.729,2.7268,2.7958,2.9958,3.0808,3.1432,0.0,3.2581,0.0,3.3341,0.0,3.2742,0.0,3.1562,3.052,2.9442,2.856,0.0,2.8118,2.7755,2.7297,0.0,0.0,2.6264,2.5374,2.522,2.4708,2.3865,2.3104,2.2264,2.1407,2.1197,2.0932,2.0718,2.069,2.079,0.0,0.0,2.0413,0.0,0.0,2.0062,2.0338,0.0,1.9811,1.9811,1.9811,2.0062,2.0338,2.0162,2.0865,2.1694,2.1543,2.2121,2.2849,2.2849,2.2915,0.0,2.1769,2.1217,0.0,1.8882,0.0,0.0,0.0,0.0,0.0,0.0,0.0,1.8329,1.7752,1.7501,1.7174,0.0,1.6522,0.0,0.0,0.0,0.0,0.0,0.0,0.0,1.4538,1.4789,0.0,0.0,0.0,1.3238,1.3238,1.3795,1.4087,1.4087,1.498,1.541,1.541,1.541,1.541,1.541,1.541,1.541,1.541,1.541,1.541,1.541,1.541,1.541,1.543,1.5586,1.582,1.6096,1.5742,1.5742,1.5996,2.8517,2.8667,2.8697,2.8757,2.8605,2.9172,0.0,0.0,3.1433,0.0,3.3514,3.3752,3.3985,3.4022,3.3796,3.3219,3.3144,3.2066,2.9614,2.917,0.0,0.0,2.738,2.7642,2.9199,0.0,0.0,0.0,2.705,2.6387,2.6455,2.5238,2.3964,2.2688,2.3125,2.2393,2.0869,2.1845,2.197,2.1443,2.0916,2.0413,1.9962,1.9911,2.0589,2.1418,2.0263,1.9836,1.9836,1.9886,1.9861,1.9936,2.0542,2.0743,2.0869,2.1343,2.1895,2.2347,2.2347,2.2723,2.2874,2.182,0.0,0.0,0.0,0.0,2.0464,0.0,0.0,0.0,0.0,0.0,1.8882,1.8304,1.7727,1.7149,1.6597,0.0,0.0,0.0,0.0,0.0,0.0,0.0,1.6238,1.5644,1.5576,1.5309,0.0,0.0,1.3836,1.3858,1.4052,1.4141,1.4107,1.5,1.541,1.541,1.541,1.541,1.541,1.541,1.541,1.541,1.541,1.541,1.541,1.541,1.541,1.5449,1.5859,1.6115,1.6154,1.6154,1.6367,1.6797,2.9295,2.9714,3.0163,3.0702,3.0294,3.0476,0.0,0.0,0.0,0.0,3.5325,3.5425,3.5697,3.573,3.5353,3.4374,3.3922,0.0,0.0,0.0,0.0,3.2302,3.1059,3.0527,3.0866,3.0043,2.8993,2.7802,2.6866,2.5901,2.486,2.4096,2.3256,2.2407,2.2112,2.1939,2.187,2.1744,2.1619,2.1468,2.1343,2.1669,0.0,0.0,2.1744,2.2523,2.0991,2.0492,2.0514,2.0916,2.079,2.0517,2.0668,2.0941,2.1317,2.1443,2.2171,2.2865,2.2865,2.3025,2.3015,2.2774,2.2397,2.187,0.0,0.0,0.0,0.0,0.0,0.0,0.0,0.0,0.0,1.8355,1.7375,1.6697,1.6547,0.0,0.0,1.7099,0.0,0.0,0.0,1.6522,1.6238,1.5644,1.5576,1.5309,0.0,0.0,0.0,1.4251,1.4604,1.476,1.4609,1.5156,1.541,1.541,1.541,1.541,1.541,1.541,1.541,1.541,1.541,1.541,1.541,1.541,1.541,1.543,1.5527,1.5977,1.6562,1.6562,1.6641,1.6797,3.0372,3.142,3.2287,3.2377,0.0,0.0,3.4532,3.4292,0.0,3.6243,3.6236,0.0,3.5672,3.6081,3.5931,3.4826,3.4844,0.0,3.3462,0.0,0.0,3.3381,3.257,3.1988,3.1777,3.0511,0.0,2.7905,2.7216,2.6323,2.5273,2.5242,2.4693,2.3742,2.3688,2.355,2.3214,2.2907,2.2541,2.2196,2.1945,2.2071,0.0,2.1719,2.187,2.2322,2.1644,2.1242,2.1041,2.1117,2.1091,2.1066,2.1317,2.1594,2.1895,2.2146,2.2648,2.3015,2.2849,2.289,2.3015,2.2849,2.2723,2.2472,2.1669,2.197,2.1995,0.0,0.0,0.0,0.0,0.0,0.0,1.8028,1.73,1.6798,0.0,0.0,0.0,0.0,1.6722,0.0,0.0,1.6522,1.6367,1.5996,1.5996,1.5864,0.0,0.0,0.0,1.5296,1.5924,1.5966,1.53,1.6189,1.6336,1.5703,1.5703,1.5703,1.5703,1.5703,1.5586,1.541,1.541,1.541,1.541,1.541,1.5527,1.5742,1.6113,1.668,1.7285,1.7285,1.7285,1.7324,3.1659,3.3245,3.4292,0.0,0.0,0.0,0.0,3.6445,0.0,3.7204,0.0,3.5929,3.5042,3.5966,3.6185,3.4981,0.0,3.5553,3.3384,3.4407,3.4451,3.3024,3.2874,3.2623,3.2298,3.0397,2.9153,0.0,2.7845,2.7155,2.6496,2.7152,2.6777,2.5609,2.6131,2.565,2.4449,2.4213,2.378,2.304,2.2623,2.2121,2.1694,2.1694,2.1694,2.1769,2.2171,2.1995,2.1543,2.1117,2.1267,2.1669,2.2171,2.2322,2.2397,2.2899,2.3015,2.3025,2.2548,2.2774,2.2965,2.2548,2.2774,2.2874,2.192,2.1644,2.1468,2.1046,2.0363,2.0062,0.0,0.0,0.0,1.7652,0.0,0.0,0.0,0.0,0.0,0.0,0.0,0.0,0.0,0.0,1.6522,1.6522,1.6522,0.0,0.0,0.0,0.0,1.6502,1.73,0.0,1.6373,0.0,1.7551,1.6455,1.6294,1.6152,1.6152,1.6152,1.5918,1.5488,1.5488,1.5469,1.541,1.541,1.5664,1.6213,1.7031,1.7598,1.793,1.7988,1.8008,1.8008,3.3036,3.3873,3.4442,0.0,0.0,3.8153,4.0337,3.959,3.864,3.8642,3.8018,3.7253,3.6182,3.7114,3.7299,3.6149,3.708,0.0,0.0,0.0,0.0,3.3991,3.3146,3.28,3.3268,3.2344,3.1042,2.9401,2.8693,2.7748,2.6496,2.6602,2.6226,2.5465,2.5577,2.5107,2.4292,2.361,0.0,2.3065,2.3025,2.2924,2.2849,2.2849,2.2849,2.2799,2.2447,2.2246,2.2221,2.2573,2.2472,2.2196,2.2272,2.2322,2.2322,2.2422,2.2774,2.304,2.2965,2.299,2.304,2.294,2.299,2.3015,2.2899,2.2498,2.2146,2.2046,2.1217,2.0592,2.0693,0.0,0.0,0.0,0.0,0.0,0.0,0.0,0.0,0.0,0.0,0.0,0.0,0.0,0.0,0.0,0.0,0.0,0.0,0.0,0.0,0.0,1.714,0.0,0.0,0.0,1.7693,1.8323,1.7136,1.6621,1.6621,1.6621,1.6367,1.5957,1.5957,1.5742,1.541,1.541,1.5664,1.6213,1.7031,1.7422,1.7539,1.7891,1.8008,1.8008,3.4981,0.0,3.6207,0.0,0.0,0.0,0.0,4.2707,0.0,4.0661,3.9826,3.8854,3.7493,3.8362,3.8654,3.7763,3.792,3.7703,3.6844,3.5958,3.5639,3.5899,3.5408,3.4747,3.4023,3.3036,3.1693,3.0043,2.9401,2.8438,2.7068,2.7389,2.7214,2.6549,2.6549,2.6264,0.0,0.0,0.0,2.4642,2.4001,2.3721,2.3662,2.3245,2.3065,2.304,2.2824,2.2749,2.2723,2.2723,2.2723,2.2749,2.2749,2.2749,2.2749,2.2749,2.2924,2.3015,2.2799,2.2865,2.3015,2.2774,2.2865,2.299,2.2774,2.2498,2.2322,2.2322,2.1669,2.1091,2.1091,2.0413,0.0,0.0,0.0,0.0,0.0,0.0,0.0,0.0,0.0,0.0,0.0,0.0,0.0,0.0,0.0,0.0,0.0,0.0,0.0,0.0,0.0,0.0,0.0,0.0,0.0,1.896,1.8072,1.7671,1.7671,1.7244,1.6836,1.6406,1.6406,1.6289,1.6113,1.6348,1.6562,1.6816,1.7461,1.7715,1.7734,1.793,1.8008,1.8008,3.7045,3.7614,0.0,0.0,4.1474,0.0,4.3958,4.4961,4.4792,4.2531,4.1392,4.0292,3.8699,3.9562,3.9925,3.9173,3.8947,3.8762,3.8621,3.7987,3.7447,3.7089,3.6981,3.6127,3.4502,3.3335,3.202,0.0,3.0063,2.9144,2.7952,2.8521,2.8517,2.8008,0.0,0.0,0.0,0.0,2.6553,2.6318,2.5334,2.486,2.4696,2.4053,2.3646,2.3365,2.3543,2.3484,2.3289,2.2857,2.2892,2.3065,2.3065,2.3065,2.3065,2.3065,2.3065,2.305,2.2598,2.2799,2.3025,2.2598,2.2824,2.2965,2.2598,2.2397,2.2347,2.2472,2.1945,2.1418,2.1167,2.0865,0.0,0.0,0.0,0.0,0.0,0.0,0.0,0.0,0.0,0.0,0.0,0.0,0.0,0.0,0.0,1.6572,1.6697,1.7124,0.0,0.0,0.0,2.0048,1.9486,0.0,2.064,0.0,1.9312,1.8998,1.8998,1.8202,1.7526,1.711,1.6939,1.6816,1.6777,1.7207,1.7383,1.7422,1.7852,1.8008,1.8008,1.8008,1.8008,1.8008,0.0,0.0,0.0,0.0,0.0,0.0,4.3509,4.5042,4.5543,4.3719,4.2382,4.1107,3.9858,4.0774,4.0933,3.9648,4.051,4.0182,3.7987,3.7399,3.6764,3.6043,3.5536,3.5019,3.4502,3.3784,3.2736,0.0,3.0735,3.0048,0.0,2.9475,2.9445,0.0,0.0,0.0,0.0,2.7539,2.719,2.7187,2.7072,2.6682,2.6213,2.6098,2.531,2.4279,2.4964,2.4738,2.4163,2.4111,2.3669,2.3065,2.3065,2.3065,2.3065,2.3065,2.3065,2.3065,2.3015,2.304,2.3065,2.3015,2.304,2.3065,2.3015,2.2673,2.2447,2.289,2.2221,2.1167,2.0137,2.0338,2.0464,0.0,0.0,0.0,0.0,0.0,0.0,1.6597,0.0,0.0,0.0,0.0,0.0,0.0,0.0,1.6748,1.7275,1.735,1.7877,1.8858,0.0,2.006,2.1931,2.0836,0.0,2.236,2.1024,2.0395,2.0395,1.9488,1.8864,1.8342,1.7631,1.709,1.6777,1.7207,1.7383,1.7422,1.7852,1.8008,1.8008,1.8008,1.8008,1.8008,0.0,0.0,0.0,0.0,0.0,0.0,0.0,4.5813,4.5764,4.4246,4.3566,4.2934,4.2063,4.2386,4.2275,4.1362,4.0764,4.0147,3.9416,3.7812,3.6896,3.6781,3.6202,3.5666,3.51,3.4442,3.3634,0.0,0.0,0.0,0.0,0.0,0.0,0.0,0.0,2.9153,2.9068,2.8791,2.8679,2.865,2.8168,2.7826,2.7542,2.672,2.6043,2.551,2.4929,2.4851,2.4908,2.4452,2.4073,2.3721,2.3245,2.3065,2.3065,2.3065,2.3065,2.3065,2.3065,2.3065,2.3065,2.3065,2.3065,2.3065,2.3065,2.289,2.2874,2.31,2.2774,2.2347,2.1895,2.1719,2.1468,0.0,0.0,0.0,0.0,0.0,0.0,0.0,0.0,1.73,0.0,0.0,0.0,0.0,0.0,0.0,1.735,1.7702,0.0,1.8958,0.0,2.0439,2.1317,2.1403,2.1829,2.2469,2.1768,2.1353,2.1353,2.0462,1.9965,1.979,1.9469,1.8931,1.8332,1.9017,1.9036,1.8598,1.9291,1.9243,1.8777,1.8777,1.8462,1.8008,4.3838,0.0,4.3778,0.0,4.5514,4.5394,4.5933,4.6022,4.5544,4.4197,4.4018,4.3838,4.3389,4.3329,4.3,4.2162,4.0978,4.0176,4.0084,3.8517,3.7533,3.7366,3.6985,0.0,3.5519,3.4831,3.4233,3.3784,3.3125,0.0,0.0,0.0,0.0,0.0,3.0253,3.0163,3.0163,3.0163,3.0163,3.0108,2.9516,2.9199,2.891,2.7968,2.7343,2.6862,2.5938,2.5772,2.5911,2.5188,2.4964,2.4794,2.4047,2.3916,2.4012,2.3773,2.3713,2.3713,2.3653,2.3432,2.3125,2.3365,2.3424,2.3365,2.3125,2.3305,2.3314,2.2924,2.284,2.2799,2.2472,2.2221,2.1895,2.1343,0.0,0.0,0.0,0.0,0.0,0.0,1.7777,1.7802,1.7626,0.0,0.0,0.0,0.0,0.0,0.0,0.0,0.0,0.0,0.0,0.0,0.0,2.1845,2.2397,2.2548,2.2323,2.2249,2.2187,2.1353,2.0937,2.0792,2.0658,2.0357,1.9942,2.0399,2.0268,1.9748,2.0333,2.0204,1.9683,1.9683,1.9309,1.8777,4.5005,4.5274,4.5693,4.704,4.7279,4.683,4.5514,4.5304,4.4825,4.3509,4.3329,4.3329,4.3329,4.3329,4.2821,4.1504,4.1384,4.0816,3.9529,3.9409,3.8811,0.0,0.0,3.6806,3.5519,3.4831,3.4472,3.4472,0.0,0.0,3.3455,0.0,3.2497,3.2467,3.175,3.1452,3.1452,3.1452,3.1452,3.1452,3.1452,3.1034,3.0492,3.0492,2.9599,2.8365,2.8521,2.8071,2.7386,2.6726,2.6443,2.6336,2.5605,2.5798,2.618,2.5302,2.5123,2.5157,2.5064,2.4133,2.3305,2.4073,2.4279,2.4047,2.3305,2.3721,2.389,2.2597,2.2322,2.1995,2.0891,2.1142,2.1317,2.0819,0.0,0.0,0.0,0.0,0.0,0.0,1.8681,1.8758,1.8254,0.0,0.0,0.0,0.0,0.0,0.0,0.0,0.0,1.9786,2.0363,0.0,2.1468,2.202,2.2598,2.3065,2.3065,2.3065,2.3065,2.2249,2.1696,2.1351,2.0792,2.0859,2.1351,2.0792,2.059,2.059,2.059,2.059,2.059,2.059,2.059,2.059,4.6591,4.6651,4.6651,4.6651,4.6621,4.6172,4.4825,4.4616,4.4317,4.3449,4.3329,4.3329,4.3329,4.3329,4.3,0.0,4.1624,4.0995,0.0,3.923,3.8332,3.7434,3.7015,3.6387,3.5519,3.528,3.4951,3.4472,0.0,0.0,0.0,3.3275,3.3185,3.3185,3.2976,3.2617,3.2198,3.2198,3.1928,3.1482,3.1482,3.139,3.115,3.0672,3.0205,2.9681,2.8345,2.8018,2.8089,2.6886,2.6841,2.7262,2.7524,2.7054,2.6353,2.6065,2.628,2.664,2.6581,2.5995,2.5351,2.5481,2.4945,2.4326,2.4424,2.4393,2.3995,2.3018,2.2874,2.2774,2.2422,2.2196,2.187,2.1317,2.0765,0.0,0.0,0.0,0.0,0.0,1.8932,1.8908,0.0,1.9083,0.0,0.0,0.0,0.0,0.0,0.0,0.0,0.0,2.0941,0.0,2.2046,2.2598,2.289,2.3065,2.3065,2.3065,2.3065,2.2823,2.2653,2.2577,2.2795,2.2495,2.1823,2.2582,2.2336,2.1565,2.2125,2.2217,2.2016,2.2016,2.1694,2.1149,4.7309,4.71,4.68,4.6381,4.6112,4.5574,4.4496,4.4317,4.4077,4.3419,4.3329,4.3329,4.3329,4.3329,0.0,4.2402,4.1773,4.1115,4.0457,3.9379,3.8362,3.7434,3.7045,3.6417,3.5519,0.0,0.0,3.4861,3.4861,3.4651,3.4233,3.3993,3.3873,3.3844,3.3604,3.3275,3.2856,3.2617,3.2287,3.1869,3.1571,3.1482,3.1422,3.1061,3.0881,3.0705,2.916,2.8887,2.9152,2.8042,2.7994,2.8397,2.8816,2.8492,2.7911,2.7568,2.7736,2.8076,2.8046,2.7421,2.6768,2.6919,2.6158,2.5491,2.5807,2.5255,2.4531,2.4288,2.3644,2.3065,2.3065,2.2523,2.182,2.1267,2.0715,2.0213,1.9861,0.0,0.0,0.0,0.0,0.0,0.0,1.9811,0.0,0.0,0.0,0.0,0.0,0.0,0.0,2.0693,2.1393,0.0,2.2322,2.2849,2.319,2.3452,2.3678,2.3778,2.3778,2.3778,2.3879,2.4079,2.423,2.3952,2.3359,2.4041,2.3765,2.3067,2.3505,2.3666,2.349,2.349,2.3143,2.2686,4.7249,4.6741,0.0,0.0,4.5663,0.0,4.4347,4.4257,4.4018,4.3419,4.3329,4.3329,4.3329,4.3329,4.306,4.2402,0.0,0.0,0.0,3.9798,3.8841,3.7524,3.7434,3.6836,3.5609,3.5519,3.5519,3.5519,3.5519,3.5519,3.5489,3.4861,3.4532,3.4532,3.3903,3.3604,3.3514,3.2916,3.2587,3.2467,3.178,3.1511,3.1482,3.1482,3.1482,3.1392,3.0761,3.0492,3.0402,2.9774,2.9594,2.9594,2.9624,3.0043,3.0324,2.961,2.9464,2.9522,2.9434,2.8479,2.7706,2.834,2.7937,2.7322,2.7207,2.6267,2.5548,2.6073,2.4667,2.3406,2.3321,2.2387,2.1479,2.0923,2.024,1.9811,1.9811,0.0,0.0,0.0,0.0,0.0,0.0,2.0363,2.0464,0.0,0.0,0.0,0.0,0.0,2.1368,2.0794,2.1769,2.2347,2.2422,2.2949,2.3477,2.4054,2.4582,2.4833,2.4833,2.4833,2.5084,2.5511,2.5084,2.5134,2.5511,2.5059,2.4858,2.4833,2.4833,2.4833,2.4883,2.4883,2.4883,2.4883,0.0,0.0,4.5992,4.4975,4.4646,4.4317,4.3658,4.3569,4.3509,4.3359,4.3329,4.3329,4.3329,4.3329,4.306,4.2402,4.1773,4.1324,4.1145,4.0068,3.905,3.8182,3.7674,3.7045,3.6267,3.5759,3.5519,3.5519,3.5519,3.5519,3.5519,3.534,3.525,3.525,3.51,3.4741,3.4233,3.4083,3.3425,3.2497,3.2347,3.1988,3.1482,3.1482,3.1482,3.1392,3.0761,3.0492,3.0402,2.9774,2.9594,2.9654,3.0133,3.0372,3.0436,3.0268,3.0567,3.0982,3.0982,3.0364,2.978,2.9811,2.9315,2.8535,2.7499,2.7451,2.7511,2.7065,2.6635,2.619,2.5697,2.4246,2.2876,2.2271,2.0861,1.9811,1.9811,1.9811,0.0,0.0,2.0517,2.0614,2.1041,2.084,2.0966,0.0,0.0,0.0,0.0,2.2799,2.2749,2.1343,2.1945,2.2723,2.3602,2.3728,2.4079,2.4632,2.4757,2.4833,2.4833,2.4833,2.4883,2.5034,2.5285,2.5259,2.5034,2.531,2.5184,2.4833,2.4833,2.5059,2.541,2.541,2.541,2.541,4.683,4.6262,4.5633,4.4885,4.4257,4.3748,4.3389,4.3329,4.3329,4.3329,4.3329,4.3329,4.3329,4.3329,4.318,4.2851,4.1923,4.1265,4.0935,3.9978,3.896,3.7973,3.7584,3.6985,3.6058,3.5699,3.5519,3.5519,3.5519,3.5519,3.5519,3.5519,3.5519,3.5519,3.5519,3.531,3.4921,3.4622,3.4053,3.3365,3.2766,3.2467,3.2407,3.2108,3.1988,3.1928,3.1539,3.142,3.136,3.1031,3.112,3.142,3.1779,3.1869,3.1869,3.1869,3.1719,3.1482,3.1482,3.127,3.086,3.0422,3.054,3.0396,2.8993,2.8968,2.9203,2.8791,2.7956,2.727,2.7242,2.5492,2.3798,2.3177,2.1693,2.0471,1.9888,2.0042,0.0,2.0643,2.0718,2.1046,2.1794,2.182,2.1945,2.2297,0.0,0.0,2.2347,2.3627,2.3728,2.2297,2.3025,2.3753,2.4381,2.4607,2.4883,2.5184,2.5435,2.5561,2.5561,2.5561,2.5561,2.5586,2.5862,2.5837,2.5586,2.5862,2.5812,2.5561,2.5561,2.5737,2.5988,2.5988,2.5988,2.5988,4.7189,4.6232,4.5394,4.5185,4.4227,4.3449,4.3359,4.3329,4.3329,4.3329,4.3329,4.3329,4.3329,4.3329,4.3299,4.318,4.2073,4.1145,4.0576,3.9828,3.8901,3.7764,3.7524,3.6896,3.5818,3.5609,3.5519,3.5519,3.5519,3.5519,3.5519,3.5519,3.5519,3.5519,3.5519,3.5519,3.5459,3.4891,3.4562,3.4382,3.3275,3.3095,3.3425,3.2886,3.2647,3.2647,3.2647,3.2647,3.2647,3.2647,3.3036,3.3484,3.3484,3.3484,3.3484,3.3484,3.2706,3.1839,3.1839,3.1839,3.1633,3.0921,3.1721,3.2288,3.095,3.0742,3.0831,3.0684,2.9283,2.8155,2.8521,2.6581,2.4747,2.4177,2.2814,2.1502,2.0527,0.0,2.1067,2.111,2.1183,2.1635,2.2573,2.305,2.3125,2.2824,2.3979,2.4155,0.0,2.4155,2.4506,2.3527,2.4356,2.4858,2.4933,2.546,2.5737,2.5737,2.6239,2.6533,2.6533,2.6533,2.6533,2.6533,2.6533,2.6533,2.6533,2.6533,2.6533,2.6533,2.6533,2.6533,2.6533,2.6533,2.6533,2.6533,4.6591,4.6322,4.5813,4.4676,4.4287,4.3958,4.3419,4.3329,4.3329,4.3329,4.3329,4.3329,4.3329,4.3329,4.312,4.2551,4.1803,4.1324,4.1235,4.0098,3.932,3.911,3.8003,3.7315,3.7135,3.6058,3.5519,3.5519,3.5519,3.5519,3.5519,3.5519,3.5519,3.5519,3.5519,3.5519,3.5489,3.54,3.5011,3.4472,3.4262,3.3903,3.3484,3.3395,3.3335,3.3335,3.3335,3.3335,3.3335,3.3335,3.3395,3.3484,3.3484,3.3484,3.3484,3.3484,3.3335,3.3185,3.3185,3.3185,3.3185,3.3063,3.3214,3.3124,3.2318,3.2586,3.2853,3.2288,3.1931,3.1368,3.0332,2.8499,2.6928,2.6222,2.4061,2.2615,2.3002,0.0,2.2458,2.2844,2.3398,2.3891,2.4394,2.4079,2.4205,2.5034,2.4481,2.4406,2.5059,2.5335,2.5385,2.5234,2.4958,2.5034,2.5485,2.6038,2.6382,2.6339,2.6483,2.6533,2.6533,2.6533,2.6533,2.6533,2.6533,2.6533,2.6533,2.6533,2.6533,2.6533,2.6533,2.6533,2.6533,2.6533,2.6533,2.6533,4.692,4.6561,4.6112,4.5514,4.4796,4.4227,4.3898,4.3569,4.3329,4.3329,4.3329,4.3329,4.3329,4.3329,4.321,4.291,4.1953,4.1384,4.1384,4.0157,3.926,3.8871,3.7913,3.7075,3.6387,3.5818,3.5519,3.5519,3.5519,3.5519,3.5519,3.5519,3.5519,3.5519,3.5519,3.5519,3.5519,3.5519,3.531,3.5011,3.4622,3.4532,3.4532,3.4173,3.4023,3.4023,3.4023,3.4023,3.4023,3.4023,3.4262,3.4592,3.4592,3.4592,3.4592,3.4592,3.4053,3.3484,3.3484,3.3484,3.3484,3.3484,3.3754,3.3844,3.3185,3.3544,3.3844,3.3185,3.3036,3.2736,3.1779,2.9971,2.8601,2.8301,2.5959,0.0,0.0,2.4657,2.4443,2.4968,2.4891,2.5082,2.5884,2.5268,2.5059,2.5561,2.5435,2.541,2.5586,2.5887,2.6063,2.6063,2.5837,2.5812,2.6063,2.6339,2.6533,2.6533,2.6533,2.6533,2.6533,2.6533,2.6533,2.6533,2.6533,2.6533,2.6533,2.6533,2.6533,2.6533,2.6533,2.6533,2.6533,2.6533,2.6533,2.6533,4.7309,4.689,4.6441,4.6142,4.5364,4.4616,4.4167,4.3778,4.3509,4.3359,4.3329,4.3329,4.3329,4.3329,4.3329,4.3329,4.2282,4.1534,4.1384,4.0277,3.9349,3.8661,3.7853,3.6896,3.5759,3.5579,3.5519,3.5519,3.5519,3.5519,3.5519,3.5519,3.5519,3.5519,3.5519,3.5519,3.5519,3.5519,3.5519,3.5459,3.4921,3.504,3.5459,3.4921,3.4711,3.4711,3.4711,3.4711,3.4711,3.4711,3.507,3.5519,3.5519,3.5519,3.5519,3.5519,3.4771,3.3963,3.3963,3.3963,3.3963,3.3963,3.4352,3.4532,3.3873,3.4233,3.4532,3.3873,3.3724,3.3514,3.2856,3.139,3.0205,3.0045,0.0,0.0,0.0,2.7104,2.682,2.7116,2.6675,2.6661,2.729,2.6622,2.612,2.612,2.6324,2.6264,2.5812,2.6214,2.6533,2.6533,2.6533,2.6533,2.6533,2.6533,2.6584,2.671,2.671,2.6716,2.6841,2.6716,2.671,2.671,2.6584,2.6533,2.6533,2.6533,2.6533,2.6533,2.6533,2.6533,2.6533,2.6533,2.6533,2.6533,4.7309,4.7279,4.683,4.5574,4.5813,4.5544,4.3688,4.3898,4.4018,4.3419,4.3329,4.3329,4.3329,4.3329,4.3329,4.3329,4.2701,4.2043,4.1414,4.0726,4.0038,3.9379,3.8093,3.7105,3.6417,3.5818,3.5519,3.5519,3.5519,3.5519,3.5519,3.5519,3.5519,3.5519,3.5519,3.5519,3.5519,3.5519,3.5519,3.5519,3.5459,3.5459,3.5489,3.5459,3.5429,3.5429,3.5429,3.5429,3.5429,3.5429,3.5459,3.5519,3.5519,3.5519,3.5519,3.5519,3.5429,3.534,3.534,3.534,3.534,3.534,3.54,3.525,3.4562,3.4921,3.525,3.4532,3.4412,3.4203,3.3544,3.2796,3.2049,3.1482,0.0,0.0,3.0179,3.0133,2.981,2.9173,2.9574,2.9643,2.8919,2.805,2.7551,2.7551,2.6892,2.6508,2.6458,2.6508,2.6533,2.6533,2.6533,2.6533,2.6533,2.6533,2.6716,2.7218,2.7218,2.7494,2.7971,2.7444,2.7218,2.7193,2.676,2.6533,2.6533,2.6533,2.6533,2.6533,2.6533,2.6533,2.6533,2.6533,2.6533,2.6533,4.677,4.701,4.701,4.6082,4.5813,4.5304,4.4107,4.3808,4.3629,4.3359,4.3329,4.3329,4.3329,4.3329,4.3329,4.3329,4.2731,4.2252,4.2013,4.0995,3.9918,3.8841,3.8302,3.7524,3.6507,3.6237,3.5908,3.5519,3.5519,3.5519,3.5519,3.5519,3.5519,3.5519,3.5519,3.5519,3.5519,3.5519,3.5519,3.5519,3.5519,3.5519,3.5519,3.5519,3.5519,3.5519,3.5519,3.5519,3.5519,3.5519,3.5519,3.5519,3.5519,3.5519,3.5519,3.5519,3.5519,3.5519,3.5519,3.5519,3.5519,3.5519,3.5519,3.5429,3.519,3.531,3.5429,3.516,3.513,3.4921,3.4233,3.3574,3.3185,3.3335,0.0,3.1545,3.2826,3.2228,3.1752,3.19,3.1299,3.0898,3.0984,2.929,2.8396,2.8765,2.7677,2.6967,2.6967,2.664,2.6533,2.6533,2.6791,2.6816,2.6533,2.6533,2.6741,2.7293,2.7293,2.757,2.8097,2.7896,2.7795,2.777,2.757,2.7469,2.7469,2.7469,2.7293,2.6967,2.6967,2.6766,2.6559,2.6841,2.6766,2.6584,4.6711,4.698,4.704,4.6142,4.5783,4.5244,4.4167,4.3808,4.3569,4.3359,4.3329,4.3329,4.3329,4.3329,4.3329,4.3329,4.291,4.2581,4.2372,4.1115,3.9888,3.8751,3.8512,3.7973,3.7105,3.6896,3.6447,3.5818,3.5998,3.5908,3.5519,3.5729,3.5699,3.5519,3.5519,3.5519,3.5519,3.5519,3.5519,3.5519,3.5519,3.5519,3.5519,3.5519,3.5519,3.5519,3.5519,3.5519,3.5519,3.5519,3.5519,3.5549,3.5759,3.5818,3.5759,3.5579,3.5519,3.5519,3.5519,3.5519,3.5519,3.5519,3.5519,3.5519,3.5519,3.5519,3.5519,3.5519,3.5519,3.537,3.4891,3.4442,3.4203,3.4442,3.3514,3.3185,3.4322,3.3873,3.3544,3.3784,3.2904,3.2324,3.2587,3.0807,2.9862,3.0297,2.8716,2.7545,2.7112,2.6841,2.6716,2.6716,2.7092,2.7193,2.6967,2.6967,2.7168,2.7544,2.772,2.8097,2.8624,2.8448,2.8373,2.8348,2.8172,2.8097,2.8097,2.8097,2.7871,2.7544,2.7544,2.7193,2.6766,2.7143,2.6942,2.6584,4.7309,4.7309,4.689,4.5514,4.5873,4.5633,4.3629,4.3898,4.4077,4.3419,4.3329,4.3329,4.3329,4.3329,4.3329,4.3329,4.3329,4.306,4.2402,4.1115,4.0098,3.9469,3.8781,3.8392,3.8392,3.7764,3.7105,3.6507,3.7105,3.6776,3.5519,3.6178,3.6148,3.5519,3.5519,3.5519,3.5519,3.5519,3.5519,3.5519,3.5519,3.5519,3.5519,3.5519,3.5519,3.5519,3.5519,3.5519,3.5519,3.5519,3.5519,3.5609,3.6267,3.6477,3.6357,3.5699,3.5519,3.5519,3.5519,3.5519,3.5519,3.5519,3.5519,3.5519,3.5519,3.5519,3.5519,3.5519,3.5519,3.5519,3.5519,3.5519,3.528,3.4592,3.507,3.528,3.4592,3.507,3.525,3.4562,3.4472,3.4233,3.3574,3.2708,3.2234,3.2234,3.0047,2.8098,2.6627,2.7062,2.7364,2.7364,2.7364,2.7544,2.8097,2.8097,2.8097,2.8122,2.8674,2.9227,2.9779,2.9202,2.8925,2.89,2.8348,2.8122,2.8122,2.8122,2.8122,2.8122,2.8122,2.777,2.7293,2.7293,2.6942,2.6533,4.6711,4.6621,4.6322,4.5454,4.5095,4.4556,4.3479,4.3509,4.3569,4.3359,4.3329,4.3329,4.3329,4.3329,4.3329,4.3329,4.3329,4.306,4.2402,4.1115,4.0307,4.0127,3.9469,3.8871,3.8392,3.8182,3.7793,3.7135,3.7315,3.7225,3.6836,3.7045,3.7015,3.6836,3.6387,3.6178,3.6178,3.5699,3.5519,3.5519,3.5519,3.5519,3.5519,3.5519,3.5519,3.5579,3.6028,3.5908,3.5579,3.6028,3.5878,3.5609,3.6267,3.6776,3.7015,3.6387,3.6178,3.6088,3.5639,3.5519,3.5519,3.5519,3.5519,3.5519,3.5519,3.5519,3.5519,3.5519,3.5519,3.5519,3.5519,3.5519,3.5429,3.522,3.537,3.5429,3.522,3.537,3.5429,3.522,3.4771,3.4592,3.4891,3.3644,3.3005,3.3437,3.1858,3.0501,2.97,2.9835,2.9875,2.9875,3.0254,3.0041,2.9125,2.8435,2.8298,2.8674,2.885,2.9227,2.9779,2.9603,2.9528,2.9528,2.9352,2.9277,2.9277,2.9277,2.9051,2.8674,2.8674,2.8097,2.7344,2.772,2.7268,2.6584,4.68,4.6711,4.6501,4.5813,4.5155,4.4496,4.3838,4.3509,4.3329,4.3329,4.3329,4.3329,4.3329,4.3329,4.3329,4.3329,4.3329,4.306,4.2402,4.1384,4.0666,4.0397,3.9768,3.923,3.8811,3.8811,3.8482,3.7793,3.8063,3.7943,3.7404,3.7674,3.7644,3.7404,3.7015,3.6866,3.6836,3.6417,3.6267,3.6237,3.5998,3.5908,3.5908,3.5908,3.5729,3.5579,3.6237,3.6237,3.5968,3.6357,3.6567,3.6656,3.6806,3.7285,3.7674,3.7045,3.6866,3.6716,3.6058,3.5908,3.5818,3.5579,3.5519,3.5519,3.5519,3.5519,3.5519,3.5519,3.5519,3.5519,3.5519,3.5519,3.5519,3.5519,3.5519,3.5519,3.5519,3.5519,3.5519,3.5519,3.513,3.504,3.5459,3.4646,3.3981,3.3705,3.305,3.2162,3.1054,3.1221,3.1292,3.1292,3.1653,3.1419,3.0751,2.9803,2.9147,2.8925,2.9151,2.9453,2.9804,2.9804,2.9804,2.9804,2.9804,2.9804,2.9804,2.9804,2.9453,2.8925,2.8925,2.8247,2.7318,2.767,2.7218,2.6584,4.7309,4.7249,4.704,4.6441,4.5753,4.5065,4.4407,4.3808,4.3389,4.3329,4.3329,4.3329,4.3329,4.3329,4.3329,4.3329,4.3269,4.303,4.2491,4.1773,4.1115,4.0516,3.9858,3.9499,3.9499,3.9439,3.911,3.8482,3.917,3.8841,3.7584,3.8272,3.8212,3.7584,3.7524,3.7494,3.7494,3.7434,3.7404,3.7375,3.6806,3.6567,3.6567,3.6567,3.6207,3.5759,3.6417,3.6626,3.6567,3.6567,3.7375,3.8272,3.7674,3.7943,3.8362,3.7704,3.7494,3.7375,3.6746,3.6567,3.6417,3.5818,3.5639,3.5579,3.5519,3.5519,3.5519,3.5519,3.5519,3.5519,3.5519,3.5519,3.5519,3.5519,3.5519,3.5519,3.5519,3.5519,3.5519,3.5519,3.5519,3.5519,3.5519,3.5519,3.4896,3.3499,3.3859,3.3321,3.1489,3.1898,3.2137,3.2137,3.2137,3.2319,3.2735,3.1901,3.0634,2.9151,2.9605,2.9804,2.9804,2.9804,2.9804,2.9804,2.9804,2.9804,2.9804,2.9804,2.9453,2.8925,2.8925,2.8273,2.7344,2.7293,2.6967,2.6584,4.7309,4.689,4.6501,4.6352,4.5753,4.5065,4.4407,4.4197,4.3928,4.3389,4.3329,4.3329,4.3329,4.3329,4.3329,4.3329,4.288,4.2731,4.309,4.2013,4.1324,4.1175,4.0546,4.0187,4.0187,3.9679,3.9349,3.92,3.9858,3.9768,3.899,3.9649,3.9619,3.896,3.8422,3.8182,3.8153,3.7614,3.7404,3.7404,3.7255,3.7195,3.7195,3.7195,3.7105,3.7075,3.7734,3.7644,3.7195,3.7195,3.7734,3.8362,3.8212,3.8631,3.905,3.8392,3.8182,3.8033,3.7375,3.7195,3.7165,3.7015,3.6626,3.6148,3.5639,3.5519,3.5519,3.5519,3.5519,3.5519,3.5519,3.5519,3.5519,3.5519,3.5519,3.5519,3.5519,3.5519,3.5519,3.5519,3.5519,3.5519,3.5519,3.5519,3.5365,3.502,3.5139,3.5014,3.4522,3.464,3.4699,3.4699,3.4699,3.4397,3.3739,3.3533,3.2467,3.0712,3.0088,2.9804,2.9804,2.9804,2.9804,2.9804,2.9804,2.9804,2.9804,2.9804,2.9453,2.8925,2.8925,2.8524,2.7871,2.7444,2.7218,2.7042,4.7309,4.704,4.68,4.68,4.6232,4.5663,4.5334,4.5005,4.4556,4.3898,4.3808,4.3688,4.3359,4.3329,4.3329,4.3329,4.303,4.297,4.3299,4.2402,4.1863,4.1863,4.1205,4.0876,4.0876,4.0516,4.0217,3.9888,3.9918,3.9738,3.9439,3.9768,3.9738,3.9409,3.905,3.8871,3.8841,3.8512,3.8362,3.8332,3.8003,3.7883,3.7883,3.7883,3.7674,3.7494,3.8153,3.8153,3.7943,3.8242,3.8601,3.8871,3.8871,3.914,3.9349,3.899,3.8871,3.8721,3.8063,3.7883,3.7793,3.7494,3.7165,3.6836,3.6507,3.5938,3.5579,3.5908,3.5729,3.5519,3.5519,3.5519,3.5519,3.5519,3.5519,3.5519,3.5519,3.5519,3.5519,3.5519,3.5519,3.5519,3.5519,3.5519,3.5519,3.5519,3.5519,3.5519,3.5519,3.5519,3.5519,3.5519,3.5519,3.5228,3.4706,3.4245,3.3533,3.2522,3.1119,3.0216,2.9804,2.9804,2.9804,2.9804,2.9804,2.9804,2.9804,2.9804,2.9302,2.8524,2.8524,2.8047,2.7293,2.6992,2.6892,2.6841,4.7309,4.7309,4.7309,4.7309,4.686,4.6441,4.6352,4.5843,4.5244,4.4556,4.4377,4.4107,4.3569,4.3389,4.3329,4.3329,4.3329,4.3329,4.3329,4.2821,4.2491,4.2372,4.1833,4.1564,4.1564,4.1444,4.1115,4.0576,4.0008,3.9709,3.9589,3.9589,3.9529,3.9409,3.9409,3.9409,3.9409,3.9409,3.9409,3.9379,3.8781,3.8571,3.8571,3.8571,3.8242,3.7823,3.8362,3.8571,3.8661,3.923,3.9409,3.9409,3.9409,3.9409,3.9439,3.9559,3.9499,3.932,3.8871,3.8661,3.8452,3.7883,3.7674,3.7614,3.7734,3.6746,3.5938,3.6387,3.6058,3.5669,3.5669,3.5669,3.5669,3.5669,3.5669,3.5639,3.5519,3.5519,3.5519,3.5519,3.5519,3.5519,3.5519,3.5519,3.5519,3.5519,3.5519,3.5519,3.5519,3.5519,3.5519,3.5519,3.5519,3.5519,3.5519,3.4677,3.4177,3.3945,3.2379,3.1193,3.0292,3.0139,3.0139,3.0292,3.0139,3.0139,3.0292,3.0062,2.9403,2.8315,2.817,2.7494,2.6659,2.6659,2.6609,2.6533,4.7309,4.7309,4.7309,4.7309,4.7249,4.698,4.6411,4.6232,4.5933,4.5244,4.4676,4.4287,4.4197,4.3688,4.3329,4.3329,4.3329,4.3329,4.3329,4.324,4.294,4.2372,4.2282,4.2222,4.2222,4.1683,4.1324,4.1235,4.1145,4.0816,4.0277,4.0277,3.9978,3.9409,3.9409,3.9409,3.9409,3.9409,3.9409,3.9409,3.932,3.929,3.929,3.929,3.923,3.917,3.926,3.929,3.929,3.9379,3.9409,3.9409,3.9409,3.9409,3.9529,4.0098,3.9858,3.9529,4.0008,3.9709,3.926,3.917,3.8691,3.8422,3.902,3.8123,3.7015,3.6567,3.6417,3.6357,3.6357,3.6357,3.6357,3.6357,3.6357,3.6148,3.5579,3.5519,3.5519,3.5519,3.5519,3.5519,3.5519,3.5519,3.5519,3.5519,3.5519,3.5519,3.5519,3.5519,3.5519,3.5519,3.5519,3.5519,3.5519,3.5359,3.4839,3.4013,3.3739,3.3115,3.2191,3.1389,3.1462,3.2191,3.1389,3.1462,3.2191,3.1315,3.0361,2.9267,2.8435,2.772,2.7168,2.7168,2.6866,2.6609,4.7309,4.7309,4.7309,4.7309,4.7309,4.7219,4.692,4.686,4.6621,4.5963,4.5603,4.5274,4.4915,4.4287,4.3748,4.3359,4.3329,4.3329,4.3329,4.3329,4.321,4.291,4.291,4.291,4.291,4.2611,4.2462,4.2462,4.1354,4.0696,4.0397,4.0038,3.9709,3.9439,3.9798,3.9768,3.9469,4.0217,4.0098,3.9439,3.9828,3.9738,3.9409,3.9409,3.9649,4.0008,4.0397,4.0516,4.0516,4.0516,4.0277,4.0038,4.0397,4.0277,4.0098,4.0756,4.0756,4.0576,4.0876,4.0726,4.0427,4.0068,3.9738,3.9499,3.9439,3.896,3.8362,3.7674,3.7255,3.7015,3.7015,3.7015,3.6896,3.6537,3.6477,3.6267,3.5609,3.5519,3.5519,3.5519,3.5519,3.5519,3.5519,3.5519,3.5519,3.5519,3.5519,3.5519,3.5519,3.5519,3.5519,3.5519,3.5519,3.5519,3.5519,3.5519,3.5294,3.4839,3.4839,3.4041,3.2593,3.2164,3.2236,3.2593,3.2164,3.2236,3.2566,3.1738,3.0972,3.016,2.9358,2.8612,2.7919,2.748,2.7318,2.7369]}]]